<?xml version="1.0" encoding="UTF-8" standalone="no" ?>
<gpx xmlns="http://www.topografix.com/GPX/1/1" xmlns:xsi="http://www.w3.org/2001/XMLSchema-instance" xsi:schemaLocation="http://www.topografix.com/GPX/1/1 http://www.topografix.com/GPX/1/1/gpx.xsd" version="1.1" creator="VisuGPX - https://www.visugpx.com">
  <metadata>
    <name>83 - D+   Collobrières </name>
    <desc><![CDATA[83 - D+   Collobrières : plateau Lambert 
2022-10-30]]></desc>
  </metadata>
  <trk>
    <name><![CDATA[Collobrières plateau lambert 2022-10-30]]></name>
    <trkseg>
      <trkpt lat="43.23635" lon="6.31213">
        <ele>197.9</ele>
        <time>2022-10-30T08:42:01Z</time>
      </trkpt>
      <trkpt lat="43.23635" lon="6.31213">
        <ele>197.9</ele>
        <time>2022-10-30T08:42:01Z</time>
      </trkpt>
      <trkpt lat="43.2363" lon="6.31206">
        <ele>197.5</ele>
        <time>2022-10-30T08:42:02Z</time>
      </trkpt>
      <trkpt lat="43.23627" lon="6.3122">
        <ele>209.7</ele>
        <time>2022-10-30T08:42:07Z</time>
      </trkpt>
      <trkpt lat="43.23632" lon="6.31207">
        <ele>205.7</ele>
        <time>2022-10-30T08:42:14Z</time>
      </trkpt>
      <trkpt lat="43.23635" lon="6.31194">
        <ele>200.7</ele>
        <time>2022-10-30T08:42:15Z</time>
      </trkpt>
      <trkpt lat="43.23628" lon="6.31204">
        <ele>193.9</ele>
        <time>2022-10-30T08:42:27Z</time>
      </trkpt>
      <trkpt lat="43.23627" lon="6.31217">
        <ele>200.2</ele>
        <time>2022-10-30T08:42:32Z</time>
      </trkpt>
      <trkpt lat="43.23617" lon="6.31228">
        <ele>204.9</ele>
        <time>2022-10-30T08:42:38Z</time>
      </trkpt>
      <trkpt lat="43.23604" lon="6.31227">
        <ele>203.8</ele>
        <time>2022-10-30T08:42:48Z</time>
      </trkpt>
      <trkpt lat="43.2359" lon="6.31217">
        <ele>202.8</ele>
        <time>2022-10-30T08:42:56Z</time>
      </trkpt>
      <trkpt lat="43.23591" lon="6.3119">
        <ele>202.1</ele>
        <time>2022-10-30T08:43:07Z</time>
      </trkpt>
      <trkpt lat="43.23581" lon="6.31193">
        <ele>201.8</ele>
        <time>2022-10-30T08:43:09Z</time>
      </trkpt>
      <trkpt lat="43.23585" lon="6.31205">
        <ele>201.6</ele>
        <time>2022-10-30T08:43:13Z</time>
      </trkpt>
      <trkpt lat="43.23581" lon="6.31219">
        <ele>201.2</ele>
        <time>2022-10-30T08:43:20Z</time>
      </trkpt>
      <trkpt lat="43.23573" lon="6.31227">
        <ele>201.2</ele>
        <time>2022-10-30T08:43:23Z</time>
      </trkpt>
      <trkpt lat="43.23569" lon="6.3124">
        <ele>201</ele>
        <time>2022-10-30T08:43:30Z</time>
      </trkpt>
      <trkpt lat="43.23568" lon="6.31246">
        <ele>200.8</ele>
        <time>2022-10-30T08:43:37Z</time>
      </trkpt>
      <trkpt lat="43.23568" lon="6.31245">
        <ele>200.8</ele>
        <time>2022-10-30T08:43:38Z</time>
      </trkpt>
      <trkpt lat="43.2356" lon="6.31239">
        <ele>201.6</ele>
        <time>2022-10-30T08:43:51Z</time>
      </trkpt>
      <trkpt lat="43.2355" lon="6.31241">
        <ele>201.9</ele>
        <time>2022-10-30T08:44:24Z</time>
      </trkpt>
      <trkpt lat="43.23543" lon="6.31248">
        <ele>202.3</ele>
        <time>2022-10-30T08:44:30Z</time>
      </trkpt>
      <trkpt lat="43.23537" lon="6.31258">
        <ele>203.7</ele>
        <time>2022-10-30T08:44:47Z</time>
      </trkpt>
      <trkpt lat="43.23538" lon="6.31258">
        <ele>203.8</ele>
        <time>2022-10-30T08:44:49Z</time>
      </trkpt>
      <trkpt lat="43.23537" lon="6.31259">
        <ele>203.8</ele>
        <time>2022-10-30T08:44:50Z</time>
      </trkpt>
      <trkpt lat="43.2353" lon="6.31266">
        <ele>204</ele>
        <time>2022-10-30T08:44:59Z</time>
      </trkpt>
      <trkpt lat="43.23527" lon="6.31271">
        <ele>204.2</ele>
        <time>2022-10-30T08:45:05Z</time>
      </trkpt>
      <trkpt lat="43.23526" lon="6.31271">
        <ele>204.2</ele>
        <time>2022-10-30T08:45:06Z</time>
      </trkpt>
      <trkpt lat="43.23526" lon="6.31272">
        <ele>204.3</ele>
        <time>2022-10-30T08:45:08Z</time>
      </trkpt>
      <trkpt lat="43.23526" lon="6.31272">
        <ele>204.4</ele>
        <time>2022-10-30T08:45:09Z</time>
      </trkpt>
      <trkpt lat="43.23518" lon="6.31279">
        <ele>204.8</ele>
        <time>2022-10-30T08:45:17Z</time>
      </trkpt>
      <trkpt lat="43.2351" lon="6.31285">
        <ele>205.4</ele>
        <time>2022-10-30T08:45:26Z</time>
      </trkpt>
      <trkpt lat="43.23501" lon="6.31292">
        <ele>205.9</ele>
        <time>2022-10-30T08:45:35Z</time>
      </trkpt>
      <trkpt lat="43.23493" lon="6.31298">
        <ele>206.9</ele>
        <time>2022-10-30T08:45:46Z</time>
      </trkpt>
      <trkpt lat="43.2349" lon="6.31301">
        <ele>207.6</ele>
        <time>2022-10-30T08:45:54Z</time>
      </trkpt>
      <trkpt lat="43.23489" lon="6.31302">
        <ele>207.7</ele>
        <time>2022-10-30T08:45:55Z</time>
      </trkpt>
      <trkpt lat="43.23484" lon="6.31312">
        <ele>208.7</ele>
        <time>2022-10-30T08:46:15Z</time>
      </trkpt>
      <trkpt lat="43.23478" lon="6.31323">
        <ele>209.7</ele>
        <time>2022-10-30T08:46:29Z</time>
      </trkpt>
      <trkpt lat="43.23468" lon="6.31328">
        <ele>211.4</ele>
        <time>2022-10-30T08:46:44Z</time>
      </trkpt>
      <trkpt lat="43.23465" lon="6.31331">
        <ele>211.7</ele>
        <time>2022-10-30T08:46:49Z</time>
      </trkpt>
      <trkpt lat="43.23465" lon="6.31332">
        <ele>211.7</ele>
        <time>2022-10-30T08:46:50Z</time>
      </trkpt>
      <trkpt lat="43.23458" lon="6.31341">
        <ele>212.8</ele>
        <time>2022-10-30T08:47:02Z</time>
      </trkpt>
      <trkpt lat="43.2345" lon="6.31347">
        <ele>214</ele>
        <time>2022-10-30T08:47:16Z</time>
      </trkpt>
      <trkpt lat="43.23443" lon="6.31356">
        <ele>214.8</ele>
        <time>2022-10-30T08:47:25Z</time>
      </trkpt>
      <trkpt lat="43.23435" lon="6.31361">
        <ele>216</ele>
        <time>2022-10-30T08:47:36Z</time>
      </trkpt>
      <trkpt lat="43.23435" lon="6.31362">
        <ele>216.1</ele>
        <time>2022-10-30T08:47:38Z</time>
      </trkpt>
      <trkpt lat="43.23434" lon="6.31362">
        <ele>216.2</ele>
        <time>2022-10-30T08:47:39Z</time>
      </trkpt>
      <trkpt lat="43.23434" lon="6.31368">
        <ele>219.3</ele>
        <time>2022-10-30T08:47:57Z</time>
      </trkpt>
      <trkpt lat="43.23434" lon="6.31368">
        <ele>219.5</ele>
        <time>2022-10-30T08:47:58Z</time>
      </trkpt>
      <trkpt lat="43.23427" lon="6.31377">
        <ele>222.2</ele>
        <time>2022-10-30T08:48:12Z</time>
      </trkpt>
      <trkpt lat="43.23421" lon="6.31387">
        <ele>223.2</ele>
        <time>2022-10-30T08:48:27Z</time>
      </trkpt>
      <trkpt lat="43.23411" lon="6.31392">
        <ele>224.1</ele>
        <time>2022-10-30T08:48:34Z</time>
      </trkpt>
      <trkpt lat="43.23402" lon="6.31392">
        <ele>227.1</ele>
        <time>2022-10-30T08:48:56Z</time>
      </trkpt>
      <trkpt lat="43.23393" lon="6.31394">
        <ele>228</ele>
        <time>2022-10-30T08:49:07Z</time>
      </trkpt>
      <trkpt lat="43.23385" lon="6.31386">
        <ele>229.1</ele>
        <time>2022-10-30T08:49:19Z</time>
      </trkpt>
      <trkpt lat="43.23381" lon="6.31387">
        <ele>230.7</ele>
        <time>2022-10-30T08:49:29Z</time>
      </trkpt>
      <trkpt lat="43.23381" lon="6.31386">
        <ele>231</ele>
        <time>2022-10-30T08:49:31Z</time>
      </trkpt>
      <trkpt lat="43.23375" lon="6.31378">
        <ele>233.5</ele>
        <time>2022-10-30T08:50:31Z</time>
      </trkpt>
      <trkpt lat="43.23375" lon="6.31379">
        <ele>233.5</ele>
        <time>2022-10-30T08:50:32Z</time>
      </trkpt>
      <trkpt lat="43.23375" lon="6.31379">
        <ele>233.5</ele>
        <time>2022-10-30T08:50:33Z</time>
      </trkpt>
      <trkpt lat="43.23375" lon="6.31379">
        <ele>233.4</ele>
        <time>2022-10-30T08:50:34Z</time>
      </trkpt>
      <trkpt lat="43.23379" lon="6.31384">
        <ele>233.7</ele>
        <time>2022-10-30T08:50:57Z</time>
      </trkpt>
      <trkpt lat="43.23378" lon="6.31382">
        <ele>233.5</ele>
        <time>2022-10-30T08:50:58Z</time>
      </trkpt>
      <trkpt lat="43.2338" lon="6.3137">
        <ele>233.5</ele>
        <time>2022-10-30T08:51:16Z</time>
      </trkpt>
      <trkpt lat="43.23374" lon="6.31379">
        <ele>234.8</ele>
        <time>2022-10-30T08:51:38Z</time>
      </trkpt>
      <trkpt lat="43.23368" lon="6.3139">
        <ele>235.6</ele>
        <time>2022-10-30T08:51:49Z</time>
      </trkpt>
      <trkpt lat="43.23368" lon="6.31391">
        <ele>235.7</ele>
        <time>2022-10-30T08:51:52Z</time>
      </trkpt>
      <trkpt lat="43.23368" lon="6.31391">
        <ele>235.8</ele>
        <time>2022-10-30T08:51:53Z</time>
      </trkpt>
      <trkpt lat="43.23358" lon="6.31394">
        <ele>237.7</ele>
        <time>2022-10-30T08:52:14Z</time>
      </trkpt>
      <trkpt lat="43.23354" lon="6.31401">
        <ele>240.6</ele>
        <time>2022-10-30T08:52:35Z</time>
      </trkpt>
      <trkpt lat="43.23353" lon="6.31401">
        <ele>240.7</ele>
        <time>2022-10-30T08:52:36Z</time>
      </trkpt>
      <trkpt lat="43.23343" lon="6.31402">
        <ele>242.9</ele>
        <time>2022-10-30T08:52:45Z</time>
      </trkpt>
      <trkpt lat="43.23334" lon="6.31403">
        <ele>246.1</ele>
        <time>2022-10-30T08:52:57Z</time>
      </trkpt>
      <trkpt lat="43.23325" lon="6.31406">
        <ele>247.9</ele>
        <time>2022-10-30T08:53:06Z</time>
      </trkpt>
      <trkpt lat="43.23319" lon="6.31417">
        <ele>249.7</ele>
        <time>2022-10-30T08:53:27Z</time>
      </trkpt>
      <trkpt lat="43.23316" lon="6.31416">
        <ele>251.7</ele>
        <time>2022-10-30T08:53:42Z</time>
      </trkpt>
      <trkpt lat="43.23315" lon="6.31416">
        <ele>252</ele>
        <time>2022-10-30T08:53:43Z</time>
      </trkpt>
      <trkpt lat="43.23306" lon="6.31418">
        <ele>254.7</ele>
        <time>2022-10-30T08:53:55Z</time>
      </trkpt>
      <trkpt lat="43.23298" lon="6.31424">
        <ele>257.6</ele>
        <time>2022-10-30T08:54:07Z</time>
      </trkpt>
      <trkpt lat="43.23289" lon="6.31429">
        <ele>259</ele>
        <time>2022-10-30T08:54:14Z</time>
      </trkpt>
      <trkpt lat="43.23279" lon="6.3143">
        <ele>260.8</ele>
        <time>2022-10-30T08:54:28Z</time>
      </trkpt>
      <trkpt lat="43.23272" lon="6.31438">
        <ele>262</ele>
        <time>2022-10-30T08:54:37Z</time>
      </trkpt>
      <trkpt lat="43.23263" lon="6.31438">
        <ele>262.7</ele>
        <time>2022-10-30T08:54:45Z</time>
      </trkpt>
      <trkpt lat="43.23254" lon="6.31433">
        <ele>263.8</ele>
        <time>2022-10-30T08:54:55Z</time>
      </trkpt>
      <trkpt lat="43.23244" lon="6.31432">
        <ele>265.4</ele>
        <time>2022-10-30T08:55:05Z</time>
      </trkpt>
      <trkpt lat="43.23235" lon="6.31436">
        <ele>267.4</ele>
        <time>2022-10-30T08:55:16Z</time>
      </trkpt>
      <trkpt lat="43.23228" lon="6.31444">
        <ele>269.1</ele>
        <time>2022-10-30T08:55:29Z</time>
      </trkpt>
      <trkpt lat="43.23222" lon="6.31455">
        <ele>270.8</ele>
        <time>2022-10-30T08:55:41Z</time>
      </trkpt>
      <trkpt lat="43.23215" lon="6.31463">
        <ele>271</ele>
        <time>2022-10-30T08:55:49Z</time>
      </trkpt>
      <trkpt lat="43.23206" lon="6.31466">
        <ele>272.6</ele>
        <time>2022-10-30T08:56:01Z</time>
      </trkpt>
      <trkpt lat="43.23202" lon="6.31478">
        <ele>273.5</ele>
        <time>2022-10-30T08:56:11Z</time>
      </trkpt>
      <trkpt lat="43.23198" lon="6.3149">
        <ele>275.2</ele>
        <time>2022-10-30T08:56:25Z</time>
      </trkpt>
      <trkpt lat="43.23192" lon="6.31499">
        <ele>277.1</ele>
        <time>2022-10-30T08:56:38Z</time>
      </trkpt>
      <trkpt lat="43.23186" lon="6.31508">
        <ele>279.2</ele>
        <time>2022-10-30T08:56:51Z</time>
      </trkpt>
      <trkpt lat="43.23177" lon="6.31514">
        <ele>281.4</ele>
        <time>2022-10-30T08:57:03Z</time>
      </trkpt>
      <trkpt lat="43.23168" lon="6.31519">
        <ele>283.3</ele>
        <time>2022-10-30T08:57:14Z</time>
      </trkpt>
      <trkpt lat="43.23164" lon="6.3153">
        <ele>286</ele>
        <time>2022-10-30T08:57:29Z</time>
      </trkpt>
      <trkpt lat="43.23155" lon="6.31534">
        <ele>287.5</ele>
        <time>2022-10-30T08:57:50Z</time>
      </trkpt>
      <trkpt lat="43.23145" lon="6.31531">
        <ele>290.3</ele>
        <time>2022-10-30T08:58:04Z</time>
      </trkpt>
      <trkpt lat="43.23136" lon="6.31536">
        <ele>292.5</ele>
        <time>2022-10-30T08:58:18Z</time>
      </trkpt>
      <trkpt lat="43.23129" lon="6.31536">
        <ele>298.2</ele>
        <time>2022-10-30T08:58:56Z</time>
      </trkpt>
      <trkpt lat="43.23129" lon="6.31536">
        <ele>298.3</ele>
        <time>2022-10-30T08:58:57Z</time>
      </trkpt>
      <trkpt lat="43.23131" lon="6.31535">
        <ele>298.7</ele>
        <time>2022-10-30T08:59:04Z</time>
      </trkpt>
      <trkpt lat="43.23131" lon="6.31535">
        <ele>299</ele>
        <time>2022-10-30T08:59:06Z</time>
      </trkpt>
      <trkpt lat="43.23131" lon="6.31535">
        <ele>299.1</ele>
        <time>2022-10-30T08:59:07Z</time>
      </trkpt>
      <trkpt lat="43.23131" lon="6.31535">
        <ele>299.2</ele>
        <time>2022-10-30T08:59:08Z</time>
      </trkpt>
      <trkpt lat="43.23122" lon="6.31533">
        <ele>301.4</ele>
        <time>2022-10-30T08:59:24Z</time>
      </trkpt>
      <trkpt lat="43.23112" lon="6.3153">
        <ele>301.9</ele>
        <time>2022-10-30T08:59:37Z</time>
      </trkpt>
      <trkpt lat="43.23103" lon="6.31526">
        <ele>302.3</ele>
        <time>2022-10-30T08:59:48Z</time>
      </trkpt>
      <trkpt lat="43.23095" lon="6.31531">
        <ele>304.2</ele>
        <time>2022-10-30T09:00:01Z</time>
      </trkpt>
      <trkpt lat="43.23086" lon="6.31532">
        <ele>307.3</ele>
        <time>2022-10-30T09:00:15Z</time>
      </trkpt>
      <trkpt lat="43.23077" lon="6.31531">
        <ele>308.5</ele>
        <time>2022-10-30T09:00:26Z</time>
      </trkpt>
      <trkpt lat="43.23067" lon="6.31529">
        <ele>310.2</ele>
        <time>2022-10-30T09:00:38Z</time>
      </trkpt>
      <trkpt lat="43.23058" lon="6.31529">
        <ele>311.6</ele>
        <time>2022-10-30T09:00:54Z</time>
      </trkpt>
      <trkpt lat="43.2305" lon="6.31535">
        <ele>312.2</ele>
        <time>2022-10-30T09:01:02Z</time>
      </trkpt>
      <trkpt lat="43.23041" lon="6.31539">
        <ele>313.3</ele>
        <time>2022-10-30T09:01:11Z</time>
      </trkpt>
      <trkpt lat="43.23032" lon="6.31543">
        <ele>314.7</ele>
        <time>2022-10-30T09:01:26Z</time>
      </trkpt>
      <trkpt lat="43.23025" lon="6.31552">
        <ele>315.6</ele>
        <time>2022-10-30T09:01:37Z</time>
      </trkpt>
      <trkpt lat="43.23019" lon="6.31561">
        <ele>316.7</ele>
        <time>2022-10-30T09:01:46Z</time>
      </trkpt>
      <trkpt lat="43.23011" lon="6.31561">
        <ele>318.3</ele>
        <time>2022-10-30T09:02:04Z</time>
      </trkpt>
      <trkpt lat="43.23011" lon="6.31562">
        <ele>318.5</ele>
        <time>2022-10-30T09:02:06Z</time>
      </trkpt>
      <trkpt lat="43.23006" lon="6.31573">
        <ele>319.4</ele>
        <time>2022-10-30T09:02:15Z</time>
      </trkpt>
      <trkpt lat="43.23" lon="6.31582">
        <ele>321</ele>
        <time>2022-10-30T09:02:26Z</time>
      </trkpt>
      <trkpt lat="43.22993" lon="6.31592">
        <ele>321.9</ele>
        <time>2022-10-30T09:02:36Z</time>
      </trkpt>
      <trkpt lat="43.22984" lon="6.31598">
        <ele>322.9</ele>
        <time>2022-10-30T09:02:48Z</time>
      </trkpt>
      <trkpt lat="43.22975" lon="6.31603">
        <ele>324.3</ele>
        <time>2022-10-30T09:03:10Z</time>
      </trkpt>
      <trkpt lat="43.22966" lon="6.31606">
        <ele>324.7</ele>
        <time>2022-10-30T09:03:20Z</time>
      </trkpt>
      <trkpt lat="43.22961" lon="6.31608">
        <ele>325.7</ele>
        <time>2022-10-30T09:03:29Z</time>
      </trkpt>
      <trkpt lat="43.22961" lon="6.31609">
        <ele>325.9</ele>
        <time>2022-10-30T09:03:30Z</time>
      </trkpt>
      <trkpt lat="43.22951" lon="6.31605">
        <ele>327.6</ele>
        <time>2022-10-30T09:03:46Z</time>
      </trkpt>
      <trkpt lat="43.22943" lon="6.316">
        <ele>329.5</ele>
        <time>2022-10-30T09:03:58Z</time>
      </trkpt>
      <trkpt lat="43.22935" lon="6.31594">
        <ele>332.5</ele>
        <time>2022-10-30T09:04:19Z</time>
      </trkpt>
      <trkpt lat="43.22935" lon="6.31594">
        <ele>332.6</ele>
        <time>2022-10-30T09:04:20Z</time>
      </trkpt>
      <trkpt lat="43.22935" lon="6.31594">
        <ele>332.6</ele>
        <time>2022-10-30T09:04:21Z</time>
      </trkpt>
      <trkpt lat="43.22936" lon="6.31593">
        <ele>333.3</ele>
        <time>2022-10-30T09:04:34Z</time>
      </trkpt>
      <trkpt lat="43.22936" lon="6.31592">
        <ele>333.4</ele>
        <time>2022-10-30T09:04:35Z</time>
      </trkpt>
      <trkpt lat="43.22933" lon="6.31594">
        <ele>337.3</ele>
        <time>2022-10-30T09:05:17Z</time>
      </trkpt>
      <trkpt lat="43.22933" lon="6.31594">
        <ele>337.3</ele>
        <time>2022-10-30T09:05:18Z</time>
      </trkpt>
      <trkpt lat="43.22924" lon="6.31596">
        <ele>340.1</ele>
        <time>2022-10-30T09:05:56Z</time>
      </trkpt>
      <trkpt lat="43.22913" lon="6.31594">
        <ele>340.5</ele>
        <time>2022-10-30T09:06:04Z</time>
      </trkpt>
      <trkpt lat="43.22902" lon="6.31595">
        <ele>340.5</ele>
        <time>2022-10-30T09:06:09Z</time>
      </trkpt>
      <trkpt lat="43.22914" lon="6.31598">
        <ele>340.6</ele>
        <time>2022-10-30T09:06:16Z</time>
      </trkpt>
      <trkpt lat="43.22923" lon="6.31596">
        <ele>340.8</ele>
        <time>2022-10-30T09:06:21Z</time>
      </trkpt>
      <trkpt lat="43.22932" lon="6.31592">
        <ele>341.1</ele>
        <time>2022-10-30T09:06:31Z</time>
      </trkpt>
      <trkpt lat="43.22941" lon="6.31594">
        <ele>341.2</ele>
        <time>2022-10-30T09:06:45Z</time>
      </trkpt>
      <trkpt lat="43.22933" lon="6.31593">
        <ele>341.1</ele>
        <time>2022-10-30T09:07:06Z</time>
      </trkpt>
      <trkpt lat="43.22933" lon="6.31593">
        <ele>341.1</ele>
        <time>2022-10-30T09:07:07Z</time>
      </trkpt>
      <trkpt lat="43.22933" lon="6.31593">
        <ele>341.2</ele>
        <time>2022-10-30T09:07:08Z</time>
      </trkpt>
      <trkpt lat="43.22933" lon="6.31592">
        <ele>341.2</ele>
        <time>2022-10-30T09:07:09Z</time>
      </trkpt>
      <trkpt lat="43.22939" lon="6.3159">
        <ele>342.9</ele>
        <time>2022-10-30T09:07:31Z</time>
      </trkpt>
      <trkpt lat="43.22939" lon="6.3159">
        <ele>343.1</ele>
        <time>2022-10-30T09:07:32Z</time>
      </trkpt>
      <trkpt lat="43.22934" lon="6.31595">
        <ele>344</ele>
        <time>2022-10-30T09:07:47Z</time>
      </trkpt>
      <trkpt lat="43.22934" lon="6.31595">
        <ele>343.9</ele>
        <time>2022-10-30T09:07:48Z</time>
      </trkpt>
      <trkpt lat="43.22933" lon="6.31595">
        <ele>343.9</ele>
        <time>2022-10-30T09:07:51Z</time>
      </trkpt>
      <trkpt lat="43.22933" lon="6.31595">
        <ele>343.8</ele>
        <time>2022-10-30T09:07:52Z</time>
      </trkpt>
      <trkpt lat="43.22934" lon="6.31596">
        <ele>344.2</ele>
        <time>2022-10-30T09:07:59Z</time>
      </trkpt>
      <trkpt lat="43.22934" lon="6.31596">
        <ele>344.2</ele>
        <time>2022-10-30T09:08:00Z</time>
      </trkpt>
      <trkpt lat="43.22934" lon="6.31595">
        <ele>344.5</ele>
        <time>2022-10-30T09:08:11Z</time>
      </trkpt>
      <trkpt lat="43.22934" lon="6.31595">
        <ele>344.5</ele>
        <time>2022-10-30T09:08:12Z</time>
      </trkpt>
      <trkpt lat="43.22943" lon="6.316">
        <ele>346.3</ele>
        <time>2022-10-30T09:08:53Z</time>
      </trkpt>
      <trkpt lat="43.22932" lon="6.31599">
        <ele>345.9</ele>
        <time>2022-10-30T09:09:02Z</time>
      </trkpt>
      <trkpt lat="43.22941" lon="6.31594">
        <ele>347</ele>
        <time>2022-10-30T09:09:37Z</time>
      </trkpt>
      <trkpt lat="43.22949" lon="6.31589">
        <ele>347.4</ele>
        <time>2022-10-30T09:09:41Z</time>
      </trkpt>
      <trkpt lat="43.22939" lon="6.3159">
        <ele>347.6</ele>
        <time>2022-10-30T09:09:52Z</time>
      </trkpt>
      <trkpt lat="43.2293" lon="6.31591">
        <ele>347.3</ele>
        <time>2022-10-30T09:09:55Z</time>
      </trkpt>
      <trkpt lat="43.22921" lon="6.31596">
        <ele>346.4</ele>
        <time>2022-10-30T09:10:01Z</time>
      </trkpt>
      <trkpt lat="43.2293" lon="6.31595">
        <ele>345.2</ele>
        <time>2022-10-30T09:10:14Z</time>
      </trkpt>
      <trkpt lat="43.22938" lon="6.316">
        <ele>347.2</ele>
        <time>2022-10-30T09:10:40Z</time>
      </trkpt>
      <trkpt lat="43.22942" lon="6.31602">
        <ele>348.3</ele>
        <time>2022-10-30T09:10:49Z</time>
      </trkpt>
      <trkpt lat="43.22942" lon="6.31602">
        <ele>348.4</ele>
        <time>2022-10-30T09:10:51Z</time>
      </trkpt>
      <trkpt lat="43.22943" lon="6.31602">
        <ele>348.7</ele>
        <time>2022-10-30T09:10:55Z</time>
      </trkpt>
      <trkpt lat="43.22943" lon="6.31602">
        <ele>348.7</ele>
        <time>2022-10-30T09:10:56Z</time>
      </trkpt>
      <trkpt lat="43.22941" lon="6.31601">
        <ele>349</ele>
        <time>2022-10-30T09:11:11Z</time>
      </trkpt>
      <trkpt lat="43.22941" lon="6.31601">
        <ele>349</ele>
        <time>2022-10-30T09:11:12Z</time>
      </trkpt>
      <trkpt lat="43.22935" lon="6.3161">
        <ele>349.1</ele>
        <time>2022-10-30T09:11:32Z</time>
      </trkpt>
      <trkpt lat="43.22935" lon="6.31609">
        <ele>349.1</ele>
        <time>2022-10-30T09:11:33Z</time>
      </trkpt>
      <trkpt lat="43.22932" lon="6.31622">
        <ele>349.5</ele>
        <time>2022-10-30T09:11:49Z</time>
      </trkpt>
      <trkpt lat="43.22927" lon="6.31632">
        <ele>349.2</ele>
        <time>2022-10-30T09:12:04Z</time>
      </trkpt>
      <trkpt lat="43.22926" lon="6.31633">
        <ele>349.2</ele>
        <time>2022-10-30T09:12:07Z</time>
      </trkpt>
      <trkpt lat="43.22926" lon="6.31633">
        <ele>349.2</ele>
        <time>2022-10-30T09:12:08Z</time>
      </trkpt>
      <trkpt lat="43.22926" lon="6.31633">
        <ele>349.2</ele>
        <time>2022-10-30T09:12:09Z</time>
      </trkpt>
      <trkpt lat="43.22926" lon="6.31634">
        <ele>349.2</ele>
        <time>2022-10-30T09:12:10Z</time>
      </trkpt>
      <trkpt lat="43.22921" lon="6.31644">
        <ele>349.3</ele>
        <time>2022-10-30T09:12:21Z</time>
      </trkpt>
      <trkpt lat="43.2292" lon="6.3165">
        <ele>349.7</ele>
        <time>2022-10-30T09:12:33Z</time>
      </trkpt>
      <trkpt lat="43.2292" lon="6.3165">
        <ele>349.8</ele>
        <time>2022-10-30T09:12:34Z</time>
      </trkpt>
      <trkpt lat="43.22918" lon="6.31662">
        <ele>350.6</ele>
        <time>2022-10-30T09:12:45Z</time>
      </trkpt>
      <trkpt lat="43.22917" lon="6.31674">
        <ele>351.1</ele>
        <time>2022-10-30T09:12:56Z</time>
      </trkpt>
      <trkpt lat="43.22911" lon="6.31683">
        <ele>351.3</ele>
        <time>2022-10-30T09:13:06Z</time>
      </trkpt>
      <trkpt lat="43.2291" lon="6.31689">
        <ele>352</ele>
        <time>2022-10-30T09:13:18Z</time>
      </trkpt>
      <trkpt lat="43.2291" lon="6.3169">
        <ele>352</ele>
        <time>2022-10-30T09:13:19Z</time>
      </trkpt>
      <trkpt lat="43.22907" lon="6.31702">
        <ele>353.4</ele>
        <time>2022-10-30T09:13:32Z</time>
      </trkpt>
      <trkpt lat="43.229" lon="6.31711">
        <ele>354.5</ele>
        <time>2022-10-30T09:13:44Z</time>
      </trkpt>
      <trkpt lat="43.22893" lon="6.3172">
        <ele>354.6</ele>
        <time>2022-10-30T09:13:57Z</time>
      </trkpt>
      <trkpt lat="43.22885" lon="6.31726">
        <ele>355.3</ele>
        <time>2022-10-30T09:14:05Z</time>
      </trkpt>
      <trkpt lat="43.22882" lon="6.31729">
        <ele>356.1</ele>
        <time>2022-10-30T09:14:13Z</time>
      </trkpt>
      <trkpt lat="43.22882" lon="6.31729">
        <ele>356.1</ele>
        <time>2022-10-30T09:14:14Z</time>
      </trkpt>
      <trkpt lat="43.22873" lon="6.31736">
        <ele>357.4</ele>
        <time>2022-10-30T09:14:30Z</time>
      </trkpt>
      <trkpt lat="43.22866" lon="6.31729">
        <ele>358.7</ele>
        <time>2022-10-30T09:14:49Z</time>
      </trkpt>
      <trkpt lat="43.22859" lon="6.31719">
        <ele>359.6</ele>
        <time>2022-10-30T09:15:03Z</time>
      </trkpt>
      <trkpt lat="43.22853" lon="6.31709">
        <ele>359.8</ele>
        <time>2022-10-30T09:15:18Z</time>
      </trkpt>
      <trkpt lat="43.22853" lon="6.31697">
        <ele>360.4</ele>
        <time>2022-10-30T09:15:28Z</time>
      </trkpt>
      <trkpt lat="43.22851" lon="6.31684">
        <ele>361</ele>
        <time>2022-10-30T09:15:40Z</time>
      </trkpt>
      <trkpt lat="43.22848" lon="6.31671">
        <ele>361.2</ele>
        <time>2022-10-30T09:15:51Z</time>
      </trkpt>
      <trkpt lat="43.22848" lon="6.31656">
        <ele>361.8</ele>
        <time>2022-10-30T09:16:00Z</time>
      </trkpt>
      <trkpt lat="43.22847" lon="6.31643">
        <ele>362</ele>
        <time>2022-10-30T09:16:08Z</time>
      </trkpt>
      <trkpt lat="43.22843" lon="6.3163">
        <ele>362.2</ele>
        <time>2022-10-30T09:16:20Z</time>
      </trkpt>
      <trkpt lat="43.22843" lon="6.31618">
        <ele>363.6</ele>
        <time>2022-10-30T09:16:33Z</time>
      </trkpt>
      <trkpt lat="43.22839" lon="6.31606">
        <ele>364.7</ele>
        <time>2022-10-30T09:16:50Z</time>
      </trkpt>
      <trkpt lat="43.2284" lon="6.31604">
        <ele>364.6</ele>
        <time>2022-10-30T09:17:30Z</time>
      </trkpt>
      <trkpt lat="43.2284" lon="6.31605">
        <ele>364.7</ele>
        <time>2022-10-30T09:17:31Z</time>
      </trkpt>
      <trkpt lat="43.2284" lon="6.31605">
        <ele>364.8</ele>
        <time>2022-10-30T09:17:33Z</time>
      </trkpt>
      <trkpt lat="43.2284" lon="6.31605">
        <ele>364.8</ele>
        <time>2022-10-30T09:17:34Z</time>
      </trkpt>
      <trkpt lat="43.22839" lon="6.31608">
        <ele>364.3</ele>
        <time>2022-10-30T09:17:52Z</time>
      </trkpt>
      <trkpt lat="43.22839" lon="6.31608">
        <ele>364.3</ele>
        <time>2022-10-30T09:17:55Z</time>
      </trkpt>
      <trkpt lat="43.22839" lon="6.31608">
        <ele>364.4</ele>
        <time>2022-10-30T09:18:01Z</time>
      </trkpt>
      <trkpt lat="43.22839" lon="6.31608">
        <ele>364.4</ele>
        <time>2022-10-30T09:18:02Z</time>
      </trkpt>
      <trkpt lat="43.22838" lon="6.31608">
        <ele>364.9</ele>
        <time>2022-10-30T09:18:14Z</time>
      </trkpt>
      <trkpt lat="43.22838" lon="6.31609">
        <ele>365.1</ele>
        <time>2022-10-30T09:18:17Z</time>
      </trkpt>
      <trkpt lat="43.22839" lon="6.31607">
        <ele>365.2</ele>
        <time>2022-10-30T09:18:20Z</time>
      </trkpt>
      <trkpt lat="43.22839" lon="6.31608">
        <ele>365.2</ele>
        <time>2022-10-30T09:18:21Z</time>
      </trkpt>
      <trkpt lat="43.22839" lon="6.31608">
        <ele>365.3</ele>
        <time>2022-10-30T09:18:22Z</time>
      </trkpt>
      <trkpt lat="43.22838" lon="6.31608">
        <ele>365.2</ele>
        <time>2022-10-30T09:18:23Z</time>
      </trkpt>
      <trkpt lat="43.22837" lon="6.3161">
        <ele>365.4</ele>
        <time>2022-10-30T09:18:28Z</time>
      </trkpt>
      <trkpt lat="43.22837" lon="6.31609">
        <ele>365.3</ele>
        <time>2022-10-30T09:18:29Z</time>
      </trkpt>
      <trkpt lat="43.22839" lon="6.31609">
        <ele>365.5</ele>
        <time>2022-10-30T09:18:42Z</time>
      </trkpt>
      <trkpt lat="43.22839" lon="6.31609">
        <ele>365.6</ele>
        <time>2022-10-30T09:18:43Z</time>
      </trkpt>
      <trkpt lat="43.22839" lon="6.3161">
        <ele>365.7</ele>
        <time>2022-10-30T09:18:45Z</time>
      </trkpt>
      <trkpt lat="43.22839" lon="6.3161">
        <ele>365.8</ele>
        <time>2022-10-30T09:18:46Z</time>
      </trkpt>
      <trkpt lat="43.22841" lon="6.31605">
        <ele>366.1</ele>
        <time>2022-10-30T09:18:56Z</time>
      </trkpt>
      <trkpt lat="43.22841" lon="6.31605">
        <ele>366.2</ele>
        <time>2022-10-30T09:18:57Z</time>
      </trkpt>
      <trkpt lat="43.2284" lon="6.31606">
        <ele>366.4</ele>
        <time>2022-10-30T09:19:10Z</time>
      </trkpt>
      <trkpt lat="43.2284" lon="6.31606">
        <ele>366.4</ele>
        <time>2022-10-30T09:19:11Z</time>
      </trkpt>
      <trkpt lat="43.22835" lon="6.31596">
        <ele>366.7</ele>
        <time>2022-10-30T09:19:26Z</time>
      </trkpt>
      <trkpt lat="43.2283" lon="6.31585">
        <ele>367.6</ele>
        <time>2022-10-30T09:19:39Z</time>
      </trkpt>
      <trkpt lat="43.22831" lon="6.31572">
        <ele>367.7</ele>
        <time>2022-10-30T09:19:50Z</time>
      </trkpt>
      <trkpt lat="43.22826" lon="6.31562">
        <ele>369</ele>
        <time>2022-10-30T09:20:10Z</time>
      </trkpt>
      <trkpt lat="43.2282" lon="6.31551">
        <ele>370.2</ele>
        <time>2022-10-30T09:20:23Z</time>
      </trkpt>
      <trkpt lat="43.22818" lon="6.31539">
        <ele>371.6</ele>
        <time>2022-10-30T09:20:39Z</time>
      </trkpt>
      <trkpt lat="43.2281" lon="6.31532">
        <ele>372.2</ele>
        <time>2022-10-30T09:20:53Z</time>
      </trkpt>
      <trkpt lat="43.22807" lon="6.3153">
        <ele>372.7</ele>
        <time>2022-10-30T09:21:11Z</time>
      </trkpt>
      <trkpt lat="43.22808" lon="6.31529">
        <ele>372.6</ele>
        <time>2022-10-30T09:21:12Z</time>
      </trkpt>
      <trkpt lat="43.22809" lon="6.31518">
        <ele>374</ele>
        <time>2022-10-30T09:21:52Z</time>
      </trkpt>
      <trkpt lat="43.22809" lon="6.31518">
        <ele>374.1</ele>
        <time>2022-10-30T09:21:53Z</time>
      </trkpt>
      <trkpt lat="43.2281" lon="6.31514">
        <ele>376.6</ele>
        <time>2022-10-30T09:23:07Z</time>
      </trkpt>
      <trkpt lat="43.2281" lon="6.31514">
        <ele>376.5</ele>
        <time>2022-10-30T09:23:08Z</time>
      </trkpt>
      <trkpt lat="43.22811" lon="6.31524">
        <ele>377</ele>
        <time>2022-10-30T09:23:29Z</time>
      </trkpt>
      <trkpt lat="43.22811" lon="6.31523">
        <ele>377.1</ele>
        <time>2022-10-30T09:23:31Z</time>
      </trkpt>
      <trkpt lat="43.22813" lon="6.31523">
        <ele>378.5</ele>
        <time>2022-10-30T09:23:51Z</time>
      </trkpt>
      <trkpt lat="43.22813" lon="6.31522">
        <ele>378.4</ele>
        <time>2022-10-30T09:23:52Z</time>
      </trkpt>
      <trkpt lat="43.22813" lon="6.31518">
        <ele>378.3</ele>
        <time>2022-10-30T09:23:59Z</time>
      </trkpt>
      <trkpt lat="43.22813" lon="6.31518">
        <ele>378.3</ele>
        <time>2022-10-30T09:24:00Z</time>
      </trkpt>
      <trkpt lat="43.22812" lon="6.31528">
        <ele>378.9</ele>
        <time>2022-10-30T09:24:19Z</time>
      </trkpt>
      <trkpt lat="43.22813" lon="6.31528">
        <ele>378.9</ele>
        <time>2022-10-30T09:24:20Z</time>
      </trkpt>
      <trkpt lat="43.22818" lon="6.3154">
        <ele>379.7</ele>
        <time>2022-10-30T09:25:20Z</time>
      </trkpt>
      <trkpt lat="43.22825" lon="6.31548">
        <ele>378.4</ele>
        <time>2022-10-30T09:25:37Z</time>
      </trkpt>
      <trkpt lat="43.22827" lon="6.3156">
        <ele>377.4</ele>
        <time>2022-10-30T09:25:53Z</time>
      </trkpt>
      <trkpt lat="43.22831" lon="6.31573">
        <ele>377.2</ele>
        <time>2022-10-30T09:26:02Z</time>
      </trkpt>
      <trkpt lat="43.22834" lon="6.31585">
        <ele>376.8</ele>
        <time>2022-10-30T09:26:12Z</time>
      </trkpt>
      <trkpt lat="43.22841" lon="6.31593">
        <ele>376.4</ele>
        <time>2022-10-30T09:26:28Z</time>
      </trkpt>
      <trkpt lat="43.22844" lon="6.31606">
        <ele>376.3</ele>
        <time>2022-10-30T09:26:35Z</time>
      </trkpt>
      <trkpt lat="43.22845" lon="6.31619">
        <ele>376</ele>
        <time>2022-10-30T09:26:43Z</time>
      </trkpt>
      <trkpt lat="43.22847" lon="6.31632">
        <ele>375.2</ele>
        <time>2022-10-30T09:26:52Z</time>
      </trkpt>
      <trkpt lat="43.2285" lon="6.31644">
        <ele>375.1</ele>
        <time>2022-10-30T09:27:00Z</time>
      </trkpt>
      <trkpt lat="43.22851" lon="6.31657">
        <ele>374.7</ele>
        <time>2022-10-30T09:27:11Z</time>
      </trkpt>
      <trkpt lat="43.22854" lon="6.31668">
        <ele>375.1</ele>
        <time>2022-10-30T09:27:20Z</time>
      </trkpt>
      <trkpt lat="43.22857" lon="6.31681">
        <ele>374.6</ele>
        <time>2022-10-30T09:27:31Z</time>
      </trkpt>
      <trkpt lat="43.2286" lon="6.31692">
        <ele>373.7</ele>
        <time>2022-10-30T09:27:41Z</time>
      </trkpt>
      <trkpt lat="43.22858" lon="6.31705">
        <ele>374.4</ele>
        <time>2022-10-30T09:27:49Z</time>
      </trkpt>
      <trkpt lat="43.22863" lon="6.31716">
        <ele>374</ele>
        <time>2022-10-30T09:28:03Z</time>
      </trkpt>
      <trkpt lat="43.22868" lon="6.31728">
        <ele>373.3</ele>
        <time>2022-10-30T09:28:15Z</time>
      </trkpt>
      <trkpt lat="43.22868" lon="6.3174">
        <ele>372.7</ele>
        <time>2022-10-30T09:28:45Z</time>
      </trkpt>
      <trkpt lat="43.22869" lon="6.31742">
        <ele>372.9</ele>
        <time>2022-10-30T09:28:50Z</time>
      </trkpt>
      <trkpt lat="43.22869" lon="6.31742">
        <ele>372.8</ele>
        <time>2022-10-30T09:28:51Z</time>
      </trkpt>
      <trkpt lat="43.22867" lon="6.31742">
        <ele>372.6</ele>
        <time>2022-10-30T09:28:55Z</time>
      </trkpt>
      <trkpt lat="43.22866" lon="6.31743">
        <ele>372.6</ele>
        <time>2022-10-30T09:28:56Z</time>
      </trkpt>
      <trkpt lat="43.22865" lon="6.31745">
        <ele>372.1</ele>
        <time>2022-10-30T09:29:04Z</time>
      </trkpt>
      <trkpt lat="43.22865" lon="6.31744">
        <ele>372.1</ele>
        <time>2022-10-30T09:29:06Z</time>
      </trkpt>
      <trkpt lat="43.22856" lon="6.31748">
        <ele>371.3</ele>
        <time>2022-10-30T09:29:19Z</time>
      </trkpt>
      <trkpt lat="43.22848" lon="6.31755">
        <ele>371.2</ele>
        <time>2022-10-30T09:29:30Z</time>
      </trkpt>
      <trkpt lat="43.22841" lon="6.31764">
        <ele>370.7</ele>
        <time>2022-10-30T09:29:38Z</time>
      </trkpt>
      <trkpt lat="43.22838" lon="6.31776">
        <ele>369.8</ele>
        <time>2022-10-30T09:29:48Z</time>
      </trkpt>
      <trkpt lat="43.22833" lon="6.31787">
        <ele>369.6</ele>
        <time>2022-10-30T09:29:57Z</time>
      </trkpt>
      <trkpt lat="43.22831" lon="6.31799">
        <ele>369.5</ele>
        <time>2022-10-30T09:30:08Z</time>
      </trkpt>
      <trkpt lat="43.22829" lon="6.31796">
        <ele>368.6</ele>
        <time>2022-10-30T09:30:46Z</time>
      </trkpt>
      <trkpt lat="43.22829" lon="6.31796">
        <ele>368.5</ele>
        <time>2022-10-30T09:30:48Z</time>
      </trkpt>
      <trkpt lat="43.22827" lon="6.31809">
        <ele>367.8</ele>
        <time>2022-10-30T09:31:06Z</time>
      </trkpt>
      <trkpt lat="43.22826" lon="6.31822">
        <ele>367.7</ele>
        <time>2022-10-30T09:31:16Z</time>
      </trkpt>
      <trkpt lat="43.22825" lon="6.31834">
        <ele>368</ele>
        <time>2022-10-30T09:31:25Z</time>
      </trkpt>
      <trkpt lat="43.22826" lon="6.31848">
        <ele>368.1</ele>
        <time>2022-10-30T09:31:34Z</time>
      </trkpt>
      <trkpt lat="43.22824" lon="6.3186">
        <ele>367.9</ele>
        <time>2022-10-30T09:31:43Z</time>
      </trkpt>
      <trkpt lat="43.22824" lon="6.31874">
        <ele>368</ele>
        <time>2022-10-30T09:31:53Z</time>
      </trkpt>
      <trkpt lat="43.22824" lon="6.31887">
        <ele>367.9</ele>
        <time>2022-10-30T09:32:02Z</time>
      </trkpt>
      <trkpt lat="43.22826" lon="6.31899">
        <ele>368.3</ele>
        <time>2022-10-30T09:32:13Z</time>
      </trkpt>
      <trkpt lat="43.22824" lon="6.31912">
        <ele>368.6</ele>
        <time>2022-10-30T09:32:24Z</time>
      </trkpt>
      <trkpt lat="43.22823" lon="6.31925">
        <ele>368.8</ele>
        <time>2022-10-30T09:32:36Z</time>
      </trkpt>
      <trkpt lat="43.22819" lon="6.31937">
        <ele>368.7</ele>
        <time>2022-10-30T09:32:44Z</time>
      </trkpt>
      <trkpt lat="43.22814" lon="6.31948">
        <ele>368.8</ele>
        <time>2022-10-30T09:32:55Z</time>
      </trkpt>
      <trkpt lat="43.22808" lon="6.31958">
        <ele>369.1</ele>
        <time>2022-10-30T09:33:12Z</time>
      </trkpt>
      <trkpt lat="43.22799" lon="6.31963">
        <ele>369.2</ele>
        <time>2022-10-30T09:33:23Z</time>
      </trkpt>
      <trkpt lat="43.22791" lon="6.31971">
        <ele>369.4</ele>
        <time>2022-10-30T09:33:35Z</time>
      </trkpt>
      <trkpt lat="43.22783" lon="6.31979">
        <ele>369.6</ele>
        <time>2022-10-30T09:33:42Z</time>
      </trkpt>
      <trkpt lat="43.22777" lon="6.31989">
        <ele>368.8</ele>
        <time>2022-10-30T09:33:53Z</time>
      </trkpt>
      <trkpt lat="43.2277" lon="6.31998">
        <ele>368.7</ele>
        <time>2022-10-30T09:34:03Z</time>
      </trkpt>
      <trkpt lat="43.22764" lon="6.32007">
        <ele>368.9</ele>
        <time>2022-10-30T09:34:12Z</time>
      </trkpt>
      <trkpt lat="43.22758" lon="6.32018">
        <ele>368.7</ele>
        <time>2022-10-30T09:34:23Z</time>
      </trkpt>
      <trkpt lat="43.22751" lon="6.32027">
        <ele>369.1</ele>
        <time>2022-10-30T09:34:34Z</time>
      </trkpt>
      <trkpt lat="43.22745" lon="6.32037">
        <ele>369.2</ele>
        <time>2022-10-30T09:34:43Z</time>
      </trkpt>
      <trkpt lat="43.22739" lon="6.32047">
        <ele>369.4</ele>
        <time>2022-10-30T09:34:50Z</time>
      </trkpt>
      <trkpt lat="43.22737" lon="6.32059">
        <ele>368.6</ele>
        <time>2022-10-30T09:35:00Z</time>
      </trkpt>
      <trkpt lat="43.22737" lon="6.32061">
        <ele>368.5</ele>
        <time>2022-10-30T09:35:05Z</time>
      </trkpt>
      <trkpt lat="43.22737" lon="6.32062">
        <ele>368.5</ele>
        <time>2022-10-30T09:35:06Z</time>
      </trkpt>
      <trkpt lat="43.2273" lon="6.32071">
        <ele>368.4</ele>
        <time>2022-10-30T09:35:14Z</time>
      </trkpt>
      <trkpt lat="43.22724" lon="6.32082">
        <ele>368.4</ele>
        <time>2022-10-30T09:35:22Z</time>
      </trkpt>
      <trkpt lat="43.22721" lon="6.32095">
        <ele>369.7</ele>
        <time>2022-10-30T09:35:32Z</time>
      </trkpt>
      <trkpt lat="43.22724" lon="6.32107">
        <ele>370.9</ele>
        <time>2022-10-30T09:35:44Z</time>
      </trkpt>
      <trkpt lat="43.22732" lon="6.32113">
        <ele>371.7</ele>
        <time>2022-10-30T09:35:56Z</time>
      </trkpt>
      <trkpt lat="43.22736" lon="6.32125">
        <ele>372.4</ele>
        <time>2022-10-30T09:36:04Z</time>
      </trkpt>
      <trkpt lat="43.2274" lon="6.32136">
        <ele>372.5</ele>
        <time>2022-10-30T09:36:15Z</time>
      </trkpt>
      <trkpt lat="43.22745" lon="6.32147">
        <ele>372.8</ele>
        <time>2022-10-30T09:36:24Z</time>
      </trkpt>
      <trkpt lat="43.22749" lon="6.32158">
        <ele>372.8</ele>
        <time>2022-10-30T09:36:32Z</time>
      </trkpt>
      <trkpt lat="43.22754" lon="6.3217">
        <ele>373.6</ele>
        <time>2022-10-30T09:36:40Z</time>
      </trkpt>
      <trkpt lat="43.22756" lon="6.32182">
        <ele>374</ele>
        <time>2022-10-30T09:36:47Z</time>
      </trkpt>
      <trkpt lat="43.22755" lon="6.32195">
        <ele>374.3</ele>
        <time>2022-10-30T09:36:56Z</time>
      </trkpt>
      <trkpt lat="43.22758" lon="6.32207">
        <ele>375.9</ele>
        <time>2022-10-30T09:37:08Z</time>
      </trkpt>
      <trkpt lat="43.22761" lon="6.32219">
        <ele>376.3</ele>
        <time>2022-10-30T09:37:20Z</time>
      </trkpt>
      <trkpt lat="43.22761" lon="6.32233">
        <ele>376.6</ele>
        <time>2022-10-30T09:37:29Z</time>
      </trkpt>
      <trkpt lat="43.22763" lon="6.32247">
        <ele>377.1</ele>
        <time>2022-10-30T09:37:40Z</time>
      </trkpt>
      <trkpt lat="43.22763" lon="6.32259">
        <ele>377.1</ele>
        <time>2022-10-30T09:37:50Z</time>
      </trkpt>
      <trkpt lat="43.22761" lon="6.32272">
        <ele>377.7</ele>
        <time>2022-10-30T09:38:00Z</time>
      </trkpt>
      <trkpt lat="43.22762" lon="6.32284">
        <ele>377.9</ele>
        <time>2022-10-30T09:38:08Z</time>
      </trkpt>
      <trkpt lat="43.22762" lon="6.32297">
        <ele>377.7</ele>
        <time>2022-10-30T09:38:14Z</time>
      </trkpt>
      <trkpt lat="43.22761" lon="6.3231">
        <ele>377.8</ele>
        <time>2022-10-30T09:38:21Z</time>
      </trkpt>
      <trkpt lat="43.22758" lon="6.32323">
        <ele>378</ele>
        <time>2022-10-30T09:38:32Z</time>
      </trkpt>
      <trkpt lat="43.22756" lon="6.32335">
        <ele>379.2</ele>
        <time>2022-10-30T09:38:43Z</time>
      </trkpt>
      <trkpt lat="43.22755" lon="6.32347">
        <ele>379.1</ele>
        <time>2022-10-30T09:38:51Z</time>
      </trkpt>
      <trkpt lat="43.22749" lon="6.32359">
        <ele>379.3</ele>
        <time>2022-10-30T09:39:01Z</time>
      </trkpt>
      <trkpt lat="43.22742" lon="6.32366">
        <ele>379.6</ele>
        <time>2022-10-30T09:39:07Z</time>
      </trkpt>
      <trkpt lat="43.2274" lon="6.32368">
        <ele>380</ele>
        <time>2022-10-30T09:39:11Z</time>
      </trkpt>
      <trkpt lat="43.22739" lon="6.32369">
        <ele>380.2</ele>
        <time>2022-10-30T09:39:12Z</time>
      </trkpt>
      <trkpt lat="43.22737" lon="6.32381">
        <ele>381.1</ele>
        <time>2022-10-30T09:39:21Z</time>
      </trkpt>
      <trkpt lat="43.22733" lon="6.32393">
        <ele>380.9</ele>
        <time>2022-10-30T09:39:33Z</time>
      </trkpt>
      <trkpt lat="43.22735" lon="6.32405">
        <ele>381.2</ele>
        <time>2022-10-30T09:39:41Z</time>
      </trkpt>
      <trkpt lat="43.22736" lon="6.32418">
        <ele>380.8</ele>
        <time>2022-10-30T09:39:52Z</time>
      </trkpt>
      <trkpt lat="43.22733" lon="6.32431">
        <ele>380.9</ele>
        <time>2022-10-30T09:40:00Z</time>
      </trkpt>
      <trkpt lat="43.2273" lon="6.32444">
        <ele>381.5</ele>
        <time>2022-10-30T09:40:09Z</time>
      </trkpt>
      <trkpt lat="43.22724" lon="6.32457">
        <ele>381.4</ele>
        <time>2022-10-30T09:40:15Z</time>
      </trkpt>
      <trkpt lat="43.22716" lon="6.32465">
        <ele>381.8</ele>
        <time>2022-10-30T09:40:24Z</time>
      </trkpt>
      <trkpt lat="43.2271" lon="6.32475">
        <ele>381.7</ele>
        <time>2022-10-30T09:40:31Z</time>
      </trkpt>
      <trkpt lat="43.22705" lon="6.32485">
        <ele>381.9</ele>
        <time>2022-10-30T09:40:38Z</time>
      </trkpt>
      <trkpt lat="43.22702" lon="6.32498">
        <ele>380.6</ele>
        <time>2022-10-30T09:40:50Z</time>
      </trkpt>
      <trkpt lat="43.22696" lon="6.32507">
        <ele>380.1</ele>
        <time>2022-10-30T09:40:58Z</time>
      </trkpt>
      <trkpt lat="43.2269" lon="6.32517">
        <ele>379.8</ele>
        <time>2022-10-30T09:41:12Z</time>
      </trkpt>
      <trkpt lat="43.22683" lon="6.32526">
        <ele>378.9</ele>
        <time>2022-10-30T09:41:23Z</time>
      </trkpt>
      <trkpt lat="43.22675" lon="6.32534">
        <ele>378.5</ele>
        <time>2022-10-30T09:41:32Z</time>
      </trkpt>
      <trkpt lat="43.22673" lon="6.32547">
        <ele>377.7</ele>
        <time>2022-10-30T09:41:41Z</time>
      </trkpt>
      <trkpt lat="43.22674" lon="6.32545">
        <ele>377.5</ele>
        <time>2022-10-30T09:41:45Z</time>
      </trkpt>
      <trkpt lat="43.22674" lon="6.32547">
        <ele>377.5</ele>
        <time>2022-10-30T09:41:46Z</time>
      </trkpt>
      <trkpt lat="43.22669" lon="6.32557">
        <ele>377.2</ele>
        <time>2022-10-30T09:41:53Z</time>
      </trkpt>
      <trkpt lat="43.22663" lon="6.32568">
        <ele>376.7</ele>
        <time>2022-10-30T09:42:03Z</time>
      </trkpt>
      <trkpt lat="43.2266" lon="6.32581">
        <ele>376.1</ele>
        <time>2022-10-30T09:42:10Z</time>
      </trkpt>
      <trkpt lat="43.22657" lon="6.32593">
        <ele>375.8</ele>
        <time>2022-10-30T09:42:20Z</time>
      </trkpt>
      <trkpt lat="43.22652" lon="6.32604">
        <ele>375.5</ele>
        <time>2022-10-30T09:42:26Z</time>
      </trkpt>
      <trkpt lat="43.22648" lon="6.32618">
        <ele>375</ele>
        <time>2022-10-30T09:42:33Z</time>
      </trkpt>
      <trkpt lat="43.22643" lon="6.32628">
        <ele>373.4</ele>
        <time>2022-10-30T09:42:44Z</time>
      </trkpt>
      <trkpt lat="43.22636" lon="6.32636">
        <ele>372.9</ele>
        <time>2022-10-30T09:42:55Z</time>
      </trkpt>
      <trkpt lat="43.22639" lon="6.32648">
        <ele>371.1</ele>
        <time>2022-10-30T09:43:08Z</time>
      </trkpt>
      <trkpt lat="43.22638" lon="6.32662">
        <ele>369.7</ele>
        <time>2022-10-30T09:43:17Z</time>
      </trkpt>
      <trkpt lat="43.22633" lon="6.32673">
        <ele>368</ele>
        <time>2022-10-30T09:43:25Z</time>
      </trkpt>
      <trkpt lat="43.22626" lon="6.3268">
        <ele>367.6</ele>
        <time>2022-10-30T09:43:34Z</time>
      </trkpt>
      <trkpt lat="43.22619" lon="6.32689">
        <ele>367.4</ele>
        <time>2022-10-30T09:43:45Z</time>
      </trkpt>
      <trkpt lat="43.22617" lon="6.32702">
        <ele>366.6</ele>
        <time>2022-10-30T09:43:57Z</time>
      </trkpt>
      <trkpt lat="43.2261" lon="6.32712">
        <ele>366</ele>
        <time>2022-10-30T09:44:07Z</time>
      </trkpt>
      <trkpt lat="43.22604" lon="6.32722">
        <ele>365.7</ele>
        <time>2022-10-30T09:44:13Z</time>
      </trkpt>
      <trkpt lat="43.22598" lon="6.32732">
        <ele>365.3</ele>
        <time>2022-10-30T09:44:24Z</time>
      </trkpt>
      <trkpt lat="43.2259" lon="6.3274">
        <ele>366.3</ele>
        <time>2022-10-30T09:44:34Z</time>
      </trkpt>
      <trkpt lat="43.22583" lon="6.32748">
        <ele>366.5</ele>
        <time>2022-10-30T09:44:42Z</time>
      </trkpt>
      <trkpt lat="43.2258" lon="6.3276">
        <ele>366</ele>
        <time>2022-10-30T09:44:52Z</time>
      </trkpt>
      <trkpt lat="43.22573" lon="6.32767">
        <ele>365.7</ele>
        <time>2022-10-30T09:45:01Z</time>
      </trkpt>
      <trkpt lat="43.22567" lon="6.32777">
        <ele>365.7</ele>
        <time>2022-10-30T09:45:12Z</time>
      </trkpt>
      <trkpt lat="43.22559" lon="6.32782">
        <ele>364.5</ele>
        <time>2022-10-30T09:45:21Z</time>
      </trkpt>
      <trkpt lat="43.2255" lon="6.32787">
        <ele>364.5</ele>
        <time>2022-10-30T09:45:29Z</time>
      </trkpt>
      <trkpt lat="43.22542" lon="6.32794">
        <ele>366.7</ele>
        <time>2022-10-30T09:45:41Z</time>
      </trkpt>
      <trkpt lat="43.22532" lon="6.32794">
        <ele>366.9</ele>
        <time>2022-10-30T09:45:49Z</time>
      </trkpt>
      <trkpt lat="43.22523" lon="6.32794">
        <ele>368.2</ele>
        <time>2022-10-30T09:45:58Z</time>
      </trkpt>
      <trkpt lat="43.22515" lon="6.32796">
        <ele>369.4</ele>
        <time>2022-10-30T09:46:07Z</time>
      </trkpt>
      <trkpt lat="43.22515" lon="6.32796">
        <ele>369.5</ele>
        <time>2022-10-30T09:46:08Z</time>
      </trkpt>
      <trkpt lat="43.22505" lon="6.32795">
        <ele>370</ele>
        <time>2022-10-30T09:46:18Z</time>
      </trkpt>
      <trkpt lat="43.22497" lon="6.32798">
        <ele>370.5</ele>
        <time>2022-10-30T09:46:26Z</time>
      </trkpt>
      <trkpt lat="43.22488" lon="6.32803">
        <ele>372.2</ele>
        <time>2022-10-30T09:46:38Z</time>
      </trkpt>
      <trkpt lat="43.22485" lon="6.32803">
        <ele>373.7</ele>
        <time>2022-10-30T09:46:46Z</time>
      </trkpt>
      <trkpt lat="43.22484" lon="6.32803">
        <ele>374</ele>
        <time>2022-10-30T09:46:47Z</time>
      </trkpt>
      <trkpt lat="43.22475" lon="6.32807">
        <ele>375</ele>
        <time>2022-10-30T09:47:01Z</time>
      </trkpt>
      <trkpt lat="43.22466" lon="6.32809">
        <ele>374.3</ele>
        <time>2022-10-30T09:47:17Z</time>
      </trkpt>
      <trkpt lat="43.22457" lon="6.32812">
        <ele>375.4</ele>
        <time>2022-10-30T09:47:26Z</time>
      </trkpt>
      <trkpt lat="43.22447" lon="6.32814">
        <ele>377.4</ele>
        <time>2022-10-30T09:47:34Z</time>
      </trkpt>
      <trkpt lat="43.22438" lon="6.32815">
        <ele>378.6</ele>
        <time>2022-10-30T09:47:42Z</time>
      </trkpt>
      <trkpt lat="43.22429" lon="6.32814">
        <ele>379.7</ele>
        <time>2022-10-30T09:47:51Z</time>
      </trkpt>
      <trkpt lat="43.22419" lon="6.32817">
        <ele>381.5</ele>
        <time>2022-10-30T09:48:02Z</time>
      </trkpt>
      <trkpt lat="43.22409" lon="6.32821">
        <ele>382.2</ele>
        <time>2022-10-30T09:48:14Z</time>
      </trkpt>
      <trkpt lat="43.224" lon="6.32823">
        <ele>382.5</ele>
        <time>2022-10-30T09:48:19Z</time>
      </trkpt>
      <trkpt lat="43.22391" lon="6.32827">
        <ele>384.8</ele>
        <time>2022-10-30T09:48:32Z</time>
      </trkpt>
      <trkpt lat="43.22382" lon="6.32826">
        <ele>386.3</ele>
        <time>2022-10-30T09:48:42Z</time>
      </trkpt>
      <trkpt lat="43.22371" lon="6.32825">
        <ele>388.2</ele>
        <time>2022-10-30T09:48:52Z</time>
      </trkpt>
      <trkpt lat="43.22362" lon="6.32825">
        <ele>388.7</ele>
        <time>2022-10-30T09:48:58Z</time>
      </trkpt>
      <trkpt lat="43.22353" lon="6.32824">
        <ele>389.4</ele>
        <time>2022-10-30T09:49:04Z</time>
      </trkpt>
      <trkpt lat="43.22342" lon="6.32823">
        <ele>391.1</ele>
        <time>2022-10-30T09:49:13Z</time>
      </trkpt>
      <trkpt lat="43.22332" lon="6.32824">
        <ele>392</ele>
        <time>2022-10-30T09:49:19Z</time>
      </trkpt>
      <trkpt lat="43.22322" lon="6.32825">
        <ele>392.6</ele>
        <time>2022-10-30T09:49:27Z</time>
      </trkpt>
      <trkpt lat="43.22313" lon="6.3283">
        <ele>393.4</ele>
        <time>2022-10-30T09:49:39Z</time>
      </trkpt>
      <trkpt lat="43.22304" lon="6.32832">
        <ele>395.5</ele>
        <time>2022-10-30T09:49:52Z</time>
      </trkpt>
      <trkpt lat="43.22296" lon="6.32837">
        <ele>397.4</ele>
        <time>2022-10-30T09:50:05Z</time>
      </trkpt>
      <trkpt lat="43.22296" lon="6.32837">
        <ele>397.5</ele>
        <time>2022-10-30T09:50:06Z</time>
      </trkpt>
      <trkpt lat="43.22296" lon="6.32837">
        <ele>397.7</ele>
        <time>2022-10-30T09:50:07Z</time>
      </trkpt>
      <trkpt lat="43.22287" lon="6.32843">
        <ele>397.9</ele>
        <time>2022-10-30T09:50:16Z</time>
      </trkpt>
      <trkpt lat="43.22277" lon="6.3284">
        <ele>398.1</ele>
        <time>2022-10-30T09:50:37Z</time>
      </trkpt>
      <trkpt lat="43.22271" lon="6.32844">
        <ele>399.3</ele>
        <time>2022-10-30T09:51:05Z</time>
      </trkpt>
      <trkpt lat="43.22271" lon="6.32844">
        <ele>399.4</ele>
        <time>2022-10-30T09:51:06Z</time>
      </trkpt>
      <trkpt lat="43.2228" lon="6.32841">
        <ele>401.2</ele>
        <time>2022-10-30T09:51:38Z</time>
      </trkpt>
      <trkpt lat="43.2229" lon="6.32843">
        <ele>402.7</ele>
        <time>2022-10-30T09:51:59Z</time>
      </trkpt>
      <trkpt lat="43.22299" lon="6.32839">
        <ele>403.7</ele>
        <time>2022-10-30T09:52:10Z</time>
      </trkpt>
      <trkpt lat="43.22289" lon="6.32845">
        <ele>404.6</ele>
        <time>2022-10-30T09:52:19Z</time>
      </trkpt>
      <trkpt lat="43.2228" lon="6.32852">
        <ele>406.1</ele>
        <time>2022-10-30T09:52:34Z</time>
      </trkpt>
      <trkpt lat="43.22283" lon="6.32853">
        <ele>407.3</ele>
        <time>2022-10-30T09:52:48Z</time>
      </trkpt>
      <trkpt lat="43.22283" lon="6.32853">
        <ele>407.3</ele>
        <time>2022-10-30T09:52:49Z</time>
      </trkpt>
      <trkpt lat="43.22277" lon="6.32846">
        <ele>407.4</ele>
        <time>2022-10-30T09:53:06Z</time>
      </trkpt>
      <trkpt lat="43.22278" lon="6.32845">
        <ele>407.3</ele>
        <time>2022-10-30T09:53:07Z</time>
      </trkpt>
      <trkpt lat="43.22288" lon="6.32836">
        <ele>405.6</ele>
        <time>2022-10-30T09:53:15Z</time>
      </trkpt>
      <trkpt lat="43.22297" lon="6.32833">
        <ele>404.6</ele>
        <time>2022-10-30T09:53:17Z</time>
      </trkpt>
      <trkpt lat="43.22288" lon="6.32837">
        <ele>406.5</ele>
        <time>2022-10-30T09:54:01Z</time>
      </trkpt>
      <trkpt lat="43.22298" lon="6.32837">
        <ele>405</ele>
        <time>2022-10-30T09:54:13Z</time>
      </trkpt>
      <trkpt lat="43.22307" lon="6.32837">
        <ele>404.9</ele>
        <time>2022-10-30T09:54:20Z</time>
      </trkpt>
      <trkpt lat="43.22299" lon="6.32832">
        <ele>405.4</ele>
        <time>2022-10-30T09:54:32Z</time>
      </trkpt>
      <trkpt lat="43.22299" lon="6.32831">
        <ele>405.1</ele>
        <time>2022-10-30T09:54:34Z</time>
      </trkpt>
      <trkpt lat="43.223" lon="6.32831">
        <ele>405.3</ele>
        <time>2022-10-30T09:54:36Z</time>
      </trkpt>
      <trkpt lat="43.22305" lon="6.32842">
        <ele>407.5</ele>
        <time>2022-10-30T09:54:51Z</time>
      </trkpt>
      <trkpt lat="43.22312" lon="6.32852">
        <ele>410.3</ele>
        <time>2022-10-30T09:55:12Z</time>
      </trkpt>
      <trkpt lat="43.2232" lon="6.32859">
        <ele>410.3</ele>
        <time>2022-10-30T09:55:23Z</time>
      </trkpt>
      <trkpt lat="43.22324" lon="6.32872">
        <ele>412.1</ele>
        <time>2022-10-30T09:55:38Z</time>
      </trkpt>
      <trkpt lat="43.2233" lon="6.32881">
        <ele>412.3</ele>
        <time>2022-10-30T09:55:47Z</time>
      </trkpt>
      <trkpt lat="43.22336" lon="6.32891">
        <ele>416.2</ele>
        <time>2022-10-30T09:56:05Z</time>
      </trkpt>
      <trkpt lat="43.22338" lon="6.32903">
        <ele>417.9</ele>
        <time>2022-10-30T09:56:12Z</time>
      </trkpt>
      <trkpt lat="43.22341" lon="6.32915">
        <ele>419.4</ele>
        <time>2022-10-30T09:56:23Z</time>
      </trkpt>
      <trkpt lat="43.22343" lon="6.32928">
        <ele>420.7</ele>
        <time>2022-10-30T09:56:33Z</time>
      </trkpt>
      <trkpt lat="43.2235" lon="6.32938">
        <ele>421.2</ele>
        <time>2022-10-30T09:56:40Z</time>
      </trkpt>
      <trkpt lat="43.22353" lon="6.32951">
        <ele>422.3</ele>
        <time>2022-10-30T09:56:47Z</time>
      </trkpt>
      <trkpt lat="43.22354" lon="6.32964">
        <ele>422.9</ele>
        <time>2022-10-30T09:56:57Z</time>
      </trkpt>
      <trkpt lat="43.22354" lon="6.32976">
        <ele>423.5</ele>
        <time>2022-10-30T09:57:04Z</time>
      </trkpt>
      <trkpt lat="43.22355" lon="6.32989">
        <ele>423.8</ele>
        <time>2022-10-30T09:57:12Z</time>
      </trkpt>
      <trkpt lat="43.22354" lon="6.33003">
        <ele>425.8</ele>
        <time>2022-10-30T09:57:26Z</time>
      </trkpt>
      <trkpt lat="43.22349" lon="6.33014">
        <ele>428</ele>
        <time>2022-10-30T09:57:36Z</time>
      </trkpt>
      <trkpt lat="43.22349" lon="6.33028">
        <ele>429.3</ele>
        <time>2022-10-30T09:57:44Z</time>
      </trkpt>
      <trkpt lat="43.22351" lon="6.3304">
        <ele>429.9</ele>
        <time>2022-10-30T09:57:53Z</time>
      </trkpt>
      <trkpt lat="43.22353" lon="6.33054">
        <ele>430.4</ele>
        <time>2022-10-30T09:58:01Z</time>
      </trkpt>
      <trkpt lat="43.22349" lon="6.33066">
        <ele>430.6</ele>
        <time>2022-10-30T09:58:09Z</time>
      </trkpt>
      <trkpt lat="43.22344" lon="6.33077">
        <ele>430.7</ele>
        <time>2022-10-30T09:58:19Z</time>
      </trkpt>
      <trkpt lat="43.22336" lon="6.33083">
        <ele>431.8</ele>
        <time>2022-10-30T09:58:27Z</time>
      </trkpt>
      <trkpt lat="43.22326" lon="6.33087">
        <ele>434.1</ele>
        <time>2022-10-30T09:58:43Z</time>
      </trkpt>
      <trkpt lat="43.22328" lon="6.33099">
        <ele>435.6</ele>
        <time>2022-10-30T09:59:09Z</time>
      </trkpt>
      <trkpt lat="43.22318" lon="6.33105">
        <ele>436.4</ele>
        <time>2022-10-30T09:59:14Z</time>
      </trkpt>
      <trkpt lat="43.22309" lon="6.33109">
        <ele>437.3</ele>
        <time>2022-10-30T09:59:18Z</time>
      </trkpt>
      <trkpt lat="43.22317" lon="6.33117">
        <ele>439.3</ele>
        <time>2022-10-30T09:59:28Z</time>
      </trkpt>
      <trkpt lat="43.22312" lon="6.33129">
        <ele>441.5</ele>
        <time>2022-10-30T09:59:37Z</time>
      </trkpt>
      <trkpt lat="43.22304" lon="6.33137">
        <ele>442.7</ele>
        <time>2022-10-30T09:59:44Z</time>
      </trkpt>
      <trkpt lat="43.22297" lon="6.33147">
        <ele>443.5</ele>
        <time>2022-10-30T09:59:51Z</time>
      </trkpt>
      <trkpt lat="43.22295" lon="6.3316">
        <ele>444.9</ele>
        <time>2022-10-30T10:00:06Z</time>
      </trkpt>
      <trkpt lat="43.2229" lon="6.33171">
        <ele>447.6</ele>
        <time>2022-10-30T10:00:18Z</time>
      </trkpt>
      <trkpt lat="43.22282" lon="6.33175">
        <ele>449.7</ele>
        <time>2022-10-30T10:00:30Z</time>
      </trkpt>
      <trkpt lat="43.22282" lon="6.33175">
        <ele>450.3</ele>
        <time>2022-10-30T10:00:31Z</time>
      </trkpt>
      <trkpt lat="43.2228" lon="6.33176">
        <ele>451.4</ele>
        <time>2022-10-30T10:00:35Z</time>
      </trkpt>
      <trkpt lat="43.2228" lon="6.33176">
        <ele>451.5</ele>
        <time>2022-10-30T10:00:36Z</time>
      </trkpt>
      <trkpt lat="43.2228" lon="6.33176">
        <ele>451.6</ele>
        <time>2022-10-30T10:00:37Z</time>
      </trkpt>
      <trkpt lat="43.2228" lon="6.33176">
        <ele>451.6</ele>
        <time>2022-10-30T10:00:38Z</time>
      </trkpt>
      <trkpt lat="43.22278" lon="6.33177">
        <ele>451.5</ele>
        <time>2022-10-30T10:00:47Z</time>
      </trkpt>
      <trkpt lat="43.22277" lon="6.33177">
        <ele>451.6</ele>
        <time>2022-10-30T10:00:48Z</time>
      </trkpt>
      <trkpt lat="43.22278" lon="6.33177">
        <ele>453.9</ele>
        <time>2022-10-30T10:01:24Z</time>
      </trkpt>
      <trkpt lat="43.22278" lon="6.33176">
        <ele>454</ele>
        <time>2022-10-30T10:01:25Z</time>
      </trkpt>
      <trkpt lat="43.22269" lon="6.33174">
        <ele>454.4</ele>
        <time>2022-10-30T10:02:07Z</time>
      </trkpt>
      <trkpt lat="43.2227" lon="6.33175">
        <ele>453.2</ele>
        <time>2022-10-30T10:02:31Z</time>
      </trkpt>
      <trkpt lat="43.22271" lon="6.33175">
        <ele>453.2</ele>
        <time>2022-10-30T10:02:32Z</time>
      </trkpt>
      <trkpt lat="43.22271" lon="6.33163">
        <ele>452.8</ele>
        <time>2022-10-30T10:02:47Z</time>
      </trkpt>
      <trkpt lat="43.22271" lon="6.33162">
        <ele>452.7</ele>
        <time>2022-10-30T10:02:48Z</time>
      </trkpt>
      <trkpt lat="43.22262" lon="6.33164">
        <ele>452</ele>
        <time>2022-10-30T10:03:01Z</time>
      </trkpt>
      <trkpt lat="43.22261" lon="6.33175">
        <ele>452.1</ele>
        <time>2022-10-30T10:03:15Z</time>
      </trkpt>
      <trkpt lat="43.22263" lon="6.33175">
        <ele>452.1</ele>
        <time>2022-10-30T10:03:16Z</time>
      </trkpt>
      <trkpt lat="43.22272" lon="6.33179">
        <ele>453.2</ele>
        <time>2022-10-30T10:03:36Z</time>
      </trkpt>
      <trkpt lat="43.22277" lon="6.33187">
        <ele>454.2</ele>
        <time>2022-10-30T10:03:53Z</time>
      </trkpt>
      <trkpt lat="43.22277" lon="6.33187">
        <ele>454.3</ele>
        <time>2022-10-30T10:03:54Z</time>
      </trkpt>
      <trkpt lat="43.22277" lon="6.33175">
        <ele>455.6</ele>
        <time>2022-10-30T10:04:26Z</time>
      </trkpt>
      <trkpt lat="43.22276" lon="6.33179">
        <ele>455.4</ele>
        <time>2022-10-30T10:04:49Z</time>
      </trkpt>
      <trkpt lat="43.22277" lon="6.33178">
        <ele>455.4</ele>
        <time>2022-10-30T10:04:50Z</time>
      </trkpt>
      <trkpt lat="43.2228" lon="6.33171">
        <ele>455.7</ele>
        <time>2022-10-30T10:04:59Z</time>
      </trkpt>
      <trkpt lat="43.2228" lon="6.33171">
        <ele>455.7</ele>
        <time>2022-10-30T10:05:00Z</time>
      </trkpt>
      <trkpt lat="43.2228" lon="6.33172">
        <ele>455.6</ele>
        <time>2022-10-30T10:05:01Z</time>
      </trkpt>
      <trkpt lat="43.2228" lon="6.33171">
        <ele>455.6</ele>
        <time>2022-10-30T10:05:02Z</time>
      </trkpt>
      <trkpt lat="43.22276" lon="6.33182">
        <ele>455.8</ele>
        <time>2022-10-30T10:05:34Z</time>
      </trkpt>
      <trkpt lat="43.22277" lon="6.33179">
        <ele>456.1</ele>
        <time>2022-10-30T10:05:41Z</time>
      </trkpt>
      <trkpt lat="43.22279" lon="6.33179">
        <ele>456.1</ele>
        <time>2022-10-30T10:05:42Z</time>
      </trkpt>
      <trkpt lat="43.22281" lon="6.33179">
        <ele>456.1</ele>
        <time>2022-10-30T10:05:46Z</time>
      </trkpt>
      <trkpt lat="43.22281" lon="6.3318">
        <ele>456</ele>
        <time>2022-10-30T10:05:47Z</time>
      </trkpt>
      <trkpt lat="43.22279" lon="6.33185">
        <ele>455.6</ele>
        <time>2022-10-30T10:06:27Z</time>
      </trkpt>
      <trkpt lat="43.22279" lon="6.33185">
        <ele>455.7</ele>
        <time>2022-10-30T10:06:28Z</time>
      </trkpt>
      <trkpt lat="43.22278" lon="6.33179">
        <ele>455.9</ele>
        <time>2022-10-30T10:06:36Z</time>
      </trkpt>
      <trkpt lat="43.22278" lon="6.33179">
        <ele>455.8</ele>
        <time>2022-10-30T10:06:37Z</time>
      </trkpt>
      <trkpt lat="43.22269" lon="6.33179">
        <ele>456.1</ele>
        <time>2022-10-30T10:07:34Z</time>
      </trkpt>
      <trkpt lat="43.22259" lon="6.33184">
        <ele>456.6</ele>
        <time>2022-10-30T10:07:39Z</time>
      </trkpt>
      <trkpt lat="43.2226" lon="6.33198">
        <ele>458.6</ele>
        <time>2022-10-30T10:08:04Z</time>
      </trkpt>
      <trkpt lat="43.2225" lon="6.33202">
        <ele>458.8</ele>
        <time>2022-10-30T10:08:08Z</time>
      </trkpt>
      <trkpt lat="43.22239" lon="6.33205">
        <ele>458.7</ele>
        <time>2022-10-30T10:08:12Z</time>
      </trkpt>
      <trkpt lat="43.2223" lon="6.33208">
        <ele>458.4</ele>
        <time>2022-10-30T10:08:17Z</time>
      </trkpt>
      <trkpt lat="43.22219" lon="6.33213">
        <ele>458.2</ele>
        <time>2022-10-30T10:08:22Z</time>
      </trkpt>
      <trkpt lat="43.22209" lon="6.33217">
        <ele>458.2</ele>
        <time>2022-10-30T10:08:26Z</time>
      </trkpt>
      <trkpt lat="43.222" lon="6.33222">
        <ele>458.1</ele>
        <time>2022-10-30T10:08:32Z</time>
      </trkpt>
      <trkpt lat="43.22192" lon="6.33228">
        <ele>458.2</ele>
        <time>2022-10-30T10:08:40Z</time>
      </trkpt>
      <trkpt lat="43.22192" lon="6.33228">
        <ele>458.2</ele>
        <time>2022-10-30T10:08:41Z</time>
      </trkpt>
      <trkpt lat="43.22193" lon="6.33228">
        <ele>458.1</ele>
        <time>2022-10-30T10:08:42Z</time>
      </trkpt>
      <trkpt lat="43.22188" lon="6.33223">
        <ele>458.3</ele>
        <time>2022-10-30T10:09:09Z</time>
      </trkpt>
      <trkpt lat="43.22187" lon="6.33223">
        <ele>458.4</ele>
        <time>2022-10-30T10:09:10Z</time>
      </trkpt>
      <trkpt lat="43.22177" lon="6.33221">
        <ele>459.6</ele>
        <time>2022-10-30T10:09:23Z</time>
      </trkpt>
      <trkpt lat="43.22167" lon="6.33222">
        <ele>459.6</ele>
        <time>2022-10-30T10:09:30Z</time>
      </trkpt>
      <trkpt lat="43.22163" lon="6.33227">
        <ele>460</ele>
        <time>2022-10-30T10:09:38Z</time>
      </trkpt>
      <trkpt lat="43.22162" lon="6.33227">
        <ele>460.1</ele>
        <time>2022-10-30T10:09:39Z</time>
      </trkpt>
      <trkpt lat="43.22154" lon="6.33232">
        <ele>460.5</ele>
        <time>2022-10-30T10:09:44Z</time>
      </trkpt>
      <trkpt lat="43.22147" lon="6.33242">
        <ele>460.6</ele>
        <time>2022-10-30T10:09:52Z</time>
      </trkpt>
      <trkpt lat="43.2214" lon="6.3325">
        <ele>460.8</ele>
        <time>2022-10-30T10:10:02Z</time>
      </trkpt>
      <trkpt lat="43.22131" lon="6.33255">
        <ele>460.9</ele>
        <time>2022-10-30T10:10:09Z</time>
      </trkpt>
      <trkpt lat="43.22124" lon="6.33262">
        <ele>461.4</ele>
        <time>2022-10-30T10:10:16Z</time>
      </trkpt>
      <trkpt lat="43.22122" lon="6.33265">
        <ele>461.8</ele>
        <time>2022-10-30T10:10:19Z</time>
      </trkpt>
      <trkpt lat="43.22122" lon="6.33266">
        <ele>461.8</ele>
        <time>2022-10-30T10:10:20Z</time>
      </trkpt>
      <trkpt lat="43.22113" lon="6.33266">
        <ele>463</ele>
        <time>2022-10-30T10:10:33Z</time>
      </trkpt>
      <trkpt lat="43.22104" lon="6.33268">
        <ele>463.7</ele>
        <time>2022-10-30T10:10:40Z</time>
      </trkpt>
      <trkpt lat="43.22093" lon="6.33267">
        <ele>463.1</ele>
        <time>2022-10-30T10:11:01Z</time>
      </trkpt>
      <trkpt lat="43.22082" lon="6.33268">
        <ele>463.3</ele>
        <time>2022-10-30T10:11:06Z</time>
      </trkpt>
      <trkpt lat="43.22073" lon="6.3327">
        <ele>463.3</ele>
        <time>2022-10-30T10:11:11Z</time>
      </trkpt>
      <trkpt lat="43.22063" lon="6.3327">
        <ele>462.8</ele>
        <time>2022-10-30T10:11:22Z</time>
      </trkpt>
      <trkpt lat="43.22055" lon="6.33274">
        <ele>462.9</ele>
        <time>2022-10-30T10:11:31Z</time>
      </trkpt>
      <trkpt lat="43.22046" lon="6.33278">
        <ele>462.8</ele>
        <time>2022-10-30T10:11:40Z</time>
      </trkpt>
      <trkpt lat="43.22036" lon="6.33281">
        <ele>462.9</ele>
        <time>2022-10-30T10:11:45Z</time>
      </trkpt>
      <trkpt lat="43.22027" lon="6.3328">
        <ele>462.2</ele>
        <time>2022-10-30T10:11:57Z</time>
      </trkpt>
      <trkpt lat="43.22018" lon="6.33275">
        <ele>462.7</ele>
        <time>2022-10-30T10:12:04Z</time>
      </trkpt>
      <trkpt lat="43.22009" lon="6.33273">
        <ele>462.7</ele>
        <time>2022-10-30T10:12:13Z</time>
      </trkpt>
      <trkpt lat="43.22" lon="6.33267">
        <ele>462.3</ele>
        <time>2022-10-30T10:12:21Z</time>
      </trkpt>
      <trkpt lat="43.21989" lon="6.33266">
        <ele>462.3</ele>
        <time>2022-10-30T10:12:26Z</time>
      </trkpt>
      <trkpt lat="43.21979" lon="6.33265">
        <ele>461.6</ele>
        <time>2022-10-30T10:12:31Z</time>
      </trkpt>
      <trkpt lat="43.2197" lon="6.33259">
        <ele>461.4</ele>
        <time>2022-10-30T10:12:38Z</time>
      </trkpt>
      <trkpt lat="43.21962" lon="6.33252">
        <ele>460.4</ele>
        <time>2022-10-30T10:12:48Z</time>
      </trkpt>
      <trkpt lat="43.21954" lon="6.33245">
        <ele>459.8</ele>
        <time>2022-10-30T10:12:58Z</time>
      </trkpt>
      <trkpt lat="43.21945" lon="6.33244">
        <ele>459.6</ele>
        <time>2022-10-30T10:13:01Z</time>
      </trkpt>
      <trkpt lat="43.21936" lon="6.33241">
        <ele>459.8</ele>
        <time>2022-10-30T10:13:08Z</time>
      </trkpt>
      <trkpt lat="43.21925" lon="6.3324">
        <ele>459.8</ele>
        <time>2022-10-30T10:13:18Z</time>
      </trkpt>
      <trkpt lat="43.21918" lon="6.33235">
        <ele>459.6</ele>
        <time>2022-10-30T10:13:27Z</time>
      </trkpt>
      <trkpt lat="43.21918" lon="6.33235">
        <ele>459.7</ele>
        <time>2022-10-30T10:13:28Z</time>
      </trkpt>
      <trkpt lat="43.21911" lon="6.33227">
        <ele>459.4</ele>
        <time>2022-10-30T10:13:40Z</time>
      </trkpt>
      <trkpt lat="43.21901" lon="6.33227">
        <ele>457.8</ele>
        <time>2022-10-30T10:13:48Z</time>
      </trkpt>
      <trkpt lat="43.21891" lon="6.33227">
        <ele>456.8</ele>
        <time>2022-10-30T10:13:53Z</time>
      </trkpt>
      <trkpt lat="43.21882" lon="6.33223">
        <ele>456.2</ele>
        <time>2022-10-30T10:14:03Z</time>
      </trkpt>
      <trkpt lat="43.21873" lon="6.33217">
        <ele>455.5</ele>
        <time>2022-10-30T10:14:16Z</time>
      </trkpt>
      <trkpt lat="43.21873" lon="6.33217">
        <ele>455.5</ele>
        <time>2022-10-30T10:14:17Z</time>
      </trkpt>
      <trkpt lat="43.21872" lon="6.33217">
        <ele>455.4</ele>
        <time>2022-10-30T10:14:18Z</time>
      </trkpt>
      <trkpt lat="43.21868" lon="6.33228">
        <ele>456.2</ele>
        <time>2022-10-30T10:14:30Z</time>
      </trkpt>
      <trkpt lat="43.21864" lon="6.3324">
        <ele>456.8</ele>
        <time>2022-10-30T10:14:40Z</time>
      </trkpt>
      <trkpt lat="43.2186" lon="6.33252">
        <ele>458.3</ele>
        <time>2022-10-30T10:14:52Z</time>
      </trkpt>
      <trkpt lat="43.21861" lon="6.33258">
        <ele>458.4</ele>
        <time>2022-10-30T10:15:00Z</time>
      </trkpt>
      <trkpt lat="43.21861" lon="6.33259">
        <ele>458.3</ele>
        <time>2022-10-30T10:15:01Z</time>
      </trkpt>
      <trkpt lat="43.21856" lon="6.3327">
        <ele>459</ele>
        <time>2022-10-30T10:15:09Z</time>
      </trkpt>
      <trkpt lat="43.21848" lon="6.33279">
        <ele>459.7</ele>
        <time>2022-10-30T10:15:26Z</time>
      </trkpt>
      <trkpt lat="43.21848" lon="6.33281">
        <ele>460.1</ele>
        <time>2022-10-30T10:15:29Z</time>
      </trkpt>
      <trkpt lat="43.21848" lon="6.33282">
        <ele>460.1</ele>
        <time>2022-10-30T10:15:30Z</time>
      </trkpt>
      <trkpt lat="43.21842" lon="6.33292">
        <ele>460.6</ele>
        <time>2022-10-30T10:15:41Z</time>
      </trkpt>
      <trkpt lat="43.21836" lon="6.33304">
        <ele>460.8</ele>
        <time>2022-10-30T10:15:52Z</time>
      </trkpt>
      <trkpt lat="43.21833" lon="6.33316">
        <ele>460.8</ele>
        <time>2022-10-30T10:16:02Z</time>
      </trkpt>
      <trkpt lat="43.21828" lon="6.33326">
        <ele>460.6</ele>
        <time>2022-10-30T10:16:17Z</time>
      </trkpt>
      <trkpt lat="43.21821" lon="6.33335">
        <ele>460.6</ele>
        <time>2022-10-30T10:16:28Z</time>
      </trkpt>
      <trkpt lat="43.21821" lon="6.33338">
        <ele>460.6</ele>
        <time>2022-10-30T10:16:34Z</time>
      </trkpt>
      <trkpt lat="43.21821" lon="6.33339">
        <ele>460.7</ele>
        <time>2022-10-30T10:16:35Z</time>
      </trkpt>
      <trkpt lat="43.21813" lon="6.33346">
        <ele>460.8</ele>
        <time>2022-10-30T10:16:44Z</time>
      </trkpt>
      <trkpt lat="43.21804" lon="6.33353">
        <ele>460.8</ele>
        <time>2022-10-30T10:16:52Z</time>
      </trkpt>
      <trkpt lat="43.21805" lon="6.33353">
        <ele>460.7</ele>
        <time>2022-10-30T10:16:55Z</time>
      </trkpt>
      <trkpt lat="43.21804" lon="6.33354">
        <ele>460.7</ele>
        <time>2022-10-30T10:16:56Z</time>
      </trkpt>
      <trkpt lat="43.21795" lon="6.3336">
        <ele>460.7</ele>
        <time>2022-10-30T10:17:11Z</time>
      </trkpt>
      <trkpt lat="43.21793" lon="6.33361">
        <ele>460.6</ele>
        <time>2022-10-30T10:17:14Z</time>
      </trkpt>
      <trkpt lat="43.21793" lon="6.33361">
        <ele>460.6</ele>
        <time>2022-10-30T10:17:15Z</time>
      </trkpt>
      <trkpt lat="43.21786" lon="6.33369">
        <ele>460.7</ele>
        <time>2022-10-30T10:17:26Z</time>
      </trkpt>
      <trkpt lat="43.21777" lon="6.33374">
        <ele>460.7</ele>
        <time>2022-10-30T10:17:40Z</time>
      </trkpt>
      <trkpt lat="43.21786" lon="6.33371">
        <ele>460.5</ele>
        <time>2022-10-30T10:17:54Z</time>
      </trkpt>
      <trkpt lat="43.21777" lon="6.33379">
        <ele>460.9</ele>
        <time>2022-10-30T10:18:13Z</time>
      </trkpt>
      <trkpt lat="43.21769" lon="6.33387">
        <ele>461.2</ele>
        <time>2022-10-30T10:18:18Z</time>
      </trkpt>
      <trkpt lat="43.21761" lon="6.33398">
        <ele>461.1</ele>
        <time>2022-10-30T10:18:32Z</time>
      </trkpt>
      <trkpt lat="43.2176" lon="6.33411">
        <ele>461.1</ele>
        <time>2022-10-30T10:18:55Z</time>
      </trkpt>
      <trkpt lat="43.21748" lon="6.33416">
        <ele>461.2</ele>
        <time>2022-10-30T10:19:06Z</time>
      </trkpt>
      <trkpt lat="43.21739" lon="6.33419">
        <ele>461.2</ele>
        <time>2022-10-30T10:19:16Z</time>
      </trkpt>
      <trkpt lat="43.21733" lon="6.3343">
        <ele>461.4</ele>
        <time>2022-10-30T10:19:30Z</time>
      </trkpt>
      <trkpt lat="43.21717" lon="6.3344">
        <ele>461</ele>
        <time>2022-10-30T10:19:49Z</time>
      </trkpt>
      <trkpt lat="43.21706" lon="6.33446">
        <ele>460.9</ele>
        <time>2022-10-30T10:19:52Z</time>
      </trkpt>
      <trkpt lat="43.21696" lon="6.33449">
        <ele>461.2</ele>
        <time>2022-10-30T10:19:58Z</time>
      </trkpt>
      <trkpt lat="43.21685" lon="6.33455">
        <ele>461.4</ele>
        <time>2022-10-30T10:20:02Z</time>
      </trkpt>
      <trkpt lat="43.21684" lon="6.33467">
        <ele>460.9</ele>
        <time>2022-10-30T10:20:11Z</time>
      </trkpt>
      <trkpt lat="43.21673" lon="6.33465">
        <ele>461</ele>
        <time>2022-10-30T10:20:42Z</time>
      </trkpt>
      <trkpt lat="43.21662" lon="6.33472">
        <ele>461.9</ele>
        <time>2022-10-30T10:20:57Z</time>
      </trkpt>
      <trkpt lat="43.21649" lon="6.33478">
        <ele>462.2</ele>
        <time>2022-10-30T10:20:59Z</time>
      </trkpt>
      <trkpt lat="43.21638" lon="6.33484">
        <ele>462.4</ele>
        <time>2022-10-30T10:21:03Z</time>
      </trkpt>
      <trkpt lat="43.21634" lon="6.33495">
        <ele>462</ele>
        <time>2022-10-30T10:21:14Z</time>
      </trkpt>
      <trkpt lat="43.21625" lon="6.33499">
        <ele>462.1</ele>
        <time>2022-10-30T10:21:17Z</time>
      </trkpt>
      <trkpt lat="43.21627" lon="6.33511">
        <ele>463.8</ele>
        <time>2022-10-30T10:21:31Z</time>
      </trkpt>
      <trkpt lat="43.21626" lon="6.33524">
        <ele>463.5</ele>
        <time>2022-10-30T10:21:41Z</time>
      </trkpt>
      <trkpt lat="43.21621" lon="6.33536">
        <ele>463.1</ele>
        <time>2022-10-30T10:21:53Z</time>
      </trkpt>
      <trkpt lat="43.21613" lon="6.33544">
        <ele>462.8</ele>
        <time>2022-10-30T10:21:59Z</time>
      </trkpt>
      <trkpt lat="43.21607" lon="6.33555">
        <ele>463.1</ele>
        <time>2022-10-30T10:22:06Z</time>
      </trkpt>
      <trkpt lat="43.21615" lon="6.33564">
        <ele>462.8</ele>
        <time>2022-10-30T10:22:14Z</time>
      </trkpt>
      <trkpt lat="43.21625" lon="6.33565">
        <ele>462.2</ele>
        <time>2022-10-30T10:22:19Z</time>
      </trkpt>
      <trkpt lat="43.21624" lon="6.33577">
        <ele>462.8</ele>
        <time>2022-10-30T10:22:31Z</time>
      </trkpt>
      <trkpt lat="43.21617" lon="6.33586">
        <ele>463.4</ele>
        <time>2022-10-30T10:22:38Z</time>
      </trkpt>
      <trkpt lat="43.21622" lon="6.33598">
        <ele>465.2</ele>
        <time>2022-10-30T10:22:51Z</time>
      </trkpt>
      <trkpt lat="43.21627" lon="6.3361">
        <ele>465.4</ele>
        <time>2022-10-30T10:23:02Z</time>
      </trkpt>
      <trkpt lat="43.21626" lon="6.33623">
        <ele>465.3</ele>
        <time>2022-10-30T10:23:10Z</time>
      </trkpt>
      <trkpt lat="43.21623" lon="6.33636">
        <ele>466.3</ele>
        <time>2022-10-30T10:23:22Z</time>
      </trkpt>
      <trkpt lat="43.21615" lon="6.33647">
        <ele>466.6</ele>
        <time>2022-10-30T10:23:31Z</time>
      </trkpt>
      <trkpt lat="43.21607" lon="6.33655">
        <ele>467</ele>
        <time>2022-10-30T10:23:44Z</time>
      </trkpt>
      <trkpt lat="43.21617" lon="6.33656">
        <ele>466.6</ele>
        <time>2022-10-30T10:23:56Z</time>
      </trkpt>
      <trkpt lat="43.21626" lon="6.33655">
        <ele>467.4</ele>
        <time>2022-10-30T10:24:06Z</time>
      </trkpt>
      <trkpt lat="43.2163" lon="6.33655">
        <ele>467.7</ele>
        <time>2022-10-30T10:24:11Z</time>
      </trkpt>
      <trkpt lat="43.21631" lon="6.33656">
        <ele>467.8</ele>
        <time>2022-10-30T10:24:12Z</time>
      </trkpt>
      <trkpt lat="43.21635" lon="6.3366">
        <ele>468.5</ele>
        <time>2022-10-30T10:24:27Z</time>
      </trkpt>
      <trkpt lat="43.21635" lon="6.3366">
        <ele>468.6</ele>
        <time>2022-10-30T10:24:28Z</time>
      </trkpt>
      <trkpt lat="43.21641" lon="6.33654">
        <ele>469.4</ele>
        <time>2022-10-30T10:25:01Z</time>
      </trkpt>
      <trkpt lat="43.2164" lon="6.33654">
        <ele>469.3</ele>
        <time>2022-10-30T10:25:02Z</time>
      </trkpt>
      <trkpt lat="43.21632" lon="6.33647">
        <ele>470.4</ele>
        <time>2022-10-30T10:25:19Z</time>
      </trkpt>
      <trkpt lat="43.21625" lon="6.33654">
        <ele>471</ele>
        <time>2022-10-30T10:25:29Z</time>
      </trkpt>
      <trkpt lat="43.21618" lon="6.33659">
        <ele>471.2</ele>
        <time>2022-10-30T10:25:39Z</time>
      </trkpt>
      <trkpt lat="43.21618" lon="6.3366">
        <ele>471.2</ele>
        <time>2022-10-30T10:25:40Z</time>
      </trkpt>
      <trkpt lat="43.2161" lon="6.33667">
        <ele>471.6</ele>
        <time>2022-10-30T10:25:50Z</time>
      </trkpt>
      <trkpt lat="43.21599" lon="6.33669">
        <ele>472.1</ele>
        <time>2022-10-30T10:25:56Z</time>
      </trkpt>
      <trkpt lat="43.2159" lon="6.33673">
        <ele>472.2</ele>
        <time>2022-10-30T10:26:04Z</time>
      </trkpt>
      <trkpt lat="43.21581" lon="6.33677">
        <ele>472.6</ele>
        <time>2022-10-30T10:26:18Z</time>
      </trkpt>
      <trkpt lat="43.21573" lon="6.33684">
        <ele>474.2</ele>
        <time>2022-10-30T10:26:26Z</time>
      </trkpt>
      <trkpt lat="43.21563" lon="6.33686">
        <ele>474.5</ele>
        <time>2022-10-30T10:26:36Z</time>
      </trkpt>
      <trkpt lat="43.21554" lon="6.33691">
        <ele>474.6</ele>
        <time>2022-10-30T10:26:46Z</time>
      </trkpt>
      <trkpt lat="43.21545" lon="6.33695">
        <ele>474.3</ele>
        <time>2022-10-30T10:26:56Z</time>
      </trkpt>
      <trkpt lat="43.21542" lon="6.33705">
        <ele>474.7</ele>
        <time>2022-10-30T10:27:13Z</time>
      </trkpt>
      <trkpt lat="43.21541" lon="6.33706">
        <ele>474.7</ele>
        <time>2022-10-30T10:27:14Z</time>
      </trkpt>
      <trkpt lat="43.21533" lon="6.33715">
        <ele>474.6</ele>
        <time>2022-10-30T10:27:23Z</time>
      </trkpt>
      <trkpt lat="43.21524" lon="6.33717">
        <ele>474.2</ele>
        <time>2022-10-30T10:27:28Z</time>
      </trkpt>
      <trkpt lat="43.21514" lon="6.33716">
        <ele>473.6</ele>
        <time>2022-10-30T10:27:33Z</time>
      </trkpt>
      <trkpt lat="43.21523" lon="6.33712">
        <ele>472.5</ele>
        <time>2022-10-30T10:27:42Z</time>
      </trkpt>
      <trkpt lat="43.21514" lon="6.33713">
        <ele>472.2</ele>
        <time>2022-10-30T10:27:50Z</time>
      </trkpt>
      <trkpt lat="43.21521" lon="6.33721">
        <ele>472.5</ele>
        <time>2022-10-30T10:28:10Z</time>
      </trkpt>
      <trkpt lat="43.21529" lon="6.33729">
        <ele>473.1</ele>
        <time>2022-10-30T10:28:21Z</time>
      </trkpt>
      <trkpt lat="43.21539" lon="6.33728">
        <ele>473.7</ele>
        <time>2022-10-30T10:28:29Z</time>
      </trkpt>
      <trkpt lat="43.2155" lon="6.33725">
        <ele>474.3</ele>
        <time>2022-10-30T10:28:33Z</time>
      </trkpt>
      <trkpt lat="43.21547" lon="6.33727">
        <ele>475.3</ele>
        <time>2022-10-30T10:28:39Z</time>
      </trkpt>
      <trkpt lat="43.21546" lon="6.33727">
        <ele>475.2</ele>
        <time>2022-10-30T10:28:40Z</time>
      </trkpt>
      <trkpt lat="43.21551" lon="6.33731">
        <ele>477.5</ele>
        <time>2022-10-30T10:29:04Z</time>
      </trkpt>
      <trkpt lat="43.2155" lon="6.33731">
        <ele>477.5</ele>
        <time>2022-10-30T10:29:05Z</time>
      </trkpt>
      <trkpt lat="43.21538" lon="6.33734">
        <ele>478.1</ele>
        <time>2022-10-30T10:29:11Z</time>
      </trkpt>
      <trkpt lat="43.21528" lon="6.33732">
        <ele>476.2</ele>
        <time>2022-10-30T10:29:40Z</time>
      </trkpt>
      <trkpt lat="43.21519" lon="6.33726">
        <ele>475.9</ele>
        <time>2022-10-30T10:29:48Z</time>
      </trkpt>
      <trkpt lat="43.2151" lon="6.33729">
        <ele>475.8</ele>
        <time>2022-10-30T10:29:53Z</time>
      </trkpt>
      <trkpt lat="43.21519" lon="6.3373">
        <ele>475.3</ele>
        <time>2022-10-30T10:30:02Z</time>
      </trkpt>
      <trkpt lat="43.21525" lon="6.33713">
        <ele>475.1</ele>
        <time>2022-10-30T10:30:23Z</time>
      </trkpt>
      <trkpt lat="43.21532" lon="6.33704">
        <ele>474.9</ele>
        <time>2022-10-30T10:30:35Z</time>
      </trkpt>
      <trkpt lat="43.21478" lon="6.33718">
        <ele>476.3</ele>
        <time>2022-10-30T10:30:44Z</time>
      </trkpt>
      <trkpt lat="43.21462" lon="6.33725">
        <ele>476.8</ele>
        <time>2022-10-30T10:30:46Z</time>
      </trkpt>
      <trkpt lat="43.21452" lon="6.3373">
        <ele>477</ele>
        <time>2022-10-30T10:30:47Z</time>
      </trkpt>
      <trkpt lat="43.21441" lon="6.33733">
        <ele>476.9</ele>
        <time>2022-10-30T10:30:48Z</time>
      </trkpt>
      <trkpt lat="43.2143" lon="6.33735">
        <ele>477.4</ele>
        <time>2022-10-30T10:30:49Z</time>
      </trkpt>
      <trkpt lat="43.21355" lon="6.33757">
        <ele>477.8</ele>
        <time>2022-10-30T10:30:56Z</time>
      </trkpt>
      <trkpt lat="43.21338" lon="6.33761">
        <ele>478</ele>
        <time>2022-10-30T10:30:58Z</time>
      </trkpt>
      <trkpt lat="43.21325" lon="6.33763">
        <ele>477.9</ele>
        <time>2022-10-30T10:30:59Z</time>
      </trkpt>
      <trkpt lat="43.21312" lon="6.33766">
        <ele>477.8</ele>
        <time>2022-10-30T10:31:00Z</time>
      </trkpt>
      <trkpt lat="43.2124" lon="6.33795">
        <ele>475.9</ele>
        <time>2022-10-30T10:31:15Z</time>
      </trkpt>
      <trkpt lat="43.21271" lon="6.33787">
        <ele>473.3</ele>
        <time>2022-10-30T10:31:18Z</time>
      </trkpt>
      <trkpt lat="43.21288" lon="6.33778">
        <ele>473.2</ele>
        <time>2022-10-30T10:31:19Z</time>
      </trkpt>
      <trkpt lat="43.2132" lon="6.33767">
        <ele>472.5</ele>
        <time>2022-10-30T10:31:20Z</time>
      </trkpt>
      <trkpt lat="43.21342" lon="6.33759">
        <ele>472.1</ele>
        <time>2022-10-30T10:31:21Z</time>
      </trkpt>
      <trkpt lat="43.21359" lon="6.33755">
        <ele>470.1</ele>
        <time>2022-10-30T10:31:23Z</time>
      </trkpt>
      <trkpt lat="43.2137" lon="6.33753">
        <ele>468.2</ele>
        <time>2022-10-30T10:31:24Z</time>
      </trkpt>
      <trkpt lat="43.21384" lon="6.33752">
        <ele>466.1</ele>
        <time>2022-10-30T10:31:26Z</time>
      </trkpt>
      <trkpt lat="43.21395" lon="6.33754">
        <ele>464.6</ele>
        <time>2022-10-30T10:31:28Z</time>
      </trkpt>
      <trkpt lat="43.21408" lon="6.33754">
        <ele>463.3</ele>
        <time>2022-10-30T10:31:31Z</time>
      </trkpt>
      <trkpt lat="43.21397" lon="6.33758">
        <ele>462.9</ele>
        <time>2022-10-30T10:31:33Z</time>
      </trkpt>
      <trkpt lat="43.21406" lon="6.3376">
        <ele>460.9</ele>
        <time>2022-10-30T10:31:35Z</time>
      </trkpt>
      <trkpt lat="43.21419" lon="6.33758">
        <ele>458.6</ele>
        <time>2022-10-30T10:31:37Z</time>
      </trkpt>
      <trkpt lat="43.21432" lon="6.33756">
        <ele>456.9</ele>
        <time>2022-10-30T10:31:40Z</time>
      </trkpt>
      <trkpt lat="43.21441" lon="6.33755">
        <ele>456</ele>
        <time>2022-10-30T10:31:43Z</time>
      </trkpt>
      <trkpt lat="43.21445" lon="6.33755">
        <ele>455.6</ele>
        <time>2022-10-30T10:31:46Z</time>
      </trkpt>
      <trkpt lat="43.21444" lon="6.33755">
        <ele>455.3</ele>
        <time>2022-10-30T10:31:47Z</time>
      </trkpt>
      <trkpt lat="43.21453" lon="6.33756">
        <ele>454.5</ele>
        <time>2022-10-30T10:31:52Z</time>
      </trkpt>
      <trkpt lat="43.21462" lon="6.33756">
        <ele>464.5</ele>
        <time>2022-10-30T10:31:56Z</time>
      </trkpt>
      <trkpt lat="43.21474" lon="6.33757">
        <ele>467.1</ele>
        <time>2022-10-30T10:32:03Z</time>
      </trkpt>
      <trkpt lat="43.21476" lon="6.33769">
        <ele>471.1</ele>
        <time>2022-10-30T10:32:20Z</time>
      </trkpt>
      <trkpt lat="43.21468" lon="6.33778">
        <ele>471.7</ele>
        <time>2022-10-30T10:32:31Z</time>
      </trkpt>
      <trkpt lat="43.21461" lon="6.33787">
        <ele>471.7</ele>
        <time>2022-10-30T10:32:42Z</time>
      </trkpt>
      <trkpt lat="43.21458" lon="6.33799">
        <ele>471.5</ele>
        <time>2022-10-30T10:32:51Z</time>
      </trkpt>
      <trkpt lat="43.21452" lon="6.3381">
        <ele>471.4</ele>
        <time>2022-10-30T10:33:02Z</time>
      </trkpt>
      <trkpt lat="43.21442" lon="6.33807">
        <ele>471.6</ele>
        <time>2022-10-30T10:33:14Z</time>
      </trkpt>
      <trkpt lat="43.21445" lon="6.338">
        <ele>471.7</ele>
        <time>2022-10-30T10:33:34Z</time>
      </trkpt>
      <trkpt lat="43.21445" lon="6.338">
        <ele>471.8</ele>
        <time>2022-10-30T10:33:35Z</time>
      </trkpt>
      <trkpt lat="43.21445" lon="6.338">
        <ele>472</ele>
        <time>2022-10-30T10:33:36Z</time>
      </trkpt>
      <trkpt lat="43.21445" lon="6.33799">
        <ele>472</ele>
        <time>2022-10-30T10:33:37Z</time>
      </trkpt>
      <trkpt lat="43.21446" lon="6.33798">
        <ele>472.1</ele>
        <time>2022-10-30T10:33:40Z</time>
      </trkpt>
      <trkpt lat="43.21446" lon="6.33798">
        <ele>472.1</ele>
        <time>2022-10-30T10:33:41Z</time>
      </trkpt>
      <trkpt lat="43.21436" lon="6.33798">
        <ele>471.6</ele>
        <time>2022-10-30T10:33:49Z</time>
      </trkpt>
      <trkpt lat="43.21428" lon="6.33803">
        <ele>470.9</ele>
        <time>2022-10-30T10:33:56Z</time>
      </trkpt>
      <trkpt lat="43.21419" lon="6.33801">
        <ele>470.7</ele>
        <time>2022-10-30T10:34:09Z</time>
      </trkpt>
      <trkpt lat="43.2142" lon="6.33813">
        <ele>470</ele>
        <time>2022-10-30T10:34:20Z</time>
      </trkpt>
      <trkpt lat="43.21416" lon="6.33816">
        <ele>469.5</ele>
        <time>2022-10-30T10:34:36Z</time>
      </trkpt>
      <trkpt lat="43.21416" lon="6.33816">
        <ele>469.5</ele>
        <time>2022-10-30T10:34:37Z</time>
      </trkpt>
      <trkpt lat="43.21406" lon="6.33816">
        <ele>468.7</ele>
        <time>2022-10-30T10:34:55Z</time>
      </trkpt>
      <trkpt lat="43.21396" lon="6.33821">
        <ele>468.7</ele>
        <time>2022-10-30T10:35:03Z</time>
      </trkpt>
      <trkpt lat="43.21387" lon="6.33817">
        <ele>467.9</ele>
        <time>2022-10-30T10:35:15Z</time>
      </trkpt>
      <trkpt lat="43.21378" lon="6.33819">
        <ele>467.4</ele>
        <time>2022-10-30T10:35:30Z</time>
      </trkpt>
      <trkpt lat="43.21375" lon="6.33815">
        <ele>466.9</ele>
        <time>2022-10-30T10:35:48Z</time>
      </trkpt>
      <trkpt lat="43.21375" lon="6.33814">
        <ele>466.9</ele>
        <time>2022-10-30T10:35:49Z</time>
      </trkpt>
      <trkpt lat="43.2138" lon="6.33804">
        <ele>465.5</ele>
        <time>2022-10-30T10:36:01Z</time>
      </trkpt>
      <trkpt lat="43.21377" lon="6.338">
        <ele>465.7</ele>
        <time>2022-10-30T10:36:16Z</time>
      </trkpt>
      <trkpt lat="43.21376" lon="6.33799">
        <ele>465.7</ele>
        <time>2022-10-30T10:36:17Z</time>
      </trkpt>
      <trkpt lat="43.21367" lon="6.33797">
        <ele>466.2</ele>
        <time>2022-10-30T10:36:21Z</time>
      </trkpt>
      <trkpt lat="43.21378" lon="6.33794">
        <ele>470.5</ele>
        <time>2022-10-30T10:37:22Z</time>
      </trkpt>
      <trkpt lat="43.21378" lon="6.33795">
        <ele>470.6</ele>
        <time>2022-10-30T10:37:24Z</time>
      </trkpt>
      <trkpt lat="43.21379" lon="6.33795">
        <ele>470.7</ele>
        <time>2022-10-30T10:37:25Z</time>
      </trkpt>
      <trkpt lat="43.21389" lon="6.33795">
        <ele>471</ele>
        <time>2022-10-30T10:37:29Z</time>
      </trkpt>
      <trkpt lat="43.21388" lon="6.33796">
        <ele>470.9</ele>
        <time>2022-10-30T10:37:32Z</time>
      </trkpt>
      <trkpt lat="43.21387" lon="6.33798">
        <ele>470.8</ele>
        <time>2022-10-30T10:37:34Z</time>
      </trkpt>
      <trkpt lat="43.21377" lon="6.33801">
        <ele>470.6</ele>
        <time>2022-10-30T10:37:41Z</time>
      </trkpt>
      <trkpt lat="43.21384" lon="6.33792">
        <ele>471</ele>
        <time>2022-10-30T10:37:59Z</time>
      </trkpt>
      <trkpt lat="43.21393" lon="6.33791">
        <ele>471.2</ele>
        <time>2022-10-30T10:38:24Z</time>
      </trkpt>
      <trkpt lat="43.21384" lon="6.33796">
        <ele>470.2</ele>
        <time>2022-10-30T10:38:33Z</time>
      </trkpt>
      <trkpt lat="43.21369" lon="6.33787">
        <ele>470</ele>
        <time>2022-10-30T10:39:07Z</time>
      </trkpt>
      <trkpt lat="43.21358" lon="6.33791">
        <ele>470.2</ele>
        <time>2022-10-30T10:39:10Z</time>
      </trkpt>
      <trkpt lat="43.21349" lon="6.33794">
        <ele>470.6</ele>
        <time>2022-10-30T10:39:17Z</time>
      </trkpt>
      <trkpt lat="43.2134" lon="6.33799">
        <ele>470.4</ele>
        <time>2022-10-30T10:39:19Z</time>
      </trkpt>
      <trkpt lat="43.21377" lon="6.33801">
        <ele>471</ele>
        <time>2022-10-30T10:39:42Z</time>
      </trkpt>
      <trkpt lat="43.2137" lon="6.33809">
        <ele>471.4</ele>
        <time>2022-10-30T10:40:08Z</time>
      </trkpt>
      <trkpt lat="43.21378" lon="6.33802">
        <ele>472.2</ele>
        <time>2022-10-30T10:40:17Z</time>
      </trkpt>
      <trkpt lat="43.2137" lon="6.33806">
        <ele>472.8</ele>
        <time>2022-10-30T10:40:45Z</time>
      </trkpt>
      <trkpt lat="43.2138" lon="6.33805">
        <ele>472.5</ele>
        <time>2022-10-30T10:40:48Z</time>
      </trkpt>
      <trkpt lat="43.21372" lon="6.33812">
        <ele>471.6</ele>
        <time>2022-10-30T10:41:01Z</time>
      </trkpt>
      <trkpt lat="43.21384" lon="6.33814">
        <ele>472.8</ele>
        <time>2022-10-30T10:41:12Z</time>
      </trkpt>
      <trkpt lat="43.21377" lon="6.33826">
        <ele>472.9</ele>
        <time>2022-10-30T10:41:21Z</time>
      </trkpt>
      <trkpt lat="43.21388" lon="6.33822">
        <ele>473.8</ele>
        <time>2022-10-30T10:41:29Z</time>
      </trkpt>
      <trkpt lat="43.214" lon="6.33814">
        <ele>473.7</ele>
        <time>2022-10-30T10:41:37Z</time>
      </trkpt>
      <trkpt lat="43.21393" lon="6.33805">
        <ele>473.9</ele>
        <time>2022-10-30T10:41:44Z</time>
      </trkpt>
      <trkpt lat="43.21383" lon="6.33803">
        <ele>472.7</ele>
        <time>2022-10-30T10:42:01Z</time>
      </trkpt>
      <trkpt lat="43.21383" lon="6.33802">
        <ele>472.4</ele>
        <time>2022-10-30T10:42:20Z</time>
      </trkpt>
      <trkpt lat="43.21383" lon="6.33801">
        <ele>472.5</ele>
        <time>2022-10-30T10:42:21Z</time>
      </trkpt>
      <trkpt lat="43.21383" lon="6.33801">
        <ele>472.7</ele>
        <time>2022-10-30T10:42:29Z</time>
      </trkpt>
      <trkpt lat="43.21383" lon="6.33801">
        <ele>472.8</ele>
        <time>2022-10-30T10:42:30Z</time>
      </trkpt>
      <trkpt lat="43.2138" lon="6.33802">
        <ele>474.2</ele>
        <time>2022-10-30T10:42:42Z</time>
      </trkpt>
      <trkpt lat="43.21381" lon="6.33802">
        <ele>474.2</ele>
        <time>2022-10-30T10:42:43Z</time>
      </trkpt>
      <trkpt lat="43.21382" lon="6.33804">
        <ele>474.2</ele>
        <time>2022-10-30T10:42:46Z</time>
      </trkpt>
      <trkpt lat="43.21383" lon="6.33803">
        <ele>474.1</ele>
        <time>2022-10-30T10:42:47Z</time>
      </trkpt>
      <trkpt lat="43.21382" lon="6.33803">
        <ele>474.1</ele>
        <time>2022-10-30T10:42:49Z</time>
      </trkpt>
      <trkpt lat="43.21382" lon="6.33803">
        <ele>473.9</ele>
        <time>2022-10-30T10:42:51Z</time>
      </trkpt>
      <trkpt lat="43.21382" lon="6.33803">
        <ele>473.8</ele>
        <time>2022-10-30T10:42:53Z</time>
      </trkpt>
      <trkpt lat="43.21381" lon="6.33803">
        <ele>473.8</ele>
        <time>2022-10-30T10:42:58Z</time>
      </trkpt>
      <trkpt lat="43.21381" lon="6.33803">
        <ele>473.8</ele>
        <time>2022-10-30T10:42:59Z</time>
      </trkpt>
      <trkpt lat="43.21382" lon="6.33802">
        <ele>473.7</ele>
        <time>2022-10-30T10:43:02Z</time>
      </trkpt>
      <trkpt lat="43.21382" lon="6.33802">
        <ele>473.5</ele>
        <time>2022-10-30T10:43:06Z</time>
      </trkpt>
      <trkpt lat="43.21382" lon="6.33801">
        <ele>473.5</ele>
        <time>2022-10-30T10:43:07Z</time>
      </trkpt>
      <trkpt lat="43.21382" lon="6.33801">
        <ele>473.5</ele>
        <time>2022-10-30T10:43:09Z</time>
      </trkpt>
      <trkpt lat="43.21382" lon="6.33801">
        <ele>473.5</ele>
        <time>2022-10-30T10:43:10Z</time>
      </trkpt>
      <trkpt lat="43.21381" lon="6.33801">
        <ele>473.4</ele>
        <time>2022-10-30T10:43:17Z</time>
      </trkpt>
      <trkpt lat="43.21382" lon="6.33801">
        <ele>473.4</ele>
        <time>2022-10-30T10:43:18Z</time>
      </trkpt>
      <trkpt lat="43.21384" lon="6.338">
        <ele>473.6</ele>
        <time>2022-10-30T10:43:27Z</time>
      </trkpt>
      <trkpt lat="43.21384" lon="6.338">
        <ele>473.6</ele>
        <time>2022-10-30T10:43:28Z</time>
      </trkpt>
      <trkpt lat="43.21383" lon="6.33802">
        <ele>473.6</ele>
        <time>2022-10-30T10:43:32Z</time>
      </trkpt>
      <trkpt lat="43.21381" lon="6.33802">
        <ele>473.6</ele>
        <time>2022-10-30T10:43:33Z</time>
      </trkpt>
      <trkpt lat="43.21382" lon="6.33799">
        <ele>473.3</ele>
        <time>2022-10-30T10:43:41Z</time>
      </trkpt>
      <trkpt lat="43.21382" lon="6.33799">
        <ele>473.2</ele>
        <time>2022-10-30T10:43:42Z</time>
      </trkpt>
      <trkpt lat="43.21391" lon="6.33802">
        <ele>472.6</ele>
        <time>2022-10-30T10:44:02Z</time>
      </trkpt>
      <trkpt lat="43.21391" lon="6.33802">
        <ele>472.6</ele>
        <time>2022-10-30T10:44:03Z</time>
      </trkpt>
      <trkpt lat="43.21391" lon="6.33802">
        <ele>472.6</ele>
        <time>2022-10-30T10:44:04Z</time>
      </trkpt>
      <trkpt lat="43.21382" lon="6.33799">
        <ele>472.7</ele>
        <time>2022-10-30T10:44:13Z</time>
      </trkpt>
      <trkpt lat="43.21392" lon="6.338">
        <ele>472.3</ele>
        <time>2022-10-30T10:44:35Z</time>
      </trkpt>
      <trkpt lat="43.21402" lon="6.33805">
        <ele>472.1</ele>
        <time>2022-10-30T10:44:48Z</time>
      </trkpt>
      <trkpt lat="43.21392" lon="6.33806">
        <ele>472.8</ele>
        <time>2022-10-30T10:45:02Z</time>
      </trkpt>
      <trkpt lat="43.21399" lon="6.338">
        <ele>472</ele>
        <time>2022-10-30T10:45:13Z</time>
      </trkpt>
      <trkpt lat="43.21398" lon="6.338">
        <ele>472</ele>
        <time>2022-10-30T10:45:14Z</time>
      </trkpt>
      <trkpt lat="43.21396" lon="6.33803">
        <ele>472.1</ele>
        <time>2022-10-30T10:45:23Z</time>
      </trkpt>
      <trkpt lat="43.21396" lon="6.33802">
        <ele>472.2</ele>
        <time>2022-10-30T10:45:24Z</time>
      </trkpt>
      <trkpt lat="43.21388" lon="6.33797">
        <ele>472.3</ele>
        <time>2022-10-30T10:45:31Z</time>
      </trkpt>
      <trkpt lat="43.21387" lon="6.33795">
        <ele>471.5</ele>
        <time>2022-10-30T10:45:40Z</time>
      </trkpt>
      <trkpt lat="43.21389" lon="6.33795">
        <ele>471.5</ele>
        <time>2022-10-30T10:45:41Z</time>
      </trkpt>
      <trkpt lat="43.21391" lon="6.33797">
        <ele>470.4</ele>
        <time>2022-10-30T10:46:03Z</time>
      </trkpt>
      <trkpt lat="43.2139" lon="6.33797">
        <ele>470.3</ele>
        <time>2022-10-30T10:46:04Z</time>
      </trkpt>
      <trkpt lat="43.21381" lon="6.338">
        <ele>471.6</ele>
        <time>2022-10-30T10:46:21Z</time>
      </trkpt>
      <trkpt lat="43.21387" lon="6.33796">
        <ele>470</ele>
        <time>2022-10-30T10:46:40Z</time>
      </trkpt>
      <trkpt lat="43.21386" lon="6.33796">
        <ele>470</ele>
        <time>2022-10-30T10:46:41Z</time>
      </trkpt>
      <trkpt lat="43.21396" lon="6.33794">
        <ele>468.5</ele>
        <time>2022-10-30T10:47:24Z</time>
      </trkpt>
      <trkpt lat="43.21385" lon="6.33795">
        <ele>468.6</ele>
        <time>2022-10-30T10:47:41Z</time>
      </trkpt>
      <trkpt lat="43.21377" lon="6.33799">
        <ele>468.5</ele>
        <time>2022-10-30T10:47:48Z</time>
      </trkpt>
      <trkpt lat="43.21375" lon="6.33798">
        <ele>468.1</ele>
        <time>2022-10-30T10:48:09Z</time>
      </trkpt>
      <trkpt lat="43.21376" lon="6.33798">
        <ele>468.1</ele>
        <time>2022-10-30T10:48:10Z</time>
      </trkpt>
      <trkpt lat="43.21376" lon="6.33798">
        <ele>468.2</ele>
        <time>2022-10-30T10:48:11Z</time>
      </trkpt>
      <trkpt lat="43.21375" lon="6.33797">
        <ele>468.2</ele>
        <time>2022-10-30T10:48:12Z</time>
      </trkpt>
      <trkpt lat="43.21386" lon="6.33798">
        <ele>467.6</ele>
        <time>2022-10-30T10:48:22Z</time>
      </trkpt>
      <trkpt lat="43.21377" lon="6.33796">
        <ele>466.6</ele>
        <time>2022-10-30T10:49:08Z</time>
      </trkpt>
      <trkpt lat="43.21387" lon="6.33803">
        <ele>466.3</ele>
        <time>2022-10-30T10:49:33Z</time>
      </trkpt>
      <trkpt lat="43.21383" lon="6.33803">
        <ele>464.8</ele>
        <time>2022-10-30T10:49:48Z</time>
      </trkpt>
      <trkpt lat="43.21384" lon="6.33803">
        <ele>464.8</ele>
        <time>2022-10-30T10:49:49Z</time>
      </trkpt>
      <trkpt lat="43.21379" lon="6.33801">
        <ele>464.3</ele>
        <time>2022-10-30T10:49:56Z</time>
      </trkpt>
      <trkpt lat="43.21379" lon="6.33801">
        <ele>464.4</ele>
        <time>2022-10-30T10:49:57Z</time>
      </trkpt>
      <trkpt lat="43.21387" lon="6.33794">
        <ele>464.1</ele>
        <time>2022-10-30T10:50:23Z</time>
      </trkpt>
      <trkpt lat="43.21391" lon="6.33795">
        <ele>464.9</ele>
        <time>2022-10-30T10:50:41Z</time>
      </trkpt>
      <trkpt lat="43.21391" lon="6.33795">
        <ele>464.9</ele>
        <time>2022-10-30T10:50:43Z</time>
      </trkpt>
      <trkpt lat="43.21382" lon="6.33798">
        <ele>467.5</ele>
        <time>2022-10-30T10:51:16Z</time>
      </trkpt>
      <trkpt lat="43.21381" lon="6.33795">
        <ele>470.8</ele>
        <time>2022-10-30T10:52:04Z</time>
      </trkpt>
      <trkpt lat="43.21381" lon="6.33795">
        <ele>470.9</ele>
        <time>2022-10-30T10:52:05Z</time>
      </trkpt>
      <trkpt lat="43.21371" lon="6.33795">
        <ele>470.3</ele>
        <time>2022-10-30T10:52:16Z</time>
      </trkpt>
      <trkpt lat="43.2138" lon="6.33795">
        <ele>468.3</ele>
        <time>2022-10-30T10:52:45Z</time>
      </trkpt>
      <trkpt lat="43.21384" lon="6.33795">
        <ele>468.7</ele>
        <time>2022-10-30T10:52:51Z</time>
      </trkpt>
      <trkpt lat="43.21384" lon="6.33795">
        <ele>468.6</ele>
        <time>2022-10-30T10:52:52Z</time>
      </trkpt>
      <trkpt lat="43.21383" lon="6.33796">
        <ele>468.8</ele>
        <time>2022-10-30T10:52:55Z</time>
      </trkpt>
      <trkpt lat="43.21384" lon="6.33796">
        <ele>468.9</ele>
        <time>2022-10-30T10:52:56Z</time>
      </trkpt>
      <trkpt lat="43.21393" lon="6.33793">
        <ele>469</ele>
        <time>2022-10-30T10:53:15Z</time>
      </trkpt>
      <trkpt lat="43.21389" lon="6.33797">
        <ele>467.7</ele>
        <time>2022-10-30T10:53:28Z</time>
      </trkpt>
      <trkpt lat="43.21388" lon="6.33798">
        <ele>467</ele>
        <time>2022-10-30T10:53:29Z</time>
      </trkpt>
      <trkpt lat="43.21397" lon="6.33799">
        <ele>465.8</ele>
        <time>2022-10-30T10:53:38Z</time>
      </trkpt>
      <trkpt lat="43.21398" lon="6.33799">
        <ele>466</ele>
        <time>2022-10-30T10:53:40Z</time>
      </trkpt>
      <trkpt lat="43.21398" lon="6.33799">
        <ele>466.1</ele>
        <time>2022-10-30T10:53:41Z</time>
      </trkpt>
      <trkpt lat="43.21397" lon="6.33798">
        <ele>466.3</ele>
        <time>2022-10-30T10:53:46Z</time>
      </trkpt>
      <trkpt lat="43.21397" lon="6.33798">
        <ele>466.2</ele>
        <time>2022-10-30T10:53:47Z</time>
      </trkpt>
      <trkpt lat="43.21387" lon="6.33798">
        <ele>467.1</ele>
        <time>2022-10-30T10:53:57Z</time>
      </trkpt>
      <trkpt lat="43.21392" lon="6.33797">
        <ele>466.7</ele>
        <time>2022-10-30T10:54:13Z</time>
      </trkpt>
      <trkpt lat="43.21392" lon="6.33797">
        <ele>466.7</ele>
        <time>2022-10-30T10:54:14Z</time>
      </trkpt>
      <trkpt lat="43.21391" lon="6.33796">
        <ele>466.6</ele>
        <time>2022-10-30T10:54:20Z</time>
      </trkpt>
      <trkpt lat="43.2139" lon="6.33795">
        <ele>466.5</ele>
        <time>2022-10-30T10:54:22Z</time>
      </trkpt>
      <trkpt lat="43.21377" lon="6.33797">
        <ele>466.2</ele>
        <time>2022-10-30T10:54:34Z</time>
      </trkpt>
      <trkpt lat="43.2137" lon="6.338">
        <ele>467</ele>
        <time>2022-10-30T10:54:55Z</time>
      </trkpt>
      <trkpt lat="43.2137" lon="6.338">
        <ele>466.9</ele>
        <time>2022-10-30T10:54:56Z</time>
      </trkpt>
      <trkpt lat="43.2138" lon="6.33798">
        <ele>466.4</ele>
        <time>2022-10-30T10:55:20Z</time>
      </trkpt>
      <trkpt lat="43.21383" lon="6.338">
        <ele>465.7</ele>
        <time>2022-10-30T10:55:54Z</time>
      </trkpt>
      <trkpt lat="43.21384" lon="6.338">
        <ele>465.8</ele>
        <time>2022-10-30T10:55:55Z</time>
      </trkpt>
      <trkpt lat="43.21374" lon="6.33801">
        <ele>465</ele>
        <time>2022-10-30T10:56:13Z</time>
      </trkpt>
      <trkpt lat="43.2138" lon="6.33799">
        <ele>465.2</ele>
        <time>2022-10-30T10:56:56Z</time>
      </trkpt>
      <trkpt lat="43.21379" lon="6.33799">
        <ele>465.3</ele>
        <time>2022-10-30T10:56:57Z</time>
      </trkpt>
      <trkpt lat="43.2138" lon="6.33799">
        <ele>465.3</ele>
        <time>2022-10-30T10:57:09Z</time>
      </trkpt>
      <trkpt lat="43.2138" lon="6.33799">
        <ele>465.3</ele>
        <time>2022-10-30T10:57:10Z</time>
      </trkpt>
      <trkpt lat="43.21371" lon="6.33797">
        <ele>465.5</ele>
        <time>2022-10-30T10:57:22Z</time>
      </trkpt>
      <trkpt lat="43.2138" lon="6.33797">
        <ele>465.7</ele>
        <time>2022-10-30T10:57:47Z</time>
      </trkpt>
      <trkpt lat="43.21382" lon="6.33798">
        <ele>465.9</ele>
        <time>2022-10-30T10:57:51Z</time>
      </trkpt>
      <trkpt lat="43.21382" lon="6.33798">
        <ele>466</ele>
        <time>2022-10-30T10:57:52Z</time>
      </trkpt>
      <trkpt lat="43.2138" lon="6.33794">
        <ele>464.3</ele>
        <time>2022-10-30T10:58:20Z</time>
      </trkpt>
      <trkpt lat="43.2138" lon="6.33794">
        <ele>464.3</ele>
        <time>2022-10-30T10:58:21Z</time>
      </trkpt>
      <trkpt lat="43.21389" lon="6.33796">
        <ele>464.2</ele>
        <time>2022-10-30T10:58:31Z</time>
      </trkpt>
      <trkpt lat="43.21388" lon="6.33798">
        <ele>464.5</ele>
        <time>2022-10-30T10:59:02Z</time>
      </trkpt>
      <trkpt lat="43.21388" lon="6.33798">
        <ele>464.4</ele>
        <time>2022-10-30T10:59:03Z</time>
      </trkpt>
      <trkpt lat="43.21399" lon="6.33798">
        <ele>464.7</ele>
        <time>2022-10-30T10:59:17Z</time>
      </trkpt>
      <trkpt lat="43.21408" lon="6.33797">
        <ele>464.8</ele>
        <time>2022-10-30T10:59:24Z</time>
      </trkpt>
      <trkpt lat="43.21399" lon="6.33795">
        <ele>464.8</ele>
        <time>2022-10-30T10:59:33Z</time>
      </trkpt>
      <trkpt lat="43.21404" lon="6.33792">
        <ele>465.8</ele>
        <time>2022-10-30T10:59:57Z</time>
      </trkpt>
      <trkpt lat="43.21406" lon="6.33793">
        <ele>465.7</ele>
        <time>2022-10-30T10:59:58Z</time>
      </trkpt>
      <trkpt lat="43.21395" lon="6.33797">
        <ele>465.6</ele>
        <time>2022-10-30T11:00:05Z</time>
      </trkpt>
      <trkpt lat="43.21385" lon="6.33792">
        <ele>464.8</ele>
        <time>2022-10-30T11:00:31Z</time>
      </trkpt>
      <trkpt lat="43.21376" lon="6.33792">
        <ele>465.5</ele>
        <time>2022-10-30T11:00:44Z</time>
      </trkpt>
      <trkpt lat="43.21386" lon="6.33791">
        <ele>466</ele>
        <time>2022-10-30T11:01:26Z</time>
      </trkpt>
      <trkpt lat="43.21387" lon="6.33796">
        <ele>466.8</ele>
        <time>2022-10-30T11:02:08Z</time>
      </trkpt>
      <trkpt lat="43.21387" lon="6.33796">
        <ele>466.9</ele>
        <time>2022-10-30T11:02:09Z</time>
      </trkpt>
      <trkpt lat="43.21389" lon="6.33794">
        <ele>466.6</ele>
        <time>2022-10-30T11:02:20Z</time>
      </trkpt>
      <trkpt lat="43.21389" lon="6.33794">
        <ele>466.6</ele>
        <time>2022-10-30T11:02:21Z</time>
      </trkpt>
      <trkpt lat="43.21389" lon="6.33794">
        <ele>466.6</ele>
        <time>2022-10-30T11:02:22Z</time>
      </trkpt>
      <trkpt lat="43.21389" lon="6.33794">
        <ele>466.5</ele>
        <time>2022-10-30T11:02:23Z</time>
      </trkpt>
      <trkpt lat="43.21389" lon="6.33794">
        <ele>466.4</ele>
        <time>2022-10-30T11:02:25Z</time>
      </trkpt>
      <trkpt lat="43.21388" lon="6.33795">
        <ele>466.2</ele>
        <time>2022-10-30T11:02:26Z</time>
      </trkpt>
      <trkpt lat="43.21387" lon="6.33795">
        <ele>466.1</ele>
        <time>2022-10-30T11:02:28Z</time>
      </trkpt>
      <trkpt lat="43.21387" lon="6.33795">
        <ele>466.1</ele>
        <time>2022-10-30T11:02:30Z</time>
      </trkpt>
      <trkpt lat="43.21387" lon="6.33795">
        <ele>466</ele>
        <time>2022-10-30T11:02:34Z</time>
      </trkpt>
      <trkpt lat="43.21387" lon="6.33795">
        <ele>466</ele>
        <time>2022-10-30T11:02:35Z</time>
      </trkpt>
      <trkpt lat="43.21388" lon="6.33795">
        <ele>465.5</ele>
        <time>2022-10-30T11:02:41Z</time>
      </trkpt>
      <trkpt lat="43.21388" lon="6.33795">
        <ele>465.3</ele>
        <time>2022-10-30T11:02:45Z</time>
      </trkpt>
      <trkpt lat="43.21388" lon="6.33795">
        <ele>465.4</ele>
        <time>2022-10-30T11:02:46Z</time>
      </trkpt>
      <trkpt lat="43.21387" lon="6.33796">
        <ele>465.1</ele>
        <time>2022-10-30T11:02:50Z</time>
      </trkpt>
      <trkpt lat="43.21378" lon="6.338">
        <ele>465.9</ele>
        <time>2022-10-30T11:03:10Z</time>
      </trkpt>
      <trkpt lat="43.21369" lon="6.33798">
        <ele>465.6</ele>
        <time>2022-10-30T11:03:21Z</time>
      </trkpt>
      <trkpt lat="43.21374" lon="6.33793">
        <ele>465.7</ele>
        <time>2022-10-30T11:03:28Z</time>
      </trkpt>
      <trkpt lat="43.21374" lon="6.33793">
        <ele>465.7</ele>
        <time>2022-10-30T11:03:29Z</time>
      </trkpt>
      <trkpt lat="43.21364" lon="6.33795">
        <ele>466.4</ele>
        <time>2022-10-30T11:03:40Z</time>
      </trkpt>
      <trkpt lat="43.21373" lon="6.33795">
        <ele>466</ele>
        <time>2022-10-30T11:03:53Z</time>
      </trkpt>
      <trkpt lat="43.21363" lon="6.33801">
        <ele>466</ele>
        <time>2022-10-30T11:04:12Z</time>
      </trkpt>
      <trkpt lat="43.21373" lon="6.33799">
        <ele>465.8</ele>
        <time>2022-10-30T11:04:17Z</time>
      </trkpt>
      <trkpt lat="43.21375" lon="6.33798">
        <ele>465.7</ele>
        <time>2022-10-30T11:04:19Z</time>
      </trkpt>
      <trkpt lat="43.21376" lon="6.33799">
        <ele>465.7</ele>
        <time>2022-10-30T11:04:20Z</time>
      </trkpt>
      <trkpt lat="43.21366" lon="6.33798">
        <ele>466.3</ele>
        <time>2022-10-30T11:04:24Z</time>
      </trkpt>
      <trkpt lat="43.21356" lon="6.33798">
        <ele>467</ele>
        <time>2022-10-30T11:04:30Z</time>
      </trkpt>
      <trkpt lat="43.21346" lon="6.33797">
        <ele>466.7</ele>
        <time>2022-10-30T11:04:34Z</time>
      </trkpt>
      <trkpt lat="43.21357" lon="6.33798">
        <ele>466.6</ele>
        <time>2022-10-30T11:04:41Z</time>
      </trkpt>
      <trkpt lat="43.21367" lon="6.33801">
        <ele>467.5</ele>
        <time>2022-10-30T11:04:51Z</time>
      </trkpt>
      <trkpt lat="43.21366" lon="6.33797">
        <ele>469.1</ele>
        <time>2022-10-30T11:05:08Z</time>
      </trkpt>
      <trkpt lat="43.21366" lon="6.33798">
        <ele>469.2</ele>
        <time>2022-10-30T11:05:09Z</time>
      </trkpt>
      <trkpt lat="43.21377" lon="6.33796">
        <ele>469.3</ele>
        <time>2022-10-30T11:05:29Z</time>
      </trkpt>
      <trkpt lat="43.21382" lon="6.33796">
        <ele>469.1</ele>
        <time>2022-10-30T11:05:36Z</time>
      </trkpt>
      <trkpt lat="43.21382" lon="6.33796">
        <ele>469.1</ele>
        <time>2022-10-30T11:05:40Z</time>
      </trkpt>
      <trkpt lat="43.21382" lon="6.33796">
        <ele>469.1</ele>
        <time>2022-10-30T11:05:41Z</time>
      </trkpt>
      <trkpt lat="43.21382" lon="6.33796">
        <ele>469.1</ele>
        <time>2022-10-30T11:05:48Z</time>
      </trkpt>
      <trkpt lat="43.21382" lon="6.33796">
        <ele>469.1</ele>
        <time>2022-10-30T11:05:49Z</time>
      </trkpt>
      <trkpt lat="43.21382" lon="6.33796">
        <ele>469.1</ele>
        <time>2022-10-30T11:05:50Z</time>
      </trkpt>
      <trkpt lat="43.21382" lon="6.33795">
        <ele>469.1</ele>
        <time>2022-10-30T11:05:51Z</time>
      </trkpt>
      <trkpt lat="43.21383" lon="6.33797">
        <ele>469</ele>
        <time>2022-10-30T11:06:00Z</time>
      </trkpt>
      <trkpt lat="43.2139" lon="6.33799">
        <ele>470.1</ele>
        <time>2022-10-30T11:06:07Z</time>
      </trkpt>
      <trkpt lat="43.2139" lon="6.33799">
        <ele>470</ele>
        <time>2022-10-30T11:06:11Z</time>
      </trkpt>
      <trkpt lat="43.21389" lon="6.33799">
        <ele>470.6</ele>
        <time>2022-10-30T11:06:17Z</time>
      </trkpt>
      <trkpt lat="43.21389" lon="6.33799">
        <ele>470.5</ele>
        <time>2022-10-30T11:06:32Z</time>
      </trkpt>
      <trkpt lat="43.21388" lon="6.33798">
        <ele>470.3</ele>
        <time>2022-10-30T11:06:35Z</time>
      </trkpt>
      <trkpt lat="43.21388" lon="6.33798">
        <ele>470.2</ele>
        <time>2022-10-30T11:06:57Z</time>
      </trkpt>
      <trkpt lat="43.21388" lon="6.33798">
        <ele>470.2</ele>
        <time>2022-10-30T11:06:58Z</time>
      </trkpt>
      <trkpt lat="43.21388" lon="6.33798">
        <ele>470</ele>
        <time>2022-10-30T11:07:04Z</time>
      </trkpt>
      <trkpt lat="43.21388" lon="6.33798">
        <ele>470.1</ele>
        <time>2022-10-30T11:07:05Z</time>
      </trkpt>
      <trkpt lat="43.21387" lon="6.33797">
        <ele>470.2</ele>
        <time>2022-10-30T11:07:06Z</time>
      </trkpt>
      <trkpt lat="43.21387" lon="6.33797">
        <ele>470.3</ele>
        <time>2022-10-30T11:07:09Z</time>
      </trkpt>
      <trkpt lat="43.21387" lon="6.33797">
        <ele>470.2</ele>
        <time>2022-10-30T11:07:34Z</time>
      </trkpt>
      <trkpt lat="43.21387" lon="6.33797">
        <ele>470.2</ele>
        <time>2022-10-30T11:07:35Z</time>
      </trkpt>
      <trkpt lat="43.21386" lon="6.33797">
        <ele>470</ele>
        <time>2022-10-30T11:08:05Z</time>
      </trkpt>
      <trkpt lat="43.21384" lon="6.33798">
        <ele>469.5</ele>
        <time>2022-10-30T11:08:08Z</time>
      </trkpt>
      <trkpt lat="43.21384" lon="6.33798">
        <ele>469.5</ele>
        <time>2022-10-30T11:08:09Z</time>
      </trkpt>
      <trkpt lat="43.21384" lon="6.33798">
        <ele>469.5</ele>
        <time>2022-10-30T11:08:10Z</time>
      </trkpt>
      <trkpt lat="43.21385" lon="6.33798">
        <ele>469.2</ele>
        <time>2022-10-30T11:08:46Z</time>
      </trkpt>
      <trkpt lat="43.21386" lon="6.33798">
        <ele>469.4</ele>
        <time>2022-10-30T11:08:51Z</time>
      </trkpt>
      <trkpt lat="43.21386" lon="6.33798">
        <ele>469.4</ele>
        <time>2022-10-30T11:09:34Z</time>
      </trkpt>
      <trkpt lat="43.21386" lon="6.33798">
        <ele>469.4</ele>
        <time>2022-10-30T11:09:35Z</time>
      </trkpt>
      <trkpt lat="43.21386" lon="6.33797">
        <ele>469.3</ele>
        <time>2022-10-30T11:09:39Z</time>
      </trkpt>
      <trkpt lat="43.21384" lon="6.33798">
        <ele>469.4</ele>
        <time>2022-10-30T11:09:46Z</time>
      </trkpt>
      <trkpt lat="43.21384" lon="6.33798">
        <ele>469.4</ele>
        <time>2022-10-30T11:09:54Z</time>
      </trkpt>
      <trkpt lat="43.21384" lon="6.33798">
        <ele>469.4</ele>
        <time>2022-10-30T11:09:55Z</time>
      </trkpt>
      <trkpt lat="43.21384" lon="6.33798">
        <ele>469.4</ele>
        <time>2022-10-30T11:10:14Z</time>
      </trkpt>
      <trkpt lat="43.21386" lon="6.33798">
        <ele>469.6</ele>
        <time>2022-10-30T11:10:19Z</time>
      </trkpt>
      <trkpt lat="43.21386" lon="6.33798">
        <ele>469.7</ele>
        <time>2022-10-30T11:10:20Z</time>
      </trkpt>
      <trkpt lat="43.21389" lon="6.33798">
        <ele>469.9</ele>
        <time>2022-10-30T11:10:29Z</time>
      </trkpt>
      <trkpt lat="43.21389" lon="6.33798">
        <ele>469.9</ele>
        <time>2022-10-30T11:10:30Z</time>
      </trkpt>
      <trkpt lat="43.2139" lon="6.33799">
        <ele>468.8</ele>
        <time>2022-10-30T11:10:38Z</time>
      </trkpt>
      <trkpt lat="43.2139" lon="6.33799">
        <ele>468.7</ele>
        <time>2022-10-30T11:10:39Z</time>
      </trkpt>
      <trkpt lat="43.21388" lon="6.338">
        <ele>469.1</ele>
        <time>2022-10-30T11:10:50Z</time>
      </trkpt>
      <trkpt lat="43.21388" lon="6.338">
        <ele>469.3</ele>
        <time>2022-10-30T11:10:51Z</time>
      </trkpt>
      <trkpt lat="43.21388" lon="6.338">
        <ele>469.4</ele>
        <time>2022-10-30T11:10:52Z</time>
      </trkpt>
      <trkpt lat="43.21388" lon="6.338">
        <ele>469.4</ele>
        <time>2022-10-30T11:10:53Z</time>
      </trkpt>
      <trkpt lat="43.21391" lon="6.33799">
        <ele>470</ele>
        <time>2022-10-30T11:11:00Z</time>
      </trkpt>
      <trkpt lat="43.21391" lon="6.33799">
        <ele>470.1</ele>
        <time>2022-10-30T11:11:01Z</time>
      </trkpt>
      <trkpt lat="43.21391" lon="6.33799">
        <ele>470.3</ele>
        <time>2022-10-30T11:11:02Z</time>
      </trkpt>
      <trkpt lat="43.21391" lon="6.33799">
        <ele>470.2</ele>
        <time>2022-10-30T11:11:04Z</time>
      </trkpt>
      <trkpt lat="43.2139" lon="6.33798">
        <ele>470.2</ele>
        <time>2022-10-30T11:11:07Z</time>
      </trkpt>
      <trkpt lat="43.21391" lon="6.33798">
        <ele>470.2</ele>
        <time>2022-10-30T11:11:08Z</time>
      </trkpt>
      <trkpt lat="43.21391" lon="6.33798">
        <ele>471.2</ele>
        <time>2022-10-30T11:11:16Z</time>
      </trkpt>
      <trkpt lat="43.21391" lon="6.33798">
        <ele>471.5</ele>
        <time>2022-10-30T11:11:17Z</time>
      </trkpt>
      <trkpt lat="43.21391" lon="6.33798">
        <ele>472.1</ele>
        <time>2022-10-30T11:11:19Z</time>
      </trkpt>
      <trkpt lat="43.21391" lon="6.33798">
        <ele>472.3</ele>
        <time>2022-10-30T11:11:20Z</time>
      </trkpt>
      <trkpt lat="43.21402" lon="6.33802">
        <ele>473.5</ele>
        <time>2022-10-30T11:11:32Z</time>
      </trkpt>
      <trkpt lat="43.21393" lon="6.33803">
        <ele>474.9</ele>
        <time>2022-10-30T11:11:48Z</time>
      </trkpt>
      <trkpt lat="43.21384" lon="6.33804">
        <ele>474.3</ele>
        <time>2022-10-30T11:11:57Z</time>
      </trkpt>
      <trkpt lat="43.21384" lon="6.33804">
        <ele>474.2</ele>
        <time>2022-10-30T11:11:58Z</time>
      </trkpt>
      <trkpt lat="43.21385" lon="6.33804">
        <ele>474.2</ele>
        <time>2022-10-30T11:11:59Z</time>
      </trkpt>
      <trkpt lat="43.21379" lon="6.338">
        <ele>474.5</ele>
        <time>2022-10-30T11:12:31Z</time>
      </trkpt>
      <trkpt lat="43.21378" lon="6.338">
        <ele>474.4</ele>
        <time>2022-10-30T11:12:32Z</time>
      </trkpt>
      <trkpt lat="43.21378" lon="6.338">
        <ele>474.3</ele>
        <time>2022-10-30T11:12:33Z</time>
      </trkpt>
      <trkpt lat="43.21379" lon="6.338">
        <ele>474.3</ele>
        <time>2022-10-30T11:12:34Z</time>
      </trkpt>
      <trkpt lat="43.2138" lon="6.338">
        <ele>474.3</ele>
        <time>2022-10-30T11:12:37Z</time>
      </trkpt>
      <trkpt lat="43.2138" lon="6.338">
        <ele>474.4</ele>
        <time>2022-10-30T11:12:38Z</time>
      </trkpt>
      <trkpt lat="43.21378" lon="6.33802">
        <ele>474.8</ele>
        <time>2022-10-30T11:12:52Z</time>
      </trkpt>
      <trkpt lat="43.21378" lon="6.33802">
        <ele>474.9</ele>
        <time>2022-10-30T11:12:53Z</time>
      </trkpt>
      <trkpt lat="43.21368" lon="6.33804">
        <ele>474.9</ele>
        <time>2022-10-30T11:13:07Z</time>
      </trkpt>
      <trkpt lat="43.21377" lon="6.338">
        <ele>474.5</ele>
        <time>2022-10-30T11:13:26Z</time>
      </trkpt>
      <trkpt lat="43.21377" lon="6.338">
        <ele>474.2</ele>
        <time>2022-10-30T11:13:31Z</time>
      </trkpt>
      <trkpt lat="43.21377" lon="6.338">
        <ele>474.2</ele>
        <time>2022-10-30T11:13:32Z</time>
      </trkpt>
      <trkpt lat="43.21375" lon="6.338">
        <ele>474</ele>
        <time>2022-10-30T11:13:39Z</time>
      </trkpt>
      <trkpt lat="43.21375" lon="6.33801">
        <ele>473.8</ele>
        <time>2022-10-30T11:13:41Z</time>
      </trkpt>
      <trkpt lat="43.21373" lon="6.33801">
        <ele>473.6</ele>
        <time>2022-10-30T11:13:48Z</time>
      </trkpt>
      <trkpt lat="43.21373" lon="6.33801">
        <ele>473.7</ele>
        <time>2022-10-30T11:13:49Z</time>
      </trkpt>
      <trkpt lat="43.21364" lon="6.33802">
        <ele>473.7</ele>
        <time>2022-10-30T11:13:59Z</time>
      </trkpt>
      <trkpt lat="43.21363" lon="6.33802">
        <ele>473.9</ele>
        <time>2022-10-30T11:14:06Z</time>
      </trkpt>
      <trkpt lat="43.21363" lon="6.33802">
        <ele>474</ele>
        <time>2022-10-30T11:14:07Z</time>
      </trkpt>
      <trkpt lat="43.21374" lon="6.338">
        <ele>473.4</ele>
        <time>2022-10-30T11:14:17Z</time>
      </trkpt>
      <trkpt lat="43.21381" lon="6.33802">
        <ele>472</ele>
        <time>2022-10-30T11:14:35Z</time>
      </trkpt>
      <trkpt lat="43.21382" lon="6.33802">
        <ele>472</ele>
        <time>2022-10-30T11:14:36Z</time>
      </trkpt>
      <trkpt lat="43.21382" lon="6.33802">
        <ele>472</ele>
        <time>2022-10-30T11:14:37Z</time>
      </trkpt>
      <trkpt lat="43.21381" lon="6.33802">
        <ele>472.1</ele>
        <time>2022-10-30T11:14:38Z</time>
      </trkpt>
      <trkpt lat="43.21377" lon="6.33803">
        <ele>472.4</ele>
        <time>2022-10-30T11:14:45Z</time>
      </trkpt>
      <trkpt lat="43.21378" lon="6.33803">
        <ele>472.4</ele>
        <time>2022-10-30T11:14:46Z</time>
      </trkpt>
      <trkpt lat="43.21378" lon="6.33801">
        <ele>473.1</ele>
        <time>2022-10-30T11:14:53Z</time>
      </trkpt>
      <trkpt lat="43.21378" lon="6.33801">
        <ele>473.3</ele>
        <time>2022-10-30T11:14:54Z</time>
      </trkpt>
      <trkpt lat="43.2138" lon="6.33801">
        <ele>473.8</ele>
        <time>2022-10-30T11:15:02Z</time>
      </trkpt>
      <trkpt lat="43.2138" lon="6.33801">
        <ele>473.8</ele>
        <time>2022-10-30T11:15:03Z</time>
      </trkpt>
      <trkpt lat="43.2138" lon="6.33801">
        <ele>473.9</ele>
        <time>2022-10-30T11:15:04Z</time>
      </trkpt>
      <trkpt lat="43.21379" lon="6.33801">
        <ele>474</ele>
        <time>2022-10-30T11:15:06Z</time>
      </trkpt>
      <trkpt lat="43.21378" lon="6.33801">
        <ele>474.6</ele>
        <time>2022-10-30T11:15:10Z</time>
      </trkpt>
      <trkpt lat="43.21378" lon="6.33801">
        <ele>474.8</ele>
        <time>2022-10-30T11:15:11Z</time>
      </trkpt>
      <trkpt lat="43.2138" lon="6.33801">
        <ele>473</ele>
        <time>2022-10-30T11:15:17Z</time>
      </trkpt>
      <trkpt lat="43.21381" lon="6.338">
        <ele>472.5</ele>
        <time>2022-10-30T11:15:18Z</time>
      </trkpt>
      <trkpt lat="43.21387" lon="6.33797">
        <ele>472.8</ele>
        <time>2022-10-30T11:15:27Z</time>
      </trkpt>
      <trkpt lat="43.21387" lon="6.33796">
        <ele>472.6</ele>
        <time>2022-10-30T11:15:29Z</time>
      </trkpt>
      <trkpt lat="43.21387" lon="6.33796">
        <ele>472.6</ele>
        <time>2022-10-30T11:15:30Z</time>
      </trkpt>
      <trkpt lat="43.21387" lon="6.33795">
        <ele>472.6</ele>
        <time>2022-10-30T11:15:31Z</time>
      </trkpt>
      <trkpt lat="43.21387" lon="6.33795">
        <ele>472.6</ele>
        <time>2022-10-30T11:15:32Z</time>
      </trkpt>
      <trkpt lat="43.21388" lon="6.33795">
        <ele>472.6</ele>
        <time>2022-10-30T11:15:33Z</time>
      </trkpt>
      <trkpt lat="43.21388" lon="6.33795">
        <ele>472.6</ele>
        <time>2022-10-30T11:15:34Z</time>
      </trkpt>
      <trkpt lat="43.21388" lon="6.33795">
        <ele>472.9</ele>
        <time>2022-10-30T11:15:37Z</time>
      </trkpt>
      <trkpt lat="43.21388" lon="6.33795">
        <ele>472.9</ele>
        <time>2022-10-30T11:15:38Z</time>
      </trkpt>
      <trkpt lat="43.21388" lon="6.33794">
        <ele>473</ele>
        <time>2022-10-30T11:15:40Z</time>
      </trkpt>
      <trkpt lat="43.21388" lon="6.33795">
        <ele>473</ele>
        <time>2022-10-30T11:15:41Z</time>
      </trkpt>
      <trkpt lat="43.21388" lon="6.33794">
        <ele>472.9</ele>
        <time>2022-10-30T11:15:43Z</time>
      </trkpt>
      <trkpt lat="43.21388" lon="6.33794">
        <ele>472.9</ele>
        <time>2022-10-30T11:15:44Z</time>
      </trkpt>
      <trkpt lat="43.21388" lon="6.33794">
        <ele>472.9</ele>
        <time>2022-10-30T11:15:49Z</time>
      </trkpt>
      <trkpt lat="43.21387" lon="6.33794">
        <ele>472.5</ele>
        <time>2022-10-30T11:15:51Z</time>
      </trkpt>
      <trkpt lat="43.21388" lon="6.33794">
        <ele>472.2</ele>
        <time>2022-10-30T11:16:06Z</time>
      </trkpt>
      <trkpt lat="43.21388" lon="6.33794">
        <ele>472.2</ele>
        <time>2022-10-30T11:16:07Z</time>
      </trkpt>
      <trkpt lat="43.21388" lon="6.33794">
        <ele>472.1</ele>
        <time>2022-10-30T11:16:26Z</time>
      </trkpt>
      <trkpt lat="43.21388" lon="6.33794">
        <ele>472.1</ele>
        <time>2022-10-30T11:16:27Z</time>
      </trkpt>
      <trkpt lat="43.21387" lon="6.33794">
        <ele>472</ele>
        <time>2022-10-30T11:16:30Z</time>
      </trkpt>
      <trkpt lat="43.21387" lon="6.33794">
        <ele>472</ele>
        <time>2022-10-30T11:16:31Z</time>
      </trkpt>
      <trkpt lat="43.21388" lon="6.33795">
        <ele>471.9</ele>
        <time>2022-10-30T11:16:50Z</time>
      </trkpt>
      <trkpt lat="43.21388" lon="6.33795">
        <ele>471.9</ele>
        <time>2022-10-30T11:16:51Z</time>
      </trkpt>
      <trkpt lat="43.21388" lon="6.33795">
        <ele>471.9</ele>
        <time>2022-10-30T11:16:57Z</time>
      </trkpt>
      <trkpt lat="43.21388" lon="6.33795">
        <ele>471.9</ele>
        <time>2022-10-30T11:16:58Z</time>
      </trkpt>
      <trkpt lat="43.21388" lon="6.33795">
        <ele>471.9</ele>
        <time>2022-10-30T11:16:59Z</time>
      </trkpt>
      <trkpt lat="43.21388" lon="6.33795">
        <ele>471.9</ele>
        <time>2022-10-30T11:17:00Z</time>
      </trkpt>
      <trkpt lat="43.21388" lon="6.33795">
        <ele>472</ele>
        <time>2022-10-30T11:17:05Z</time>
      </trkpt>
      <trkpt lat="43.21387" lon="6.33795">
        <ele>472.9</ele>
        <time>2022-10-30T11:17:10Z</time>
      </trkpt>
      <trkpt lat="43.21388" lon="6.33795">
        <ele>472.8</ele>
        <time>2022-10-30T11:17:16Z</time>
      </trkpt>
      <trkpt lat="43.21388" lon="6.33795">
        <ele>472.8</ele>
        <time>2022-10-30T11:17:17Z</time>
      </trkpt>
      <trkpt lat="43.21388" lon="6.33795">
        <ele>472.7</ele>
        <time>2022-10-30T11:17:20Z</time>
      </trkpt>
      <trkpt lat="43.21388" lon="6.33795">
        <ele>472.7</ele>
        <time>2022-10-30T11:17:21Z</time>
      </trkpt>
      <trkpt lat="43.21388" lon="6.33795">
        <ele>472.5</ele>
        <time>2022-10-30T11:17:27Z</time>
      </trkpt>
      <trkpt lat="43.21388" lon="6.33795">
        <ele>472.5</ele>
        <time>2022-10-30T11:17:28Z</time>
      </trkpt>
      <trkpt lat="43.21388" lon="6.33795">
        <ele>472.4</ele>
        <time>2022-10-30T11:17:29Z</time>
      </trkpt>
      <trkpt lat="43.21388" lon="6.33795">
        <ele>472.2</ele>
        <time>2022-10-30T11:17:31Z</time>
      </trkpt>
      <trkpt lat="43.21388" lon="6.33795">
        <ele>472.2</ele>
        <time>2022-10-30T11:17:37Z</time>
      </trkpt>
      <trkpt lat="43.2139" lon="6.33796">
        <ele>472.8</ele>
        <time>2022-10-30T11:17:45Z</time>
      </trkpt>
      <trkpt lat="43.21389" lon="6.33796">
        <ele>472.5</ele>
        <time>2022-10-30T11:17:52Z</time>
      </trkpt>
      <trkpt lat="43.2139" lon="6.33796">
        <ele>472.4</ele>
        <time>2022-10-30T11:17:54Z</time>
      </trkpt>
      <trkpt lat="43.2139" lon="6.33796">
        <ele>472.6</ele>
        <time>2022-10-30T11:17:59Z</time>
      </trkpt>
      <trkpt lat="43.2139" lon="6.33796">
        <ele>472.6</ele>
        <time>2022-10-30T11:18:00Z</time>
      </trkpt>
      <trkpt lat="43.2139" lon="6.33796">
        <ele>473</ele>
        <time>2022-10-30T11:18:15Z</time>
      </trkpt>
      <trkpt lat="43.2139" lon="6.33796">
        <ele>473</ele>
        <time>2022-10-30T11:18:16Z</time>
      </trkpt>
      <trkpt lat="43.2139" lon="6.33796">
        <ele>473.2</ele>
        <time>2022-10-30T11:18:21Z</time>
      </trkpt>
      <trkpt lat="43.2139" lon="6.33796">
        <ele>473.2</ele>
        <time>2022-10-30T11:18:23Z</time>
      </trkpt>
      <trkpt lat="43.2139" lon="6.33796">
        <ele>473.2</ele>
        <time>2022-10-30T11:18:24Z</time>
      </trkpt>
      <trkpt lat="43.2139" lon="6.33796">
        <ele>473.2</ele>
        <time>2022-10-30T11:18:25Z</time>
      </trkpt>
      <trkpt lat="43.2139" lon="6.33796">
        <ele>472.3</ele>
        <time>2022-10-30T11:20:43Z</time>
      </trkpt>
      <trkpt lat="43.2139" lon="6.33796">
        <ele>472.3</ele>
        <time>2022-10-30T11:20:44Z</time>
      </trkpt>
      <trkpt lat="43.2139" lon="6.33797">
        <ele>471.9</ele>
        <time>2022-10-30T11:21:41Z</time>
      </trkpt>
      <trkpt lat="43.2139" lon="6.33797">
        <ele>471.9</ele>
        <time>2022-10-30T11:21:42Z</time>
      </trkpt>
      <trkpt lat="43.2139" lon="6.33797">
        <ele>471.7</ele>
        <time>2022-10-30T11:22:26Z</time>
      </trkpt>
      <trkpt lat="43.2139" lon="6.33797">
        <ele>471.6</ele>
        <time>2022-10-30T11:22:27Z</time>
      </trkpt>
      <trkpt lat="43.2139" lon="6.33797">
        <ele>471.4</ele>
        <time>2022-10-30T11:23:59Z</time>
      </trkpt>
      <trkpt lat="43.2139" lon="6.33797">
        <ele>471.4</ele>
        <time>2022-10-30T11:24:00Z</time>
      </trkpt>
      <trkpt lat="43.2139" lon="6.33797">
        <ele>471.3</ele>
        <time>2022-10-30T11:24:17Z</time>
      </trkpt>
      <trkpt lat="43.2139" lon="6.33797">
        <ele>471.3</ele>
        <time>2022-10-30T11:24:18Z</time>
      </trkpt>
      <trkpt lat="43.2139" lon="6.33797">
        <ele>471</ele>
        <time>2022-10-30T11:24:33Z</time>
      </trkpt>
      <trkpt lat="43.2139" lon="6.33797">
        <ele>470.9</ele>
        <time>2022-10-30T11:24:34Z</time>
      </trkpt>
      <trkpt lat="43.2139" lon="6.33797">
        <ele>470.6</ele>
        <time>2022-10-30T11:26:09Z</time>
      </trkpt>
      <trkpt lat="43.2139" lon="6.33797">
        <ele>470.6</ele>
        <time>2022-10-30T11:26:10Z</time>
      </trkpt>
      <trkpt lat="43.2139" lon="6.33797">
        <ele>470.5</ele>
        <time>2022-10-30T11:26:26Z</time>
      </trkpt>
      <trkpt lat="43.2139" lon="6.33797">
        <ele>470.5</ele>
        <time>2022-10-30T11:26:27Z</time>
      </trkpt>
      <trkpt lat="43.21389" lon="6.33796">
        <ele>470.3</ele>
        <time>2022-10-30T11:28:47Z</time>
      </trkpt>
      <trkpt lat="43.21389" lon="6.33796">
        <ele>470.3</ele>
        <time>2022-10-30T11:28:48Z</time>
      </trkpt>
      <trkpt lat="43.2139" lon="6.33796">
        <ele>470.3</ele>
        <time>2022-10-30T11:29:05Z</time>
      </trkpt>
      <trkpt lat="43.2139" lon="6.33796">
        <ele>470.2</ele>
        <time>2022-10-30T11:29:06Z</time>
      </trkpt>
      <trkpt lat="43.21389" lon="6.33796">
        <ele>470.1</ele>
        <time>2022-10-30T11:29:40Z</time>
      </trkpt>
      <trkpt lat="43.21389" lon="6.33796">
        <ele>470.1</ele>
        <time>2022-10-30T11:29:41Z</time>
      </trkpt>
      <trkpt lat="43.2139" lon="6.33796">
        <ele>469.8</ele>
        <time>2022-10-30T11:30:12Z</time>
      </trkpt>
      <trkpt lat="43.2139" lon="6.33796">
        <ele>469.7</ele>
        <time>2022-10-30T11:30:13Z</time>
      </trkpt>
      <trkpt lat="43.21389" lon="6.33796">
        <ele>469.4</ele>
        <time>2022-10-30T11:31:38Z</time>
      </trkpt>
      <trkpt lat="43.21389" lon="6.33796">
        <ele>469.4</ele>
        <time>2022-10-30T11:31:39Z</time>
      </trkpt>
      <trkpt lat="43.21389" lon="6.33796">
        <ele>469.2</ele>
        <time>2022-10-30T11:32:28Z</time>
      </trkpt>
      <trkpt lat="43.21389" lon="6.33796">
        <ele>469.1</ele>
        <time>2022-10-30T11:32:29Z</time>
      </trkpt>
      <trkpt lat="43.21389" lon="6.33796">
        <ele>469</ele>
        <time>2022-10-30T11:32:30Z</time>
      </trkpt>
      <trkpt lat="43.21389" lon="6.33796">
        <ele>469</ele>
        <time>2022-10-30T11:32:31Z</time>
      </trkpt>
      <trkpt lat="43.21389" lon="6.33796">
        <ele>468.9</ele>
        <time>2022-10-30T11:32:39Z</time>
      </trkpt>
      <trkpt lat="43.21389" lon="6.33796">
        <ele>468.9</ele>
        <time>2022-10-30T11:32:40Z</time>
      </trkpt>
      <trkpt lat="43.21389" lon="6.33796">
        <ele>468.8</ele>
        <time>2022-10-30T11:32:47Z</time>
      </trkpt>
      <trkpt lat="43.21389" lon="6.33796">
        <ele>468.8</ele>
        <time>2022-10-30T11:32:48Z</time>
      </trkpt>
      <trkpt lat="43.21389" lon="6.33796">
        <ele>468.8</ele>
        <time>2022-10-30T11:33:04Z</time>
      </trkpt>
      <trkpt lat="43.21389" lon="6.33796">
        <ele>468.8</ele>
        <time>2022-10-30T11:33:05Z</time>
      </trkpt>
      <trkpt lat="43.21388" lon="6.33796">
        <ele>468.8</ele>
        <time>2022-10-30T11:33:50Z</time>
      </trkpt>
      <trkpt lat="43.21388" lon="6.33796">
        <ele>468.8</ele>
        <time>2022-10-30T11:33:51Z</time>
      </trkpt>
      <trkpt lat="43.21388" lon="6.33796">
        <ele>468.6</ele>
        <time>2022-10-30T11:34:19Z</time>
      </trkpt>
      <trkpt lat="43.21388" lon="6.33796">
        <ele>468.6</ele>
        <time>2022-10-30T11:34:20Z</time>
      </trkpt>
      <trkpt lat="43.21388" lon="6.33796">
        <ele>468.5</ele>
        <time>2022-10-30T11:36:59Z</time>
      </trkpt>
      <trkpt lat="43.21388" lon="6.33796">
        <ele>468.5</ele>
        <time>2022-10-30T11:37:00Z</time>
      </trkpt>
      <trkpt lat="43.21388" lon="6.33796">
        <ele>468.4</ele>
        <time>2022-10-30T11:37:45Z</time>
      </trkpt>
      <trkpt lat="43.21388" lon="6.33796">
        <ele>468.5</ele>
        <time>2022-10-30T11:37:47Z</time>
      </trkpt>
      <trkpt lat="43.21388" lon="6.33796">
        <ele>468.6</ele>
        <time>2022-10-30T11:38:50Z</time>
      </trkpt>
      <trkpt lat="43.21388" lon="6.33796">
        <ele>468.7</ele>
        <time>2022-10-30T11:38:51Z</time>
      </trkpt>
      <trkpt lat="43.21388" lon="6.33795">
        <ele>469</ele>
        <time>2022-10-30T11:39:04Z</time>
      </trkpt>
      <trkpt lat="43.21387" lon="6.33796">
        <ele>469.3</ele>
        <time>2022-10-30T11:39:13Z</time>
      </trkpt>
      <trkpt lat="43.21387" lon="6.33796">
        <ele>469.4</ele>
        <time>2022-10-30T11:39:14Z</time>
      </trkpt>
      <trkpt lat="43.21388" lon="6.33796">
        <ele>469.5</ele>
        <time>2022-10-30T11:39:20Z</time>
      </trkpt>
      <trkpt lat="43.21388" lon="6.33795">
        <ele>469.6</ele>
        <time>2022-10-30T11:39:21Z</time>
      </trkpt>
      <trkpt lat="43.21388" lon="6.33795">
        <ele>469.7</ele>
        <time>2022-10-30T11:39:25Z</time>
      </trkpt>
      <trkpt lat="43.21389" lon="6.33795">
        <ele>469.7</ele>
        <time>2022-10-30T11:39:26Z</time>
      </trkpt>
      <trkpt lat="43.21388" lon="6.33796">
        <ele>469.7</ele>
        <time>2022-10-30T11:39:30Z</time>
      </trkpt>
      <trkpt lat="43.21388" lon="6.33796">
        <ele>469.8</ele>
        <time>2022-10-30T11:39:32Z</time>
      </trkpt>
      <trkpt lat="43.21389" lon="6.33794">
        <ele>470</ele>
        <time>2022-10-30T11:39:41Z</time>
      </trkpt>
      <trkpt lat="43.21389" lon="6.33793">
        <ele>470.1</ele>
        <time>2022-10-30T11:39:47Z</time>
      </trkpt>
      <trkpt lat="43.21389" lon="6.33793">
        <ele>470.2</ele>
        <time>2022-10-30T11:39:48Z</time>
      </trkpt>
      <trkpt lat="43.21388" lon="6.33793">
        <ele>470.2</ele>
        <time>2022-10-30T11:39:49Z</time>
      </trkpt>
      <trkpt lat="43.21389" lon="6.33793">
        <ele>470.5</ele>
        <time>2022-10-30T11:39:54Z</time>
      </trkpt>
      <trkpt lat="43.21389" lon="6.33793">
        <ele>470.5</ele>
        <time>2022-10-30T11:39:55Z</time>
      </trkpt>
      <trkpt lat="43.2139" lon="6.33794">
        <ele>470.5</ele>
        <time>2022-10-30T11:39:57Z</time>
      </trkpt>
      <trkpt lat="43.21389" lon="6.33794">
        <ele>470.5</ele>
        <time>2022-10-30T11:39:58Z</time>
      </trkpt>
      <trkpt lat="43.21389" lon="6.33794">
        <ele>470.5</ele>
        <time>2022-10-30T11:39:59Z</time>
      </trkpt>
      <trkpt lat="43.21389" lon="6.33793">
        <ele>470.5</ele>
        <time>2022-10-30T11:40:00Z</time>
      </trkpt>
      <trkpt lat="43.21389" lon="6.33793">
        <ele>470.6</ele>
        <time>2022-10-30T11:40:01Z</time>
      </trkpt>
      <trkpt lat="43.2139" lon="6.33793">
        <ele>470.8</ele>
        <time>2022-10-30T11:40:03Z</time>
      </trkpt>
      <trkpt lat="43.21392" lon="6.33792">
        <ele>471.8</ele>
        <time>2022-10-30T11:40:15Z</time>
      </trkpt>
      <trkpt lat="43.21392" lon="6.33791">
        <ele>471.9</ele>
        <time>2022-10-30T11:40:16Z</time>
      </trkpt>
      <trkpt lat="43.21391" lon="6.3379">
        <ele>472</ele>
        <time>2022-10-30T11:40:19Z</time>
      </trkpt>
      <trkpt lat="43.21391" lon="6.3379">
        <ele>472</ele>
        <time>2022-10-30T11:40:20Z</time>
      </trkpt>
      <trkpt lat="43.21391" lon="6.3379">
        <ele>472.1</ele>
        <time>2022-10-30T11:40:21Z</time>
      </trkpt>
      <trkpt lat="43.21391" lon="6.33789">
        <ele>472.3</ele>
        <time>2022-10-30T11:40:22Z</time>
      </trkpt>
      <trkpt lat="43.2139" lon="6.33789">
        <ele>472.6</ele>
        <time>2022-10-30T11:40:25Z</time>
      </trkpt>
      <trkpt lat="43.2139" lon="6.33789">
        <ele>472.7</ele>
        <time>2022-10-30T11:40:27Z</time>
      </trkpt>
      <trkpt lat="43.2139" lon="6.33789">
        <ele>472.7</ele>
        <time>2022-10-30T11:40:28Z</time>
      </trkpt>
      <trkpt lat="43.2139" lon="6.33789">
        <ele>472.7</ele>
        <time>2022-10-30T11:40:29Z</time>
      </trkpt>
      <trkpt lat="43.2139" lon="6.33789">
        <ele>472.9</ele>
        <time>2022-10-30T11:40:33Z</time>
      </trkpt>
      <trkpt lat="43.2139" lon="6.33789">
        <ele>472.9</ele>
        <time>2022-10-30T11:40:35Z</time>
      </trkpt>
      <trkpt lat="43.2139" lon="6.3379">
        <ele>472.8</ele>
        <time>2022-10-30T11:40:36Z</time>
      </trkpt>
      <trkpt lat="43.2139" lon="6.3379">
        <ele>472.9</ele>
        <time>2022-10-30T11:40:37Z</time>
      </trkpt>
      <trkpt lat="43.2139" lon="6.3379">
        <ele>473</ele>
        <time>2022-10-30T11:40:40Z</time>
      </trkpt>
      <trkpt lat="43.2139" lon="6.3379">
        <ele>473.2</ele>
        <time>2022-10-30T11:40:43Z</time>
      </trkpt>
      <trkpt lat="43.2139" lon="6.33791">
        <ele>473.2</ele>
        <time>2022-10-30T11:40:44Z</time>
      </trkpt>
      <trkpt lat="43.2139" lon="6.33791">
        <ele>473</ele>
        <time>2022-10-30T11:40:45Z</time>
      </trkpt>
      <trkpt lat="43.21389" lon="6.33793">
        <ele>472.5</ele>
        <time>2022-10-30T11:40:50Z</time>
      </trkpt>
      <trkpt lat="43.21389" lon="6.33792">
        <ele>472.5</ele>
        <time>2022-10-30T11:40:54Z</time>
      </trkpt>
      <trkpt lat="43.2139" lon="6.33791">
        <ele>472.4</ele>
        <time>2022-10-30T11:40:57Z</time>
      </trkpt>
      <trkpt lat="43.21389" lon="6.33791">
        <ele>472.5</ele>
        <time>2022-10-30T11:40:58Z</time>
      </trkpt>
      <trkpt lat="43.21388" lon="6.3379">
        <ele>471.5</ele>
        <time>2022-10-30T11:41:07Z</time>
      </trkpt>
      <trkpt lat="43.21388" lon="6.3379">
        <ele>471.4</ele>
        <time>2022-10-30T11:41:08Z</time>
      </trkpt>
      <trkpt lat="43.21387" lon="6.33793">
        <ele>470</ele>
        <time>2022-10-30T11:41:15Z</time>
      </trkpt>
      <trkpt lat="43.21387" lon="6.33792">
        <ele>470</ele>
        <time>2022-10-30T11:41:16Z</time>
      </trkpt>
      <trkpt lat="43.21386" lon="6.33791">
        <ele>469.9</ele>
        <time>2022-10-30T11:41:18Z</time>
      </trkpt>
      <trkpt lat="43.21387" lon="6.33791">
        <ele>470</ele>
        <time>2022-10-30T11:41:19Z</time>
      </trkpt>
      <trkpt lat="43.21384" lon="6.3379">
        <ele>468.6</ele>
        <time>2022-10-30T11:41:55Z</time>
      </trkpt>
      <trkpt lat="43.21384" lon="6.33791">
        <ele>468.6</ele>
        <time>2022-10-30T11:41:56Z</time>
      </trkpt>
      <trkpt lat="43.21384" lon="6.33793">
        <ele>468.8</ele>
        <time>2022-10-30T11:42:06Z</time>
      </trkpt>
      <trkpt lat="43.21384" lon="6.33793">
        <ele>468.7</ele>
        <time>2022-10-30T11:42:08Z</time>
      </trkpt>
      <trkpt lat="43.21384" lon="6.33793">
        <ele>468.6</ele>
        <time>2022-10-30T11:42:09Z</time>
      </trkpt>
      <trkpt lat="43.21384" lon="6.33793">
        <ele>468.6</ele>
        <time>2022-10-30T11:42:10Z</time>
      </trkpt>
      <trkpt lat="43.21386" lon="6.33793">
        <ele>468.8</ele>
        <time>2022-10-30T11:42:14Z</time>
      </trkpt>
      <trkpt lat="43.21386" lon="6.33794">
        <ele>468.9</ele>
        <time>2022-10-30T11:42:15Z</time>
      </trkpt>
      <trkpt lat="43.21387" lon="6.33793">
        <ele>469.2</ele>
        <time>2022-10-30T11:42:26Z</time>
      </trkpt>
      <trkpt lat="43.21387" lon="6.33793">
        <ele>469.1</ele>
        <time>2022-10-30T11:42:30Z</time>
      </trkpt>
      <trkpt lat="43.21388" lon="6.33793">
        <ele>469</ele>
        <time>2022-10-30T11:42:38Z</time>
      </trkpt>
      <trkpt lat="43.21388" lon="6.33793">
        <ele>469</ele>
        <time>2022-10-30T11:42:49Z</time>
      </trkpt>
      <trkpt lat="43.21388" lon="6.33793">
        <ele>469</ele>
        <time>2022-10-30T11:42:50Z</time>
      </trkpt>
      <trkpt lat="43.21388" lon="6.33793">
        <ele>469</ele>
        <time>2022-10-30T11:42:56Z</time>
      </trkpt>
      <trkpt lat="43.21388" lon="6.33793">
        <ele>469.3</ele>
        <time>2022-10-30T11:43:02Z</time>
      </trkpt>
      <trkpt lat="43.21388" lon="6.33793">
        <ele>469.3</ele>
        <time>2022-10-30T11:43:04Z</time>
      </trkpt>
      <trkpt lat="43.21388" lon="6.33792">
        <ele>468.8</ele>
        <time>2022-10-30T11:43:09Z</time>
      </trkpt>
      <trkpt lat="43.21388" lon="6.33792">
        <ele>468.8</ele>
        <time>2022-10-30T11:43:10Z</time>
      </trkpt>
      <trkpt lat="43.21388" lon="6.33792">
        <ele>468.7</ele>
        <time>2022-10-30T11:43:11Z</time>
      </trkpt>
      <trkpt lat="43.21388" lon="6.33792">
        <ele>468.6</ele>
        <time>2022-10-30T11:43:13Z</time>
      </trkpt>
      <trkpt lat="43.21389" lon="6.33793">
        <ele>468.5</ele>
        <time>2022-10-30T11:43:17Z</time>
      </trkpt>
      <trkpt lat="43.21389" lon="6.33792">
        <ele>468.5</ele>
        <time>2022-10-30T11:43:18Z</time>
      </trkpt>
      <trkpt lat="43.21385" lon="6.33796">
        <ele>467.7</ele>
        <time>2022-10-30T11:44:00Z</time>
      </trkpt>
      <trkpt lat="43.21386" lon="6.33796">
        <ele>467.7</ele>
        <time>2022-10-30T11:44:01Z</time>
      </trkpt>
      <trkpt lat="43.21383" lon="6.33792">
        <ele>467.8</ele>
        <time>2022-10-30T11:44:18Z</time>
      </trkpt>
      <trkpt lat="43.21383" lon="6.33792">
        <ele>467.9</ele>
        <time>2022-10-30T11:44:19Z</time>
      </trkpt>
      <trkpt lat="43.21383" lon="6.33792">
        <ele>467.8</ele>
        <time>2022-10-30T11:44:20Z</time>
      </trkpt>
      <trkpt lat="43.21383" lon="6.33792">
        <ele>467.6</ele>
        <time>2022-10-30T11:44:21Z</time>
      </trkpt>
      <trkpt lat="43.21376" lon="6.33784">
        <ele>468.5</ele>
        <time>2022-10-30T11:44:35Z</time>
      </trkpt>
      <trkpt lat="43.21367" lon="6.33786">
        <ele>468.6</ele>
        <time>2022-10-30T11:44:52Z</time>
      </trkpt>
      <trkpt lat="43.21357" lon="6.33786">
        <ele>471.3</ele>
        <time>2022-10-30T11:45:06Z</time>
      </trkpt>
      <trkpt lat="43.21349" lon="6.33781">
        <ele>470.4</ele>
        <time>2022-10-30T11:45:19Z</time>
      </trkpt>
      <trkpt lat="43.21347" lon="6.3378">
        <ele>470.9</ele>
        <time>2022-10-30T11:45:24Z</time>
      </trkpt>
      <trkpt lat="43.21346" lon="6.3378">
        <ele>471.1</ele>
        <time>2022-10-30T11:45:25Z</time>
      </trkpt>
      <trkpt lat="43.21348" lon="6.33767">
        <ele>472.1</ele>
        <time>2022-10-30T11:45:39Z</time>
      </trkpt>
      <trkpt lat="43.21346" lon="6.33755">
        <ele>472.2</ele>
        <time>2022-10-30T11:45:49Z</time>
      </trkpt>
      <trkpt lat="43.21347" lon="6.33749">
        <ele>472.1</ele>
        <time>2022-10-30T11:45:57Z</time>
      </trkpt>
      <trkpt lat="43.21347" lon="6.33747">
        <ele>472.1</ele>
        <time>2022-10-30T11:45:58Z</time>
      </trkpt>
      <trkpt lat="43.21345" lon="6.33735">
        <ele>471.2</ele>
        <time>2022-10-30T11:46:05Z</time>
      </trkpt>
      <trkpt lat="43.2134" lon="6.33724">
        <ele>471.6</ele>
        <time>2022-10-30T11:46:13Z</time>
      </trkpt>
      <trkpt lat="43.21337" lon="6.33711">
        <ele>471.3</ele>
        <time>2022-10-30T11:46:22Z</time>
      </trkpt>
      <trkpt lat="43.21336" lon="6.33697">
        <ele>472.5</ele>
        <time>2022-10-30T11:46:33Z</time>
      </trkpt>
      <trkpt lat="43.21332" lon="6.33685">
        <ele>473</ele>
        <time>2022-10-30T11:46:38Z</time>
      </trkpt>
      <trkpt lat="43.21327" lon="6.33673">
        <ele>473.7</ele>
        <time>2022-10-30T11:46:46Z</time>
      </trkpt>
      <trkpt lat="43.21321" lon="6.33664">
        <ele>474.8</ele>
        <time>2022-10-30T11:46:56Z</time>
      </trkpt>
      <trkpt lat="43.21314" lon="6.33656">
        <ele>475</ele>
        <time>2022-10-30T11:47:04Z</time>
      </trkpt>
      <trkpt lat="43.21309" lon="6.33646">
        <ele>478.3</ele>
        <time>2022-10-30T11:47:18Z</time>
      </trkpt>
      <trkpt lat="43.21306" lon="6.33633">
        <ele>479.9</ele>
        <time>2022-10-30T11:47:36Z</time>
      </trkpt>
      <trkpt lat="43.21301" lon="6.33629">
        <ele>479.8</ele>
        <time>2022-10-30T11:47:47Z</time>
      </trkpt>
      <trkpt lat="43.21301" lon="6.33628">
        <ele>479.9</ele>
        <time>2022-10-30T11:47:48Z</time>
      </trkpt>
      <trkpt lat="43.21294" lon="6.33618">
        <ele>480.4</ele>
        <time>2022-10-30T11:48:01Z</time>
      </trkpt>
      <trkpt lat="43.21286" lon="6.33612">
        <ele>480</ele>
        <time>2022-10-30T11:48:08Z</time>
      </trkpt>
      <trkpt lat="43.21278" lon="6.33604">
        <ele>479.7</ele>
        <time>2022-10-30T11:48:19Z</time>
      </trkpt>
      <trkpt lat="43.21271" lon="6.33597">
        <ele>480.3</ele>
        <time>2022-10-30T11:48:30Z</time>
      </trkpt>
      <trkpt lat="43.21264" lon="6.33588">
        <ele>480.9</ele>
        <time>2022-10-30T11:48:38Z</time>
      </trkpt>
      <trkpt lat="43.21258" lon="6.33579">
        <ele>482.6</ele>
        <time>2022-10-30T11:48:53Z</time>
      </trkpt>
      <trkpt lat="43.21254" lon="6.3357">
        <ele>482.7</ele>
        <time>2022-10-30T11:49:06Z</time>
      </trkpt>
      <trkpt lat="43.21254" lon="6.3357">
        <ele>482.8</ele>
        <time>2022-10-30T11:49:07Z</time>
      </trkpt>
      <trkpt lat="43.21245" lon="6.33565">
        <ele>484.1</ele>
        <time>2022-10-30T11:49:15Z</time>
      </trkpt>
      <trkpt lat="43.2124" lon="6.33555">
        <ele>484.8</ele>
        <time>2022-10-30T11:49:25Z</time>
      </trkpt>
      <trkpt lat="43.21235" lon="6.33543">
        <ele>485.5</ele>
        <time>2022-10-30T11:49:38Z</time>
      </trkpt>
      <trkpt lat="43.21228" lon="6.33536">
        <ele>487.8</ele>
        <time>2022-10-30T11:49:55Z</time>
      </trkpt>
      <trkpt lat="43.21226" lon="6.33534">
        <ele>486.8</ele>
        <time>2022-10-30T11:50:03Z</time>
      </trkpt>
      <trkpt lat="43.21225" lon="6.33534">
        <ele>486.9</ele>
        <time>2022-10-30T11:50:04Z</time>
      </trkpt>
      <trkpt lat="43.21216" lon="6.3353">
        <ele>487.6</ele>
        <time>2022-10-30T11:50:19Z</time>
      </trkpt>
      <trkpt lat="43.21216" lon="6.3353">
        <ele>487.6</ele>
        <time>2022-10-30T11:50:20Z</time>
      </trkpt>
      <trkpt lat="43.21216" lon="6.33531">
        <ele>487.7</ele>
        <time>2022-10-30T11:50:21Z</time>
      </trkpt>
      <trkpt lat="43.21208" lon="6.33523">
        <ele>489.1</ele>
        <time>2022-10-30T11:50:35Z</time>
      </trkpt>
      <trkpt lat="43.21201" lon="6.33514">
        <ele>488.8</ele>
        <time>2022-10-30T11:50:40Z</time>
      </trkpt>
      <trkpt lat="43.21193" lon="6.33508">
        <ele>489.7</ele>
        <time>2022-10-30T11:50:48Z</time>
      </trkpt>
      <trkpt lat="43.21184" lon="6.3351">
        <ele>491.9</ele>
        <time>2022-10-30T11:50:57Z</time>
      </trkpt>
      <trkpt lat="43.21178" lon="6.33507">
        <ele>491.9</ele>
        <time>2022-10-30T11:51:03Z</time>
      </trkpt>
      <trkpt lat="43.21177" lon="6.33508">
        <ele>491.9</ele>
        <time>2022-10-30T11:51:04Z</time>
      </trkpt>
      <trkpt lat="43.21167" lon="6.33508">
        <ele>494.5</ele>
        <time>2022-10-30T11:51:21Z</time>
      </trkpt>
      <trkpt lat="43.21166" lon="6.33508">
        <ele>496</ele>
        <time>2022-10-30T11:51:25Z</time>
      </trkpt>
      <trkpt lat="43.21166" lon="6.33508">
        <ele>496.3</ele>
        <time>2022-10-30T11:51:29Z</time>
      </trkpt>
      <trkpt lat="43.21166" lon="6.33508">
        <ele>496.6</ele>
        <time>2022-10-30T11:51:32Z</time>
      </trkpt>
      <trkpt lat="43.21165" lon="6.33508">
        <ele>496.7</ele>
        <time>2022-10-30T11:51:33Z</time>
      </trkpt>
      <trkpt lat="43.21163" lon="6.33514">
        <ele>499.6</ele>
        <time>2022-10-30T11:51:43Z</time>
      </trkpt>
      <trkpt lat="43.21163" lon="6.33513">
        <ele>499.7</ele>
        <time>2022-10-30T11:51:44Z</time>
      </trkpt>
      <trkpt lat="43.21163" lon="6.33513">
        <ele>499.8</ele>
        <time>2022-10-30T11:51:46Z</time>
      </trkpt>
      <trkpt lat="43.21162" lon="6.33514">
        <ele>499.9</ele>
        <time>2022-10-30T11:51:47Z</time>
      </trkpt>
      <trkpt lat="43.21153" lon="6.33512">
        <ele>506</ele>
        <time>2022-10-30T11:52:09Z</time>
      </trkpt>
      <trkpt lat="43.21146" lon="6.33511">
        <ele>507.2</ele>
        <time>2022-10-30T11:52:25Z</time>
      </trkpt>
      <trkpt lat="43.21147" lon="6.33511">
        <ele>507.3</ele>
        <time>2022-10-30T11:52:26Z</time>
      </trkpt>
      <trkpt lat="43.21147" lon="6.33511">
        <ele>507.5</ele>
        <time>2022-10-30T11:52:27Z</time>
      </trkpt>
      <trkpt lat="43.21147" lon="6.3351">
        <ele>507.6</ele>
        <time>2022-10-30T11:52:28Z</time>
      </trkpt>
      <trkpt lat="43.21144" lon="6.33498">
        <ele>508</ele>
        <time>2022-10-30T11:52:45Z</time>
      </trkpt>
      <trkpt lat="43.21144" lon="6.3349">
        <ele>508.1</ele>
        <time>2022-10-30T11:52:55Z</time>
      </trkpt>
      <trkpt lat="43.21143" lon="6.3349">
        <ele>508.1</ele>
        <time>2022-10-30T11:52:56Z</time>
      </trkpt>
      <trkpt lat="43.2114" lon="6.33477">
        <ele>508.9</ele>
        <time>2022-10-30T11:53:39Z</time>
      </trkpt>
      <trkpt lat="43.2114" lon="6.33464">
        <ele>509.5</ele>
        <time>2022-10-30T11:53:49Z</time>
      </trkpt>
      <trkpt lat="43.2114" lon="6.33451">
        <ele>509.5</ele>
        <time>2022-10-30T11:54:00Z</time>
      </trkpt>
      <trkpt lat="43.21137" lon="6.33439">
        <ele>510</ele>
        <time>2022-10-30T11:54:08Z</time>
      </trkpt>
      <trkpt lat="43.21131" lon="6.33427">
        <ele>509.6</ele>
        <time>2022-10-30T11:54:15Z</time>
      </trkpt>
      <trkpt lat="43.21131" lon="6.33414">
        <ele>508</ele>
        <time>2022-10-30T11:54:27Z</time>
      </trkpt>
      <trkpt lat="43.21129" lon="6.33401">
        <ele>507.4</ele>
        <time>2022-10-30T11:54:38Z</time>
      </trkpt>
      <trkpt lat="43.21126" lon="6.33389">
        <ele>509.2</ele>
        <time>2022-10-30T11:54:50Z</time>
      </trkpt>
      <trkpt lat="43.21126" lon="6.33389">
        <ele>509.3</ele>
        <time>2022-10-30T11:54:51Z</time>
      </trkpt>
      <trkpt lat="43.21125" lon="6.33388">
        <ele>509.6</ele>
        <time>2022-10-30T11:54:52Z</time>
      </trkpt>
      <trkpt lat="43.21121" lon="6.33377">
        <ele>512.9</ele>
        <time>2022-10-30T11:55:03Z</time>
      </trkpt>
      <trkpt lat="43.2112" lon="6.33364">
        <ele>513.4</ele>
        <time>2022-10-30T11:55:17Z</time>
      </trkpt>
      <trkpt lat="43.21115" lon="6.33356">
        <ele>513.3</ele>
        <time>2022-10-30T11:55:28Z</time>
      </trkpt>
      <trkpt lat="43.21115" lon="6.33357">
        <ele>513.4</ele>
        <time>2022-10-30T11:55:29Z</time>
      </trkpt>
      <trkpt lat="43.21115" lon="6.33357">
        <ele>513.4</ele>
        <time>2022-10-30T11:55:33Z</time>
      </trkpt>
      <trkpt lat="43.21115" lon="6.33357">
        <ele>513.5</ele>
        <time>2022-10-30T11:55:34Z</time>
      </trkpt>
      <trkpt lat="43.21115" lon="6.33356">
        <ele>513.3</ele>
        <time>2022-10-30T11:55:37Z</time>
      </trkpt>
      <trkpt lat="43.21115" lon="6.33355">
        <ele>513.2</ele>
        <time>2022-10-30T11:55:38Z</time>
      </trkpt>
      <trkpt lat="43.21108" lon="6.33354">
        <ele>512.5</ele>
        <time>2022-10-30T11:55:59Z</time>
      </trkpt>
      <trkpt lat="43.21108" lon="6.33353">
        <ele>512.4</ele>
        <time>2022-10-30T11:56:00Z</time>
      </trkpt>
      <trkpt lat="43.21108" lon="6.33353">
        <ele>512.3</ele>
        <time>2022-10-30T11:56:01Z</time>
      </trkpt>
      <trkpt lat="43.21107" lon="6.33353">
        <ele>512.2</ele>
        <time>2022-10-30T11:56:02Z</time>
      </trkpt>
      <trkpt lat="43.21108" lon="6.33355">
        <ele>511.8</ele>
        <time>2022-10-30T11:56:09Z</time>
      </trkpt>
      <trkpt lat="43.21108" lon="6.33355">
        <ele>511.9</ele>
        <time>2022-10-30T11:56:14Z</time>
      </trkpt>
      <trkpt lat="43.21106" lon="6.33342">
        <ele>511.6</ele>
        <time>2022-10-30T11:56:26Z</time>
      </trkpt>
      <trkpt lat="43.21098" lon="6.33332">
        <ele>512.2</ele>
        <time>2022-10-30T11:56:37Z</time>
      </trkpt>
      <trkpt lat="43.21095" lon="6.3332">
        <ele>512.7</ele>
        <time>2022-10-30T11:56:47Z</time>
      </trkpt>
      <trkpt lat="43.21092" lon="6.33307">
        <ele>512.6</ele>
        <time>2022-10-30T11:56:59Z</time>
      </trkpt>
      <trkpt lat="43.21089" lon="6.33295">
        <ele>511.7</ele>
        <time>2022-10-30T11:57:12Z</time>
      </trkpt>
      <trkpt lat="43.21083" lon="6.33285">
        <ele>511.9</ele>
        <time>2022-10-30T11:57:31Z</time>
      </trkpt>
      <trkpt lat="43.21078" lon="6.33273">
        <ele>512.4</ele>
        <time>2022-10-30T11:57:45Z</time>
      </trkpt>
      <trkpt lat="43.21073" lon="6.33262">
        <ele>514.7</ele>
        <time>2022-10-30T11:58:00Z</time>
      </trkpt>
      <trkpt lat="43.21072" lon="6.33254">
        <ele>515.1</ele>
        <time>2022-10-30T11:58:10Z</time>
      </trkpt>
      <trkpt lat="43.21071" lon="6.33254">
        <ele>515.2</ele>
        <time>2022-10-30T11:58:11Z</time>
      </trkpt>
      <trkpt lat="43.21068" lon="6.33253">
        <ele>515.3</ele>
        <time>2022-10-30T11:58:22Z</time>
      </trkpt>
      <trkpt lat="43.21067" lon="6.33253">
        <ele>515.4</ele>
        <time>2022-10-30T11:58:24Z</time>
      </trkpt>
      <trkpt lat="43.21068" lon="6.33248">
        <ele>515.3</ele>
        <time>2022-10-30T11:58:41Z</time>
      </trkpt>
      <trkpt lat="43.21068" lon="6.33248">
        <ele>515.3</ele>
        <time>2022-10-30T11:58:42Z</time>
      </trkpt>
      <trkpt lat="43.21068" lon="6.33247">
        <ele>515.3</ele>
        <time>2022-10-30T11:58:47Z</time>
      </trkpt>
      <trkpt lat="43.21068" lon="6.33247">
        <ele>515.2</ele>
        <time>2022-10-30T11:58:48Z</time>
      </trkpt>
      <trkpt lat="43.21065" lon="6.33234">
        <ele>515.7</ele>
        <time>2022-10-30T11:59:04Z</time>
      </trkpt>
      <trkpt lat="43.21073" lon="6.33226">
        <ele>516.6</ele>
        <time>2022-10-30T11:59:17Z</time>
      </trkpt>
      <trkpt lat="43.21079" lon="6.33217">
        <ele>515.5</ele>
        <time>2022-10-30T11:59:31Z</time>
      </trkpt>
      <trkpt lat="43.21087" lon="6.33209">
        <ele>514.8</ele>
        <time>2022-10-30T11:59:45Z</time>
      </trkpt>
      <trkpt lat="43.21095" lon="6.33203">
        <ele>513.2</ele>
        <time>2022-10-30T11:59:54Z</time>
      </trkpt>
      <trkpt lat="43.21102" lon="6.332">
        <ele>512.3</ele>
        <time>2022-10-30T12:00:01Z</time>
      </trkpt>
      <trkpt lat="43.21101" lon="6.33201">
        <ele>512.1</ele>
        <time>2022-10-30T12:00:02Z</time>
      </trkpt>
      <trkpt lat="43.21106" lon="6.3319">
        <ele>511</ele>
        <time>2022-10-30T12:00:25Z</time>
      </trkpt>
      <trkpt lat="43.21102" lon="6.33178">
        <ele>510</ele>
        <time>2022-10-30T12:00:43Z</time>
      </trkpt>
      <trkpt lat="43.211" lon="6.33173">
        <ele>508.5</ele>
        <time>2022-10-30T12:00:53Z</time>
      </trkpt>
      <trkpt lat="43.211" lon="6.33173">
        <ele>508.3</ele>
        <time>2022-10-30T12:00:54Z</time>
      </trkpt>
      <trkpt lat="43.211" lon="6.3317">
        <ele>507.2</ele>
        <time>2022-10-30T12:01:01Z</time>
      </trkpt>
      <trkpt lat="43.21101" lon="6.3317">
        <ele>507.1</ele>
        <time>2022-10-30T12:01:02Z</time>
      </trkpt>
      <trkpt lat="43.21094" lon="6.3316">
        <ele>504.5</ele>
        <time>2022-10-30T12:01:13Z</time>
      </trkpt>
      <trkpt lat="43.21094" lon="6.33148">
        <ele>502.3</ele>
        <time>2022-10-30T12:01:28Z</time>
      </trkpt>
      <trkpt lat="43.21098" lon="6.33136">
        <ele>500.9</ele>
        <time>2022-10-30T12:01:40Z</time>
      </trkpt>
      <trkpt lat="43.21104" lon="6.33127">
        <ele>499.6</ele>
        <time>2022-10-30T12:02:01Z</time>
      </trkpt>
      <trkpt lat="43.21112" lon="6.33117">
        <ele>499.6</ele>
        <time>2022-10-30T12:02:14Z</time>
      </trkpt>
      <trkpt lat="43.21116" lon="6.33115">
        <ele>497.3</ele>
        <time>2022-10-30T12:02:42Z</time>
      </trkpt>
      <trkpt lat="43.21116" lon="6.33115">
        <ele>497.2</ele>
        <time>2022-10-30T12:02:43Z</time>
      </trkpt>
      <trkpt lat="43.21116" lon="6.33115">
        <ele>497.1</ele>
        <time>2022-10-30T12:02:44Z</time>
      </trkpt>
      <trkpt lat="43.21116" lon="6.33115">
        <ele>497</ele>
        <time>2022-10-30T12:02:45Z</time>
      </trkpt>
      <trkpt lat="43.21123" lon="6.33111">
        <ele>493.2</ele>
        <time>2022-10-30T12:03:04Z</time>
      </trkpt>
      <trkpt lat="43.21123" lon="6.33111">
        <ele>493.1</ele>
        <time>2022-10-30T12:03:05Z</time>
      </trkpt>
      <trkpt lat="43.21128" lon="6.33105">
        <ele>490.7</ele>
        <time>2022-10-30T12:03:24Z</time>
      </trkpt>
      <trkpt lat="43.21128" lon="6.33104">
        <ele>490.6</ele>
        <time>2022-10-30T12:03:25Z</time>
      </trkpt>
      <trkpt lat="43.21138" lon="6.33104">
        <ele>489</ele>
        <time>2022-10-30T12:03:39Z</time>
      </trkpt>
      <trkpt lat="43.21147" lon="6.33104">
        <ele>487.4</ele>
        <time>2022-10-30T12:03:49Z</time>
      </trkpt>
      <trkpt lat="43.21152" lon="6.33094">
        <ele>487</ele>
        <time>2022-10-30T12:04:02Z</time>
      </trkpt>
      <trkpt lat="43.21158" lon="6.33084">
        <ele>487</ele>
        <time>2022-10-30T12:04:11Z</time>
      </trkpt>
      <trkpt lat="43.21166" lon="6.33078">
        <ele>487.3</ele>
        <time>2022-10-30T12:04:19Z</time>
      </trkpt>
      <trkpt lat="43.21171" lon="6.33066">
        <ele>487.3</ele>
        <time>2022-10-30T12:04:26Z</time>
      </trkpt>
      <trkpt lat="43.21174" lon="6.33055">
        <ele>486.7</ele>
        <time>2022-10-30T12:04:33Z</time>
      </trkpt>
      <trkpt lat="43.21177" lon="6.33043">
        <ele>485.3</ele>
        <time>2022-10-30T12:04:44Z</time>
      </trkpt>
      <trkpt lat="43.21178" lon="6.33031">
        <ele>484.2</ele>
        <time>2022-10-30T12:04:56Z</time>
      </trkpt>
      <trkpt lat="43.21179" lon="6.33018">
        <ele>482.3</ele>
        <time>2022-10-30T12:05:13Z</time>
      </trkpt>
      <trkpt lat="43.21179" lon="6.33018">
        <ele>482.1</ele>
        <time>2022-10-30T12:05:14Z</time>
      </trkpt>
      <trkpt lat="43.2118" lon="6.33018">
        <ele>481.9</ele>
        <time>2022-10-30T12:05:15Z</time>
      </trkpt>
      <trkpt lat="43.21177" lon="6.33006">
        <ele>480.9</ele>
        <time>2022-10-30T12:05:28Z</time>
      </trkpt>
      <trkpt lat="43.21174" lon="6.32994">
        <ele>479.4</ele>
        <time>2022-10-30T12:05:38Z</time>
      </trkpt>
      <trkpt lat="43.21176" lon="6.32981">
        <ele>476.4</ele>
        <time>2022-10-30T12:05:46Z</time>
      </trkpt>
      <trkpt lat="43.2117" lon="6.32971">
        <ele>475.9</ele>
        <time>2022-10-30T12:05:56Z</time>
      </trkpt>
      <trkpt lat="43.21166" lon="6.32959">
        <ele>474.4</ele>
        <time>2022-10-30T12:06:07Z</time>
      </trkpt>
      <trkpt lat="43.21165" lon="6.32946">
        <ele>472.2</ele>
        <time>2022-10-30T12:06:18Z</time>
      </trkpt>
      <trkpt lat="43.21163" lon="6.32933">
        <ele>471.9</ele>
        <time>2022-10-30T12:06:28Z</time>
      </trkpt>
      <trkpt lat="43.21162" lon="6.32921">
        <ele>471.5</ele>
        <time>2022-10-30T12:06:39Z</time>
      </trkpt>
      <trkpt lat="43.21161" lon="6.32906">
        <ele>469.8</ele>
        <time>2022-10-30T12:06:51Z</time>
      </trkpt>
      <trkpt lat="43.21157" lon="6.32895">
        <ele>469.8</ele>
        <time>2022-10-30T12:07:00Z</time>
      </trkpt>
      <trkpt lat="43.21154" lon="6.32884">
        <ele>468.8</ele>
        <time>2022-10-30T12:07:08Z</time>
      </trkpt>
      <trkpt lat="43.2115" lon="6.32871">
        <ele>466.8</ele>
        <time>2022-10-30T12:07:16Z</time>
      </trkpt>
      <trkpt lat="43.21143" lon="6.32861">
        <ele>466.6</ele>
        <time>2022-10-30T12:07:23Z</time>
      </trkpt>
      <trkpt lat="43.2114" lon="6.32849">
        <ele>465.7</ele>
        <time>2022-10-30T12:07:30Z</time>
      </trkpt>
      <trkpt lat="43.21136" lon="6.32837">
        <ele>465.8</ele>
        <time>2022-10-30T12:07:41Z</time>
      </trkpt>
      <trkpt lat="43.21136" lon="6.32824">
        <ele>465.8</ele>
        <time>2022-10-30T12:07:51Z</time>
      </trkpt>
      <trkpt lat="43.21139" lon="6.32809">
        <ele>466.1</ele>
        <time>2022-10-30T12:07:59Z</time>
      </trkpt>
      <trkpt lat="43.21135" lon="6.32803">
        <ele>466.7</ele>
        <time>2022-10-30T12:08:08Z</time>
      </trkpt>
      <trkpt lat="43.21136" lon="6.32803">
        <ele>466.7</ele>
        <time>2022-10-30T12:08:09Z</time>
      </trkpt>
      <trkpt lat="43.2114" lon="6.32792">
        <ele>465.8</ele>
        <time>2022-10-30T12:08:18Z</time>
      </trkpt>
      <trkpt lat="43.2114" lon="6.32778">
        <ele>464.3</ele>
        <time>2022-10-30T12:08:35Z</time>
      </trkpt>
      <trkpt lat="43.21141" lon="6.32766">
        <ele>463.7</ele>
        <time>2022-10-30T12:08:45Z</time>
      </trkpt>
      <trkpt lat="43.21141" lon="6.32752">
        <ele>463.1</ele>
        <time>2022-10-30T12:08:55Z</time>
      </trkpt>
      <trkpt lat="43.21144" lon="6.3274">
        <ele>462.7</ele>
        <time>2022-10-30T12:09:02Z</time>
      </trkpt>
      <trkpt lat="43.21146" lon="6.32728">
        <ele>462.9</ele>
        <time>2022-10-30T12:09:13Z</time>
      </trkpt>
      <trkpt lat="43.21151" lon="6.32717">
        <ele>463.1</ele>
        <time>2022-10-30T12:09:22Z</time>
      </trkpt>
      <trkpt lat="43.21153" lon="6.32704">
        <ele>461.6</ele>
        <time>2022-10-30T12:09:35Z</time>
      </trkpt>
      <trkpt lat="43.21149" lon="6.32692">
        <ele>460.6</ele>
        <time>2022-10-30T12:09:47Z</time>
      </trkpt>
      <trkpt lat="43.2115" lon="6.32689">
        <ele>460</ele>
        <time>2022-10-30T12:09:52Z</time>
      </trkpt>
      <trkpt lat="43.21151" lon="6.32689">
        <ele>459.7</ele>
        <time>2022-10-30T12:09:53Z</time>
      </trkpt>
      <trkpt lat="43.21154" lon="6.32676">
        <ele>459.4</ele>
        <time>2022-10-30T12:10:04Z</time>
      </trkpt>
      <trkpt lat="43.21156" lon="6.3268">
        <ele>458.1</ele>
        <time>2022-10-30T12:10:17Z</time>
      </trkpt>
      <trkpt lat="43.21156" lon="6.3268">
        <ele>458.2</ele>
        <time>2022-10-30T12:10:18Z</time>
      </trkpt>
      <trkpt lat="43.21157" lon="6.32674">
        <ele>457.3</ele>
        <time>2022-10-30T12:10:26Z</time>
      </trkpt>
      <trkpt lat="43.21157" lon="6.32673">
        <ele>457.3</ele>
        <time>2022-10-30T12:10:27Z</time>
      </trkpt>
      <trkpt lat="43.21161" lon="6.32675">
        <ele>454.6</ele>
        <time>2022-10-30T12:10:38Z</time>
      </trkpt>
      <trkpt lat="43.21161" lon="6.32675">
        <ele>454.3</ele>
        <time>2022-10-30T12:10:39Z</time>
      </trkpt>
      <trkpt lat="43.21159" lon="6.3268">
        <ele>453.1</ele>
        <time>2022-10-30T12:10:51Z</time>
      </trkpt>
      <trkpt lat="43.21159" lon="6.3268">
        <ele>453.1</ele>
        <time>2022-10-30T12:10:52Z</time>
      </trkpt>
      <trkpt lat="43.21163" lon="6.32681">
        <ele>452.4</ele>
        <time>2022-10-30T12:11:06Z</time>
      </trkpt>
      <trkpt lat="43.21164" lon="6.32682">
        <ele>452.3</ele>
        <time>2022-10-30T12:11:07Z</time>
      </trkpt>
      <trkpt lat="43.21173" lon="6.32683">
        <ele>450.3</ele>
        <time>2022-10-30T12:11:16Z</time>
      </trkpt>
      <trkpt lat="43.21182" lon="6.32684">
        <ele>447.8</ele>
        <time>2022-10-30T12:11:25Z</time>
      </trkpt>
      <trkpt lat="43.21191" lon="6.32684">
        <ele>447.2</ele>
        <time>2022-10-30T12:11:31Z</time>
      </trkpt>
      <trkpt lat="43.21198" lon="6.32676">
        <ele>444.1</ele>
        <time>2022-10-30T12:11:47Z</time>
      </trkpt>
      <trkpt lat="43.21201" lon="6.32664">
        <ele>439.2</ele>
        <time>2022-10-30T12:12:12Z</time>
      </trkpt>
      <trkpt lat="43.21205" lon="6.32652">
        <ele>436.7</ele>
        <time>2022-10-30T12:12:28Z</time>
      </trkpt>
      <trkpt lat="43.21213" lon="6.32646">
        <ele>434.3</ele>
        <time>2022-10-30T12:12:40Z</time>
      </trkpt>
      <trkpt lat="43.21216" lon="6.32635">
        <ele>432.8</ele>
        <time>2022-10-30T12:12:57Z</time>
      </trkpt>
      <trkpt lat="43.21224" lon="6.32627">
        <ele>431.1</ele>
        <time>2022-10-30T12:13:18Z</time>
      </trkpt>
      <trkpt lat="43.2123" lon="6.32618">
        <ele>429.5</ele>
        <time>2022-10-30T12:13:30Z</time>
      </trkpt>
      <trkpt lat="43.21239" lon="6.32613">
        <ele>427.9</ele>
        <time>2022-10-30T12:13:43Z</time>
      </trkpt>
      <trkpt lat="43.21248" lon="6.3261">
        <ele>423.3</ele>
        <time>2022-10-30T12:13:58Z</time>
      </trkpt>
      <trkpt lat="43.21247" lon="6.3261">
        <ele>423.1</ele>
        <time>2022-10-30T12:13:59Z</time>
      </trkpt>
      <trkpt lat="43.21253" lon="6.32601">
        <ele>419.8</ele>
        <time>2022-10-30T12:14:15Z</time>
      </trkpt>
      <trkpt lat="43.21254" lon="6.32588">
        <ele>419.6</ele>
        <time>2022-10-30T12:14:25Z</time>
      </trkpt>
      <trkpt lat="43.21264" lon="6.32586">
        <ele>418.3</ele>
        <time>2022-10-30T12:14:34Z</time>
      </trkpt>
      <trkpt lat="43.21271" lon="6.32578">
        <ele>417</ele>
        <time>2022-10-30T12:14:41Z</time>
      </trkpt>
      <trkpt lat="43.2128" lon="6.32571">
        <ele>417.1</ele>
        <time>2022-10-30T12:14:50Z</time>
      </trkpt>
      <trkpt lat="43.21287" lon="6.32562">
        <ele>416.4</ele>
        <time>2022-10-30T12:15:04Z</time>
      </trkpt>
      <trkpt lat="43.21294" lon="6.32554">
        <ele>415</ele>
        <time>2022-10-30T12:15:15Z</time>
      </trkpt>
      <trkpt lat="43.21301" lon="6.32546">
        <ele>412.6</ele>
        <time>2022-10-30T12:15:27Z</time>
      </trkpt>
      <trkpt lat="43.21302" lon="6.32533">
        <ele>408.6</ele>
        <time>2022-10-30T12:15:39Z</time>
      </trkpt>
      <trkpt lat="43.21307" lon="6.32522">
        <ele>405.3</ele>
        <time>2022-10-30T12:15:57Z</time>
      </trkpt>
      <trkpt lat="43.21312" lon="6.3251">
        <ele>401.6</ele>
        <time>2022-10-30T12:16:24Z</time>
      </trkpt>
      <trkpt lat="43.21311" lon="6.32508">
        <ele>400.8</ele>
        <time>2022-10-30T12:16:38Z</time>
      </trkpt>
      <trkpt lat="43.21311" lon="6.32508">
        <ele>400.5</ele>
        <time>2022-10-30T12:16:39Z</time>
      </trkpt>
      <trkpt lat="43.21311" lon="6.32508">
        <ele>400.3</ele>
        <time>2022-10-30T12:16:40Z</time>
      </trkpt>
      <trkpt lat="43.21311" lon="6.32509">
        <ele>400.1</ele>
        <time>2022-10-30T12:16:41Z</time>
      </trkpt>
      <trkpt lat="43.21312" lon="6.32507">
        <ele>399.1</ele>
        <time>2022-10-30T12:16:48Z</time>
      </trkpt>
      <trkpt lat="43.21312" lon="6.32508">
        <ele>398.9</ele>
        <time>2022-10-30T12:16:49Z</time>
      </trkpt>
      <trkpt lat="43.21314" lon="6.32507">
        <ele>395.5</ele>
        <time>2022-10-30T12:17:07Z</time>
      </trkpt>
      <trkpt lat="43.21314" lon="6.32507">
        <ele>395.3</ele>
        <time>2022-10-30T12:17:08Z</time>
      </trkpt>
      <trkpt lat="43.21311" lon="6.32508">
        <ele>393.6</ele>
        <time>2022-10-30T12:17:18Z</time>
      </trkpt>
      <trkpt lat="43.21312" lon="6.32508">
        <ele>393.5</ele>
        <time>2022-10-30T12:17:19Z</time>
      </trkpt>
      <trkpt lat="43.21313" lon="6.32507">
        <ele>392.3</ele>
        <time>2022-10-30T12:17:31Z</time>
      </trkpt>
      <trkpt lat="43.21313" lon="6.32507">
        <ele>392.4</ele>
        <time>2022-10-30T12:17:32Z</time>
      </trkpt>
      <trkpt lat="43.2132" lon="6.32515">
        <ele>390.6</ele>
        <time>2022-10-30T12:17:46Z</time>
      </trkpt>
      <trkpt lat="43.2133" lon="6.32515">
        <ele>388.6</ele>
        <time>2022-10-30T12:18:05Z</time>
      </trkpt>
      <trkpt lat="43.21336" lon="6.32526">
        <ele>387</ele>
        <time>2022-10-30T12:18:13Z</time>
      </trkpt>
      <trkpt lat="43.21339" lon="6.32539">
        <ele>384.9</ele>
        <time>2022-10-30T12:18:26Z</time>
      </trkpt>
      <trkpt lat="43.21344" lon="6.32551">
        <ele>383.4</ele>
        <time>2022-10-30T12:18:48Z</time>
      </trkpt>
      <trkpt lat="43.21346" lon="6.32564">
        <ele>383.2</ele>
        <time>2022-10-30T12:18:57Z</time>
      </trkpt>
      <trkpt lat="43.21351" lon="6.32574">
        <ele>383.1</ele>
        <time>2022-10-30T12:19:02Z</time>
      </trkpt>
      <trkpt lat="43.21355" lon="6.32586">
        <ele>383.3</ele>
        <time>2022-10-30T12:19:09Z</time>
      </trkpt>
      <trkpt lat="43.21355" lon="6.32587">
        <ele>383.4</ele>
        <time>2022-10-30T12:19:11Z</time>
      </trkpt>
      <trkpt lat="43.21355" lon="6.32588">
        <ele>383.3</ele>
        <time>2022-10-30T12:19:12Z</time>
      </trkpt>
      <trkpt lat="43.21354" lon="6.32601">
        <ele>381.8</ele>
        <time>2022-10-30T12:19:17Z</time>
      </trkpt>
      <trkpt lat="43.21357" lon="6.32613">
        <ele>380.7</ele>
        <time>2022-10-30T12:19:24Z</time>
      </trkpt>
      <trkpt lat="43.21359" lon="6.32627">
        <ele>380.6</ele>
        <time>2022-10-30T12:19:32Z</time>
      </trkpt>
      <trkpt lat="43.21356" lon="6.3264">
        <ele>380.5</ele>
        <time>2022-10-30T12:19:39Z</time>
      </trkpt>
      <trkpt lat="43.21352" lon="6.32651">
        <ele>379.1</ele>
        <time>2022-10-30T12:19:48Z</time>
      </trkpt>
      <trkpt lat="43.21349" lon="6.32663">
        <ele>378.2</ele>
        <time>2022-10-30T12:19:57Z</time>
      </trkpt>
      <trkpt lat="43.21345" lon="6.32675">
        <ele>378.6</ele>
        <time>2022-10-30T12:20:07Z</time>
      </trkpt>
      <trkpt lat="43.21339" lon="6.32686">
        <ele>378.5</ele>
        <time>2022-10-30T12:20:15Z</time>
      </trkpt>
      <trkpt lat="43.21334" lon="6.32698">
        <ele>377.6</ele>
        <time>2022-10-30T12:20:26Z</time>
      </trkpt>
      <trkpt lat="43.21328" lon="6.32708">
        <ele>377.5</ele>
        <time>2022-10-30T12:20:34Z</time>
      </trkpt>
      <trkpt lat="43.21324" lon="6.32719">
        <ele>377.9</ele>
        <time>2022-10-30T12:20:46Z</time>
      </trkpt>
      <trkpt lat="43.21327" lon="6.32732">
        <ele>378.4</ele>
        <time>2022-10-30T12:21:00Z</time>
      </trkpt>
      <trkpt lat="43.21327" lon="6.32744">
        <ele>377.2</ele>
        <time>2022-10-30T12:21:17Z</time>
      </trkpt>
      <trkpt lat="43.21325" lon="6.32745">
        <ele>376.6</ele>
        <time>2022-10-30T12:21:23Z</time>
      </trkpt>
      <trkpt lat="43.21326" lon="6.32745">
        <ele>376.5</ele>
        <time>2022-10-30T12:21:24Z</time>
      </trkpt>
      <trkpt lat="43.21332" lon="6.32755">
        <ele>376.1</ele>
        <time>2022-10-30T12:21:31Z</time>
      </trkpt>
      <trkpt lat="43.2134" lon="6.32763">
        <ele>374.8</ele>
        <time>2022-10-30T12:21:41Z</time>
      </trkpt>
      <trkpt lat="43.21348" lon="6.32767">
        <ele>374.2</ele>
        <time>2022-10-30T12:21:47Z</time>
      </trkpt>
      <trkpt lat="43.21358" lon="6.32766">
        <ele>374.3</ele>
        <time>2022-10-30T12:21:55Z</time>
      </trkpt>
      <trkpt lat="43.21366" lon="6.32771">
        <ele>374.5</ele>
        <time>2022-10-30T12:22:05Z</time>
      </trkpt>
      <trkpt lat="43.21375" lon="6.32766">
        <ele>374.3</ele>
        <time>2022-10-30T12:22:12Z</time>
      </trkpt>
      <trkpt lat="43.21385" lon="6.32766">
        <ele>373.4</ele>
        <time>2022-10-30T12:22:21Z</time>
      </trkpt>
      <trkpt lat="43.21393" lon="6.32763">
        <ele>372.1</ele>
        <time>2022-10-30T12:22:28Z</time>
      </trkpt>
      <trkpt lat="43.21402" lon="6.32767">
        <ele>371.6</ele>
        <time>2022-10-30T12:22:42Z</time>
      </trkpt>
      <trkpt lat="43.21412" lon="6.32769">
        <ele>370</ele>
        <time>2022-10-30T12:22:54Z</time>
      </trkpt>
      <trkpt lat="43.21418" lon="6.3278">
        <ele>368.9</ele>
        <time>2022-10-30T12:23:05Z</time>
      </trkpt>
      <trkpt lat="43.21427" lon="6.32774">
        <ele>367.6</ele>
        <time>2022-10-30T12:23:13Z</time>
      </trkpt>
      <trkpt lat="43.21437" lon="6.32772">
        <ele>366.5</ele>
        <time>2022-10-30T12:23:21Z</time>
      </trkpt>
      <trkpt lat="43.21447" lon="6.32772">
        <ele>366.2</ele>
        <time>2022-10-30T12:23:31Z</time>
      </trkpt>
      <trkpt lat="43.21456" lon="6.32773">
        <ele>365.1</ele>
        <time>2022-10-30T12:23:44Z</time>
      </trkpt>
      <trkpt lat="43.21466" lon="6.3277">
        <ele>363.1</ele>
        <time>2022-10-30T12:23:51Z</time>
      </trkpt>
      <trkpt lat="43.21475" lon="6.32773">
        <ele>357.9</ele>
        <time>2022-10-30T12:24:11Z</time>
      </trkpt>
      <trkpt lat="43.21483" lon="6.32779">
        <ele>354.9</ele>
        <time>2022-10-30T12:24:38Z</time>
      </trkpt>
      <trkpt lat="43.21488" lon="6.32768">
        <ele>353.5</ele>
        <time>2022-10-30T12:24:53Z</time>
      </trkpt>
      <trkpt lat="43.21495" lon="6.32766">
        <ele>351.2</ele>
        <time>2022-10-30T12:25:02Z</time>
      </trkpt>
      <trkpt lat="43.21495" lon="6.32765">
        <ele>351.1</ele>
        <time>2022-10-30T12:25:03Z</time>
      </trkpt>
      <trkpt lat="43.21487" lon="6.32757">
        <ele>350.3</ele>
        <time>2022-10-30T12:25:11Z</time>
      </trkpt>
      <trkpt lat="43.21479" lon="6.32751">
        <ele>350.1</ele>
        <time>2022-10-30T12:25:15Z</time>
      </trkpt>
      <trkpt lat="43.21473" lon="6.32741">
        <ele>349.5</ele>
        <time>2022-10-30T12:25:23Z</time>
      </trkpt>
      <trkpt lat="43.2147" lon="6.32729">
        <ele>349.6</ele>
        <time>2022-10-30T12:25:35Z</time>
      </trkpt>
      <trkpt lat="43.21465" lon="6.32718">
        <ele>348.6</ele>
        <time>2022-10-30T12:25:46Z</time>
      </trkpt>
      <trkpt lat="43.21457" lon="6.32712">
        <ele>348.5</ele>
        <time>2022-10-30T12:25:57Z</time>
      </trkpt>
      <trkpt lat="43.21448" lon="6.32708">
        <ele>348.9</ele>
        <time>2022-10-30T12:26:06Z</time>
      </trkpt>
      <trkpt lat="43.21455" lon="6.32699">
        <ele>343.1</ele>
        <time>2022-10-30T12:26:35Z</time>
      </trkpt>
      <trkpt lat="43.21464" lon="6.32702">
        <ele>341.6</ele>
        <time>2022-10-30T12:26:45Z</time>
      </trkpt>
      <trkpt lat="43.21473" lon="6.32699">
        <ele>339.9</ele>
        <time>2022-10-30T12:27:01Z</time>
      </trkpt>
      <trkpt lat="43.21483" lon="6.32696">
        <ele>339.6</ele>
        <time>2022-10-30T12:27:11Z</time>
      </trkpt>
      <trkpt lat="43.21492" lon="6.32696">
        <ele>338.3</ele>
        <time>2022-10-30T12:27:18Z</time>
      </trkpt>
      <trkpt lat="43.21501" lon="6.32695">
        <ele>337</ele>
        <time>2022-10-30T12:27:31Z</time>
      </trkpt>
      <trkpt lat="43.2151" lon="6.32697">
        <ele>333.5</ele>
        <time>2022-10-30T12:27:43Z</time>
      </trkpt>
      <trkpt lat="43.21519" lon="6.32696">
        <ele>330.7</ele>
        <time>2022-10-30T12:27:56Z</time>
      </trkpt>
      <trkpt lat="43.21528" lon="6.32695">
        <ele>329</ele>
        <time>2022-10-30T12:28:09Z</time>
      </trkpt>
      <trkpt lat="43.21537" lon="6.32698">
        <ele>326.5</ele>
        <time>2022-10-30T12:28:21Z</time>
      </trkpt>
      <trkpt lat="43.21547" lon="6.32699">
        <ele>324.1</ele>
        <time>2022-10-30T12:28:34Z</time>
      </trkpt>
      <trkpt lat="43.21551" lon="6.32701">
        <ele>321.1</ele>
        <time>2022-10-30T12:28:43Z</time>
      </trkpt>
      <trkpt lat="43.21551" lon="6.32701">
        <ele>320.9</ele>
        <time>2022-10-30T12:28:44Z</time>
      </trkpt>
      <trkpt lat="43.21552" lon="6.32701">
        <ele>320.5</ele>
        <time>2022-10-30T12:28:46Z</time>
      </trkpt>
      <trkpt lat="43.21552" lon="6.32701">
        <ele>320.2</ele>
        <time>2022-10-30T12:28:47Z</time>
      </trkpt>
      <trkpt lat="43.21551" lon="6.32699">
        <ele>317.9</ele>
        <time>2022-10-30T12:28:53Z</time>
      </trkpt>
      <trkpt lat="43.2155" lon="6.32699">
        <ele>317.6</ele>
        <time>2022-10-30T12:28:54Z</time>
      </trkpt>
      <trkpt lat="43.2155" lon="6.32692">
        <ele>315.6</ele>
        <time>2022-10-30T12:29:06Z</time>
      </trkpt>
      <trkpt lat="43.2155" lon="6.32692">
        <ele>315.4</ele>
        <time>2022-10-30T12:29:07Z</time>
      </trkpt>
      <trkpt lat="43.21551" lon="6.32688">
        <ele>313.6</ele>
        <time>2022-10-30T12:29:20Z</time>
      </trkpt>
      <trkpt lat="43.21551" lon="6.32687">
        <ele>313.3</ele>
        <time>2022-10-30T12:29:21Z</time>
      </trkpt>
      <trkpt lat="43.21545" lon="6.32675">
        <ele>311.8</ele>
        <time>2022-10-30T12:29:29Z</time>
      </trkpt>
      <trkpt lat="43.21537" lon="6.32666">
        <ele>311.2</ele>
        <time>2022-10-30T12:29:34Z</time>
      </trkpt>
      <trkpt lat="43.21531" lon="6.32655">
        <ele>310.6</ele>
        <time>2022-10-30T12:29:41Z</time>
      </trkpt>
      <trkpt lat="43.21523" lon="6.32647">
        <ele>310.3</ele>
        <time>2022-10-30T12:29:47Z</time>
      </trkpt>
      <trkpt lat="43.21518" lon="6.32636">
        <ele>308.1</ele>
        <time>2022-10-30T12:30:01Z</time>
      </trkpt>
      <trkpt lat="43.21511" lon="6.32627">
        <ele>306.8</ele>
        <time>2022-10-30T12:30:11Z</time>
      </trkpt>
      <trkpt lat="43.21518" lon="6.3262">
        <ele>302.3</ele>
        <time>2022-10-30T12:30:45Z</time>
      </trkpt>
      <trkpt lat="43.21528" lon="6.3262">
        <ele>301.1</ele>
        <time>2022-10-30T12:30:54Z</time>
      </trkpt>
      <trkpt lat="43.21537" lon="6.32622">
        <ele>298</ele>
        <time>2022-10-30T12:31:12Z</time>
      </trkpt>
      <trkpt lat="43.21547" lon="6.32622">
        <ele>296.8</ele>
        <time>2022-10-30T12:31:23Z</time>
      </trkpt>
      <trkpt lat="43.21556" lon="6.32617">
        <ele>294.8</ele>
        <time>2022-10-30T12:31:35Z</time>
      </trkpt>
      <trkpt lat="43.21565" lon="6.32611">
        <ele>292.4</ele>
        <time>2022-10-30T12:31:48Z</time>
      </trkpt>
      <trkpt lat="43.21573" lon="6.32606">
        <ele>291.6</ele>
        <time>2022-10-30T12:31:56Z</time>
      </trkpt>
      <trkpt lat="43.21582" lon="6.32607">
        <ele>290.8</ele>
        <time>2022-10-30T12:32:08Z</time>
      </trkpt>
      <trkpt lat="43.2159" lon="6.32601">
        <ele>288.5</ele>
        <time>2022-10-30T12:32:17Z</time>
      </trkpt>
      <trkpt lat="43.21599" lon="6.32596">
        <ele>287</ele>
        <time>2022-10-30T12:32:28Z</time>
      </trkpt>
      <trkpt lat="43.21608" lon="6.32596">
        <ele>285.9</ele>
        <time>2022-10-30T12:32:39Z</time>
      </trkpt>
      <trkpt lat="43.21617" lon="6.326">
        <ele>285</ele>
        <time>2022-10-30T12:32:49Z</time>
      </trkpt>
      <trkpt lat="43.21622" lon="6.32587">
        <ele>274.5</ele>
        <time>2022-10-30T12:33:27Z</time>
      </trkpt>
      <trkpt lat="43.21619" lon="6.32575">
        <ele>273</ele>
        <time>2022-10-30T12:33:36Z</time>
      </trkpt>
      <trkpt lat="43.21618" lon="6.32561">
        <ele>271.3</ele>
        <time>2022-10-30T12:33:48Z</time>
      </trkpt>
      <trkpt lat="43.21619" lon="6.32547">
        <ele>269.9</ele>
        <time>2022-10-30T12:34:00Z</time>
      </trkpt>
      <trkpt lat="43.21623" lon="6.32535">
        <ele>269.5</ele>
        <time>2022-10-30T12:34:08Z</time>
      </trkpt>
      <trkpt lat="43.21628" lon="6.32523">
        <ele>268</ele>
        <time>2022-10-30T12:34:16Z</time>
      </trkpt>
      <trkpt lat="43.2163" lon="6.3251">
        <ele>265</ele>
        <time>2022-10-30T12:34:26Z</time>
      </trkpt>
      <trkpt lat="43.21626" lon="6.32499">
        <ele>264</ele>
        <time>2022-10-30T12:34:34Z</time>
      </trkpt>
      <trkpt lat="43.21626" lon="6.32486">
        <ele>263.4</ele>
        <time>2022-10-30T12:34:40Z</time>
      </trkpt>
      <trkpt lat="43.21621" lon="6.32475">
        <ele>261.6</ele>
        <time>2022-10-30T12:34:51Z</time>
      </trkpt>
      <trkpt lat="43.21622" lon="6.32467">
        <ele>258.5</ele>
        <time>2022-10-30T12:35:14Z</time>
      </trkpt>
      <trkpt lat="43.21622" lon="6.32467">
        <ele>258.4</ele>
        <time>2022-10-30T12:35:15Z</time>
      </trkpt>
      <trkpt lat="43.21629" lon="6.32473">
        <ele>256</ele>
        <time>2022-10-30T12:35:24Z</time>
      </trkpt>
      <trkpt lat="43.21629" lon="6.32473">
        <ele>255.6</ele>
        <time>2022-10-30T12:35:25Z</time>
      </trkpt>
      <trkpt lat="43.21624" lon="6.32462">
        <ele>254.6</ele>
        <time>2022-10-30T12:35:34Z</time>
      </trkpt>
      <trkpt lat="43.21622" lon="6.32448">
        <ele>254.3</ele>
        <time>2022-10-30T12:35:42Z</time>
      </trkpt>
      <trkpt lat="43.21626" lon="6.32436">
        <ele>253.7</ele>
        <time>2022-10-30T12:35:51Z</time>
      </trkpt>
      <trkpt lat="43.21627" lon="6.32424">
        <ele>253.5</ele>
        <time>2022-10-30T12:35:59Z</time>
      </trkpt>
      <trkpt lat="43.21633" lon="6.32412">
        <ele>251.4</ele>
        <time>2022-10-30T12:36:15Z</time>
      </trkpt>
      <trkpt lat="43.2164" lon="6.32404">
        <ele>250.7</ele>
        <time>2022-10-30T12:36:22Z</time>
      </trkpt>
      <trkpt lat="43.21641" lon="6.32392">
        <ele>249.5</ele>
        <time>2022-10-30T12:36:26Z</time>
      </trkpt>
      <trkpt lat="43.21639" lon="6.32377">
        <ele>248.2</ele>
        <time>2022-10-30T12:36:31Z</time>
      </trkpt>
      <trkpt lat="43.21639" lon="6.32364">
        <ele>247.8</ele>
        <time>2022-10-30T12:36:36Z</time>
      </trkpt>
      <trkpt lat="43.21645" lon="6.32355">
        <ele>247.6</ele>
        <time>2022-10-30T12:36:46Z</time>
      </trkpt>
      <trkpt lat="43.21651" lon="6.32345">
        <ele>248.2</ele>
        <time>2022-10-30T12:36:54Z</time>
      </trkpt>
      <trkpt lat="43.21655" lon="6.32333">
        <ele>248.7</ele>
        <time>2022-10-30T12:37:02Z</time>
      </trkpt>
      <trkpt lat="43.21659" lon="6.32321">
        <ele>248.5</ele>
        <time>2022-10-30T12:37:15Z</time>
      </trkpt>
      <trkpt lat="43.2166" lon="6.32307">
        <ele>248.6</ele>
        <time>2022-10-30T12:37:25Z</time>
      </trkpt>
      <trkpt lat="43.21662" lon="6.32294">
        <ele>248.8</ele>
        <time>2022-10-30T12:37:31Z</time>
      </trkpt>
      <trkpt lat="43.21663" lon="6.32289">
        <ele>248.6</ele>
        <time>2022-10-30T12:37:37Z</time>
      </trkpt>
      <trkpt lat="43.21663" lon="6.32289">
        <ele>248.5</ele>
        <time>2022-10-30T12:37:38Z</time>
      </trkpt>
      <trkpt lat="43.21663" lon="6.32289">
        <ele>248.5</ele>
        <time>2022-10-30T12:37:39Z</time>
      </trkpt>
      <trkpt lat="43.21663" lon="6.32289">
        <ele>248.6</ele>
        <time>2022-10-30T12:37:40Z</time>
      </trkpt>
      <trkpt lat="43.21663" lon="6.3229">
        <ele>248.4</ele>
        <time>2022-10-30T12:37:42Z</time>
      </trkpt>
      <trkpt lat="43.21663" lon="6.32289">
        <ele>248.3</ele>
        <time>2022-10-30T12:37:44Z</time>
      </trkpt>
      <trkpt lat="43.21666" lon="6.32276">
        <ele>245.2</ele>
        <time>2022-10-30T12:38:13Z</time>
      </trkpt>
      <trkpt lat="43.21667" lon="6.32274">
        <ele>245.5</ele>
        <time>2022-10-30T12:38:19Z</time>
      </trkpt>
      <trkpt lat="43.21666" lon="6.32274">
        <ele>245.7</ele>
        <time>2022-10-30T12:38:20Z</time>
      </trkpt>
      <trkpt lat="43.21663" lon="6.32262">
        <ele>246.4</ele>
        <time>2022-10-30T12:38:28Z</time>
      </trkpt>
      <trkpt lat="43.21659" lon="6.32248">
        <ele>246.6</ele>
        <time>2022-10-30T12:38:34Z</time>
      </trkpt>
      <trkpt lat="43.21659" lon="6.32235">
        <ele>245.4</ele>
        <time>2022-10-30T12:38:40Z</time>
      </trkpt>
      <trkpt lat="43.21655" lon="6.32223">
        <ele>243.7</ele>
        <time>2022-10-30T12:38:49Z</time>
      </trkpt>
      <trkpt lat="43.2165" lon="6.32212">
        <ele>242.5</ele>
        <time>2022-10-30T12:39:01Z</time>
      </trkpt>
      <trkpt lat="43.21644" lon="6.32202">
        <ele>241.6</ele>
        <time>2022-10-30T12:39:07Z</time>
      </trkpt>
      <trkpt lat="43.21638" lon="6.32192">
        <ele>240.6</ele>
        <time>2022-10-30T12:39:14Z</time>
      </trkpt>
      <trkpt lat="43.21632" lon="6.32182">
        <ele>239.8</ele>
        <time>2022-10-30T12:39:25Z</time>
      </trkpt>
      <trkpt lat="43.21625" lon="6.32173">
        <ele>239.6</ele>
        <time>2022-10-30T12:39:38Z</time>
      </trkpt>
      <trkpt lat="43.21616" lon="6.32166">
        <ele>239.2</ele>
        <time>2022-10-30T12:39:49Z</time>
      </trkpt>
      <trkpt lat="43.21607" lon="6.32159">
        <ele>239.1</ele>
        <time>2022-10-30T12:39:55Z</time>
      </trkpt>
      <trkpt lat="43.21607" lon="6.32157">
        <ele>238.5</ele>
        <time>2022-10-30T12:40:02Z</time>
      </trkpt>
      <trkpt lat="43.21606" lon="6.32158">
        <ele>238.4</ele>
        <time>2022-10-30T12:40:03Z</time>
      </trkpt>
      <trkpt lat="43.216" lon="6.32153">
        <ele>236.9</ele>
        <time>2022-10-30T12:40:31Z</time>
      </trkpt>
      <trkpt lat="43.21601" lon="6.32153">
        <ele>236.8</ele>
        <time>2022-10-30T12:40:32Z</time>
      </trkpt>
      <trkpt lat="43.21609" lon="6.32149">
        <ele>236</ele>
        <time>2022-10-30T12:40:46Z</time>
      </trkpt>
      <trkpt lat="43.21619" lon="6.3215">
        <ele>235.5</ele>
        <time>2022-10-30T12:40:57Z</time>
      </trkpt>
      <trkpt lat="43.21628" lon="6.32152">
        <ele>234.9</ele>
        <time>2022-10-30T12:41:07Z</time>
      </trkpt>
      <trkpt lat="43.21637" lon="6.3215">
        <ele>233.3</ele>
        <time>2022-10-30T12:41:20Z</time>
      </trkpt>
      <trkpt lat="43.21645" lon="6.32144">
        <ele>232.3</ele>
        <time>2022-10-30T12:41:27Z</time>
      </trkpt>
      <trkpt lat="43.21653" lon="6.32136">
        <ele>232.2</ele>
        <time>2022-10-30T12:41:33Z</time>
      </trkpt>
      <trkpt lat="43.21662" lon="6.32135">
        <ele>231.1</ele>
        <time>2022-10-30T12:41:46Z</time>
      </trkpt>
      <trkpt lat="43.21671" lon="6.32129">
        <ele>231.9</ele>
        <time>2022-10-30T12:41:58Z</time>
      </trkpt>
      <trkpt lat="43.21679" lon="6.32121">
        <ele>231.8</ele>
        <time>2022-10-30T12:42:05Z</time>
      </trkpt>
      <trkpt lat="43.21688" lon="6.32117">
        <ele>230.2</ele>
        <time>2022-10-30T12:42:14Z</time>
      </trkpt>
      <trkpt lat="43.21696" lon="6.32122">
        <ele>229.8</ele>
        <time>2022-10-30T12:42:23Z</time>
      </trkpt>
      <trkpt lat="43.21706" lon="6.3212">
        <ele>229.8</ele>
        <time>2022-10-30T12:42:31Z</time>
      </trkpt>
      <trkpt lat="43.21715" lon="6.32124">
        <ele>230.1</ele>
        <time>2022-10-30T12:42:40Z</time>
      </trkpt>
      <trkpt lat="43.21724" lon="6.3212">
        <ele>228.6</ele>
        <time>2022-10-30T12:42:50Z</time>
      </trkpt>
      <trkpt lat="43.21734" lon="6.32121">
        <ele>227.9</ele>
        <time>2022-10-30T12:42:57Z</time>
      </trkpt>
      <trkpt lat="43.21743" lon="6.32123">
        <ele>229.3</ele>
        <time>2022-10-30T12:43:07Z</time>
      </trkpt>
      <trkpt lat="43.21749" lon="6.32133">
        <ele>228.2</ele>
        <time>2022-10-30T12:43:15Z</time>
      </trkpt>
      <trkpt lat="43.21758" lon="6.3214">
        <ele>226.8</ele>
        <time>2022-10-30T12:43:23Z</time>
      </trkpt>
      <trkpt lat="43.21767" lon="6.32145">
        <ele>226</ele>
        <time>2022-10-30T12:43:29Z</time>
      </trkpt>
      <trkpt lat="43.21772" lon="6.32147">
        <ele>226.3</ele>
        <time>2022-10-30T12:43:34Z</time>
      </trkpt>
      <trkpt lat="43.21773" lon="6.32147">
        <ele>226.4</ele>
        <time>2022-10-30T12:43:35Z</time>
      </trkpt>
      <trkpt lat="43.21782" lon="6.32148">
        <ele>226.6</ele>
        <time>2022-10-30T12:43:44Z</time>
      </trkpt>
      <trkpt lat="43.21792" lon="6.32155">
        <ele>226.5</ele>
        <time>2022-10-30T12:43:56Z</time>
      </trkpt>
      <trkpt lat="43.21803" lon="6.32157">
        <ele>226.4</ele>
        <time>2022-10-30T12:44:03Z</time>
      </trkpt>
      <trkpt lat="43.21812" lon="6.32156">
        <ele>226.4</ele>
        <time>2022-10-30T12:44:12Z</time>
      </trkpt>
      <trkpt lat="43.21823" lon="6.32156">
        <ele>225.6</ele>
        <time>2022-10-30T12:44:20Z</time>
      </trkpt>
      <trkpt lat="43.21831" lon="6.32161">
        <ele>224.9</ele>
        <time>2022-10-30T12:44:25Z</time>
      </trkpt>
      <trkpt lat="43.2184" lon="6.32169">
        <ele>223.9</ele>
        <time>2022-10-30T12:44:33Z</time>
      </trkpt>
      <trkpt lat="43.21849" lon="6.32173">
        <ele>223.3</ele>
        <time>2022-10-30T12:44:40Z</time>
      </trkpt>
      <trkpt lat="43.21858" lon="6.32178">
        <ele>223.5</ele>
        <time>2022-10-30T12:44:47Z</time>
      </trkpt>
      <trkpt lat="43.21865" lon="6.32188">
        <ele>223.3</ele>
        <time>2022-10-30T12:44:58Z</time>
      </trkpt>
      <trkpt lat="43.21872" lon="6.32195">
        <ele>223.1</ele>
        <time>2022-10-30T12:45:07Z</time>
      </trkpt>
      <trkpt lat="43.21876" lon="6.32209">
        <ele>220.8</ele>
        <time>2022-10-30T12:45:15Z</time>
      </trkpt>
      <trkpt lat="43.21883" lon="6.32217">
        <ele>221.7</ele>
        <time>2022-10-30T12:45:22Z</time>
      </trkpt>
      <trkpt lat="43.21892" lon="6.32224">
        <ele>222.1</ele>
        <time>2022-10-30T12:45:31Z</time>
      </trkpt>
      <trkpt lat="43.21899" lon="6.32234">
        <ele>222.3</ele>
        <time>2022-10-30T12:45:39Z</time>
      </trkpt>
      <trkpt lat="43.21903" lon="6.32246">
        <ele>223.1</ele>
        <time>2022-10-30T12:45:46Z</time>
      </trkpt>
      <trkpt lat="43.21906" lon="6.32259">
        <ele>224.2</ele>
        <time>2022-10-30T12:45:57Z</time>
      </trkpt>
      <trkpt lat="43.21911" lon="6.32269">
        <ele>223.3</ele>
        <time>2022-10-30T12:46:04Z</time>
      </trkpt>
      <trkpt lat="43.21911" lon="6.32284">
        <ele>223</ele>
        <time>2022-10-30T12:46:13Z</time>
      </trkpt>
      <trkpt lat="43.21913" lon="6.32296">
        <ele>223.1</ele>
        <time>2022-10-30T12:46:20Z</time>
      </trkpt>
      <trkpt lat="43.21922" lon="6.32302">
        <ele>223.1</ele>
        <time>2022-10-30T12:46:32Z</time>
      </trkpt>
      <trkpt lat="43.21925" lon="6.32303">
        <ele>222.3</ele>
        <time>2022-10-30T12:46:37Z</time>
      </trkpt>
      <trkpt lat="43.21925" lon="6.32303">
        <ele>222.4</ele>
        <time>2022-10-30T12:46:38Z</time>
      </trkpt>
      <trkpt lat="43.21929" lon="6.32291">
        <ele>221.8</ele>
        <time>2022-10-30T12:46:56Z</time>
      </trkpt>
      <trkpt lat="43.21931" lon="6.32278">
        <ele>221.5</ele>
        <time>2022-10-30T12:47:09Z</time>
      </trkpt>
      <trkpt lat="43.21938" lon="6.32268">
        <ele>219.7</ele>
        <time>2022-10-30T12:47:19Z</time>
      </trkpt>
      <trkpt lat="43.21944" lon="6.32257">
        <ele>215.5</ele>
        <time>2022-10-30T12:47:28Z</time>
      </trkpt>
      <trkpt lat="43.21951" lon="6.32248">
        <ele>214.3</ele>
        <time>2022-10-30T12:47:37Z</time>
      </trkpt>
      <trkpt lat="43.21959" lon="6.32241">
        <ele>213.6</ele>
        <time>2022-10-30T12:47:46Z</time>
      </trkpt>
      <trkpt lat="43.21968" lon="6.32238">
        <ele>213.4</ele>
        <time>2022-10-30T12:47:56Z</time>
      </trkpt>
      <trkpt lat="43.21977" lon="6.32231">
        <ele>213.1</ele>
        <time>2022-10-30T12:48:08Z</time>
      </trkpt>
      <trkpt lat="43.21984" lon="6.32222">
        <ele>212.9</ele>
        <time>2022-10-30T12:48:12Z</time>
      </trkpt>
      <trkpt lat="43.21993" lon="6.32217">
        <ele>212.8</ele>
        <time>2022-10-30T12:48:17Z</time>
      </trkpt>
      <trkpt lat="43.22004" lon="6.32221">
        <ele>212.9</ele>
        <time>2022-10-30T12:48:20Z</time>
      </trkpt>
      <trkpt lat="43.22013" lon="6.32226">
        <ele>212.8</ele>
        <time>2022-10-30T12:48:22Z</time>
      </trkpt>
      <trkpt lat="43.22013" lon="6.32212">
        <ele>213.2</ele>
        <time>2022-10-30T12:48:30Z</time>
      </trkpt>
      <trkpt lat="43.2201" lon="6.32199">
        <ele>213.1</ele>
        <time>2022-10-30T12:48:38Z</time>
      </trkpt>
      <trkpt lat="43.22014" lon="6.32187">
        <ele>213.2</ele>
        <time>2022-10-30T12:48:46Z</time>
      </trkpt>
      <trkpt lat="43.22019" lon="6.32175">
        <ele>211.8</ele>
        <time>2022-10-30T12:48:55Z</time>
      </trkpt>
      <trkpt lat="43.2202" lon="6.32173">
        <ele>211.7</ele>
        <time>2022-10-30T12:48:59Z</time>
      </trkpt>
      <trkpt lat="43.2202" lon="6.32173">
        <ele>211.7</ele>
        <time>2022-10-30T12:49:00Z</time>
      </trkpt>
      <trkpt lat="43.22026" lon="6.32163">
        <ele>212.1</ele>
        <time>2022-10-30T12:49:11Z</time>
      </trkpt>
      <trkpt lat="43.22033" lon="6.32153">
        <ele>212.3</ele>
        <time>2022-10-30T12:49:20Z</time>
      </trkpt>
      <trkpt lat="43.22041" lon="6.32145">
        <ele>210.3</ele>
        <time>2022-10-30T12:49:30Z</time>
      </trkpt>
      <trkpt lat="43.22045" lon="6.32134">
        <ele>208.7</ele>
        <time>2022-10-30T12:49:48Z</time>
      </trkpt>
      <trkpt lat="43.22053" lon="6.32127">
        <ele>208.3</ele>
        <time>2022-10-30T12:50:02Z</time>
      </trkpt>
      <trkpt lat="43.22061" lon="6.3212">
        <ele>209.7</ele>
        <time>2022-10-30T12:50:14Z</time>
      </trkpt>
      <trkpt lat="43.22065" lon="6.32108">
        <ele>211.3</ele>
        <time>2022-10-30T12:50:25Z</time>
      </trkpt>
      <trkpt lat="43.22068" lon="6.32103">
        <ele>211</ele>
        <time>2022-10-30T12:50:33Z</time>
      </trkpt>
      <trkpt lat="43.22068" lon="6.32103">
        <ele>211</ele>
        <time>2022-10-30T12:50:36Z</time>
      </trkpt>
      <trkpt lat="43.22075" lon="6.32093">
        <ele>211.4</ele>
        <time>2022-10-30T12:50:43Z</time>
      </trkpt>
      <trkpt lat="43.22081" lon="6.32084">
        <ele>212.1</ele>
        <time>2022-10-30T12:50:51Z</time>
      </trkpt>
      <trkpt lat="43.22088" lon="6.32075">
        <ele>212.2</ele>
        <time>2022-10-30T12:50:58Z</time>
      </trkpt>
      <trkpt lat="43.22096" lon="6.32068">
        <ele>211.4</ele>
        <time>2022-10-30T12:51:06Z</time>
      </trkpt>
      <trkpt lat="43.22103" lon="6.3206">
        <ele>210.8</ele>
        <time>2022-10-30T12:51:13Z</time>
      </trkpt>
      <trkpt lat="43.22111" lon="6.32052">
        <ele>210.5</ele>
        <time>2022-10-30T12:51:19Z</time>
      </trkpt>
      <trkpt lat="43.22118" lon="6.32044">
        <ele>210.5</ele>
        <time>2022-10-30T12:51:27Z</time>
      </trkpt>
      <trkpt lat="43.22126" lon="6.32037">
        <ele>210.7</ele>
        <time>2022-10-30T12:51:37Z</time>
      </trkpt>
      <trkpt lat="43.22133" lon="6.32027">
        <ele>213.2</ele>
        <time>2022-10-30T12:51:54Z</time>
      </trkpt>
      <trkpt lat="43.2214" lon="6.32019">
        <ele>214.3</ele>
        <time>2022-10-30T12:52:03Z</time>
      </trkpt>
      <trkpt lat="43.22145" lon="6.3201">
        <ele>213.7</ele>
        <time>2022-10-30T12:52:13Z</time>
      </trkpt>
      <trkpt lat="43.22145" lon="6.3201">
        <ele>213.7</ele>
        <time>2022-10-30T12:52:14Z</time>
      </trkpt>
      <trkpt lat="43.22145" lon="6.3201">
        <ele>213.7</ele>
        <time>2022-10-30T12:52:15Z</time>
      </trkpt>
      <trkpt lat="43.22145" lon="6.3201">
        <ele>213.7</ele>
        <time>2022-10-30T12:52:16Z</time>
      </trkpt>
      <trkpt lat="43.22146" lon="6.32009">
        <ele>213.5</ele>
        <time>2022-10-30T12:52:18Z</time>
      </trkpt>
      <trkpt lat="43.22146" lon="6.32008">
        <ele>213.5</ele>
        <time>2022-10-30T12:52:20Z</time>
      </trkpt>
      <trkpt lat="43.22146" lon="6.32008">
        <ele>213.6</ele>
        <time>2022-10-30T12:52:22Z</time>
      </trkpt>
      <trkpt lat="43.22146" lon="6.32007">
        <ele>213.5</ele>
        <time>2022-10-30T12:52:24Z</time>
      </trkpt>
      <trkpt lat="43.22146" lon="6.32007">
        <ele>213.5</ele>
        <time>2022-10-30T12:52:25Z</time>
      </trkpt>
      <trkpt lat="43.22145" lon="6.32007">
        <ele>213.5</ele>
        <time>2022-10-30T12:52:26Z</time>
      </trkpt>
      <trkpt lat="43.22145" lon="6.32007">
        <ele>213.5</ele>
        <time>2022-10-30T12:52:27Z</time>
      </trkpt>
      <trkpt lat="43.22146" lon="6.32007">
        <ele>213.6</ele>
        <time>2022-10-30T12:52:29Z</time>
      </trkpt>
      <trkpt lat="43.22146" lon="6.32006">
        <ele>214.1</ele>
        <time>2022-10-30T12:52:32Z</time>
      </trkpt>
      <trkpt lat="43.22146" lon="6.32005">
        <ele>214.2</ele>
        <time>2022-10-30T12:52:34Z</time>
      </trkpt>
      <trkpt lat="43.22146" lon="6.32004">
        <ele>214.3</ele>
        <time>2022-10-30T12:52:36Z</time>
      </trkpt>
      <trkpt lat="43.22146" lon="6.32004">
        <ele>214.4</ele>
        <time>2022-10-30T12:52:37Z</time>
      </trkpt>
      <trkpt lat="43.22146" lon="6.32004">
        <ele>214.4</ele>
        <time>2022-10-30T12:52:39Z</time>
      </trkpt>
      <trkpt lat="43.22147" lon="6.32004">
        <ele>214.6</ele>
        <time>2022-10-30T12:52:42Z</time>
      </trkpt>
      <trkpt lat="43.22154" lon="6.31996">
        <ele>214.3</ele>
        <time>2022-10-30T12:53:02Z</time>
      </trkpt>
      <trkpt lat="43.2216" lon="6.31985">
        <ele>214.9</ele>
        <time>2022-10-30T12:53:11Z</time>
      </trkpt>
      <trkpt lat="43.22164" lon="6.31981">
        <ele>214.9</ele>
        <time>2022-10-30T12:53:22Z</time>
      </trkpt>
      <trkpt lat="43.22164" lon="6.3198">
        <ele>215.1</ele>
        <time>2022-10-30T12:53:31Z</time>
      </trkpt>
      <trkpt lat="43.22165" lon="6.31977">
        <ele>215.3</ele>
        <time>2022-10-30T12:53:38Z</time>
      </trkpt>
      <trkpt lat="43.22166" lon="6.31977">
        <ele>215.3</ele>
        <time>2022-10-30T12:53:39Z</time>
      </trkpt>
      <trkpt lat="43.22166" lon="6.31977">
        <ele>215.3</ele>
        <time>2022-10-30T12:53:41Z</time>
      </trkpt>
      <trkpt lat="43.22167" lon="6.31976">
        <ele>215.4</ele>
        <time>2022-10-30T12:53:42Z</time>
      </trkpt>
      <trkpt lat="43.22168" lon="6.31975">
        <ele>215</ele>
        <time>2022-10-30T12:53:49Z</time>
      </trkpt>
      <trkpt lat="43.22168" lon="6.31975">
        <ele>215</ele>
        <time>2022-10-30T12:53:50Z</time>
      </trkpt>
      <trkpt lat="43.22166" lon="6.31976">
        <ele>215.4</ele>
        <time>2022-10-30T12:53:55Z</time>
      </trkpt>
      <trkpt lat="43.22166" lon="6.31975">
        <ele>215.3</ele>
        <time>2022-10-30T12:54:05Z</time>
      </trkpt>
      <trkpt lat="43.22172" lon="6.31965">
        <ele>214.2</ele>
        <time>2022-10-30T12:54:22Z</time>
      </trkpt>
      <trkpt lat="43.22176" lon="6.31954">
        <ele>214.3</ele>
        <time>2022-10-30T12:54:33Z</time>
      </trkpt>
      <trkpt lat="43.22182" lon="6.31943">
        <ele>214.6</ele>
        <time>2022-10-30T12:54:43Z</time>
      </trkpt>
      <trkpt lat="43.22187" lon="6.31932">
        <ele>214.3</ele>
        <time>2022-10-30T12:54:56Z</time>
      </trkpt>
      <trkpt lat="43.22192" lon="6.31921">
        <ele>213.4</ele>
        <time>2022-10-30T12:55:04Z</time>
      </trkpt>
      <trkpt lat="43.22196" lon="6.31909">
        <ele>211.9</ele>
        <time>2022-10-30T12:55:10Z</time>
      </trkpt>
      <trkpt lat="43.22197" lon="6.31897">
        <ele>210.1</ele>
        <time>2022-10-30T12:55:17Z</time>
      </trkpt>
      <trkpt lat="43.222" lon="6.31884">
        <ele>210.6</ele>
        <time>2022-10-30T12:55:27Z</time>
      </trkpt>
      <trkpt lat="43.22204" lon="6.31872">
        <ele>209.8</ele>
        <time>2022-10-30T12:55:35Z</time>
      </trkpt>
      <trkpt lat="43.22207" lon="6.31859">
        <ele>208.4</ele>
        <time>2022-10-30T12:55:45Z</time>
      </trkpt>
      <trkpt lat="43.2221" lon="6.31846">
        <ele>207.1</ele>
        <time>2022-10-30T12:55:54Z</time>
      </trkpt>
      <trkpt lat="43.22211" lon="6.31833">
        <ele>206.6</ele>
        <time>2022-10-30T12:56:03Z</time>
      </trkpt>
      <trkpt lat="43.22217" lon="6.31821">
        <ele>206.5</ele>
        <time>2022-10-30T12:56:14Z</time>
      </trkpt>
      <trkpt lat="43.22222" lon="6.3181">
        <ele>207</ele>
        <time>2022-10-30T12:56:22Z</time>
      </trkpt>
      <trkpt lat="43.22227" lon="6.31798">
        <ele>204.8</ele>
        <time>2022-10-30T12:56:31Z</time>
      </trkpt>
      <trkpt lat="43.22231" lon="6.31795">
        <ele>202.1</ele>
        <time>2022-10-30T12:56:44Z</time>
      </trkpt>
      <trkpt lat="43.2223" lon="6.31795">
        <ele>202</ele>
        <time>2022-10-30T12:56:48Z</time>
      </trkpt>
      <trkpt lat="43.22236" lon="6.31785">
        <ele>201.1</ele>
        <time>2022-10-30T12:57:03Z</time>
      </trkpt>
      <trkpt lat="43.22242" lon="6.31775">
        <ele>200.8</ele>
        <time>2022-10-30T12:57:13Z</time>
      </trkpt>
      <trkpt lat="43.22247" lon="6.31762">
        <ele>200.2</ele>
        <time>2022-10-30T12:57:24Z</time>
      </trkpt>
      <trkpt lat="43.22254" lon="6.31751">
        <ele>198.8</ele>
        <time>2022-10-30T12:57:33Z</time>
      </trkpt>
      <trkpt lat="43.22259" lon="6.31741">
        <ele>198.8</ele>
        <time>2022-10-30T12:57:42Z</time>
      </trkpt>
      <trkpt lat="43.22266" lon="6.31731">
        <ele>199.6</ele>
        <time>2022-10-30T12:57:52Z</time>
      </trkpt>
      <trkpt lat="43.22274" lon="6.31723">
        <ele>199.2</ele>
        <time>2022-10-30T12:58:02Z</time>
      </trkpt>
      <trkpt lat="43.22281" lon="6.31713">
        <ele>198.7</ele>
        <time>2022-10-30T12:58:09Z</time>
      </trkpt>
      <trkpt lat="43.22288" lon="6.31703">
        <ele>198.3</ele>
        <time>2022-10-30T12:58:17Z</time>
      </trkpt>
      <trkpt lat="43.22295" lon="6.31693">
        <ele>197.8</ele>
        <time>2022-10-30T12:58:25Z</time>
      </trkpt>
      <trkpt lat="43.223" lon="6.31682">
        <ele>197.8</ele>
        <time>2022-10-30T12:58:37Z</time>
      </trkpt>
      <trkpt lat="43.22298" lon="6.3167">
        <ele>197.3</ele>
        <time>2022-10-30T12:58:47Z</time>
      </trkpt>
      <trkpt lat="43.22296" lon="6.31658">
        <ele>197.1</ele>
        <time>2022-10-30T12:58:56Z</time>
      </trkpt>
      <trkpt lat="43.22299" lon="6.31645">
        <ele>197.1</ele>
        <time>2022-10-30T12:59:04Z</time>
      </trkpt>
      <trkpt lat="43.22297" lon="6.31632">
        <ele>198.2</ele>
        <time>2022-10-30T12:59:12Z</time>
      </trkpt>
      <trkpt lat="43.22297" lon="6.31621">
        <ele>198.3</ele>
        <time>2022-10-30T12:59:24Z</time>
      </trkpt>
      <trkpt lat="43.22296" lon="6.31622">
        <ele>198.3</ele>
        <time>2022-10-30T12:59:32Z</time>
      </trkpt>
      <trkpt lat="43.22297" lon="6.31621">
        <ele>198.3</ele>
        <time>2022-10-30T12:59:38Z</time>
      </trkpt>
      <trkpt lat="43.22297" lon="6.31621">
        <ele>198.3</ele>
        <time>2022-10-30T12:59:43Z</time>
      </trkpt>
      <trkpt lat="43.22298" lon="6.3162">
        <ele>197.9</ele>
        <time>2022-10-30T12:59:47Z</time>
      </trkpt>
      <trkpt lat="43.22298" lon="6.3162">
        <ele>198.1</ele>
        <time>2022-10-30T12:59:55Z</time>
      </trkpt>
      <trkpt lat="43.22298" lon="6.3162">
        <ele>198.2</ele>
        <time>2022-10-30T12:59:56Z</time>
      </trkpt>
      <trkpt lat="43.22298" lon="6.31619">
        <ele>198.3</ele>
        <time>2022-10-30T12:59:57Z</time>
      </trkpt>
      <trkpt lat="43.22298" lon="6.31608">
        <ele>198.4</ele>
        <time>2022-10-30T13:00:06Z</time>
      </trkpt>
      <trkpt lat="43.22298" lon="6.31608">
        <ele>198.5</ele>
        <time>2022-10-30T13:00:10Z</time>
      </trkpt>
      <trkpt lat="43.22299" lon="6.31607">
        <ele>198.7</ele>
        <time>2022-10-30T13:00:15Z</time>
      </trkpt>
      <trkpt lat="43.22299" lon="6.31607">
        <ele>198.8</ele>
        <time>2022-10-30T13:00:19Z</time>
      </trkpt>
      <trkpt lat="43.22299" lon="6.31607">
        <ele>198.8</ele>
        <time>2022-10-30T13:00:21Z</time>
      </trkpt>
      <trkpt lat="43.22299" lon="6.31607">
        <ele>198.9</ele>
        <time>2022-10-30T13:00:24Z</time>
      </trkpt>
      <trkpt lat="43.22299" lon="6.31602">
        <ele>199.1</ele>
        <time>2022-10-30T13:00:32Z</time>
      </trkpt>
      <trkpt lat="43.22299" lon="6.31601">
        <ele>199.1</ele>
        <time>2022-10-30T13:00:36Z</time>
      </trkpt>
      <trkpt lat="43.22303" lon="6.31589">
        <ele>198.6</ele>
        <time>2022-10-30T13:00:45Z</time>
      </trkpt>
      <trkpt lat="43.22307" lon="6.31578">
        <ele>198.7</ele>
        <time>2022-10-30T13:00:53Z</time>
      </trkpt>
      <trkpt lat="43.22312" lon="6.31566">
        <ele>198.5</ele>
        <time>2022-10-30T13:01:01Z</time>
      </trkpt>
      <trkpt lat="43.22318" lon="6.31555">
        <ele>197.8</ele>
        <time>2022-10-30T13:01:08Z</time>
      </trkpt>
      <trkpt lat="43.22325" lon="6.31546">
        <ele>198.3</ele>
        <time>2022-10-30T13:01:15Z</time>
      </trkpt>
      <trkpt lat="43.22328" lon="6.31534">
        <ele>198.8</ele>
        <time>2022-10-30T13:01:23Z</time>
      </trkpt>
      <trkpt lat="43.22334" lon="6.31522">
        <ele>197.6</ele>
        <time>2022-10-30T13:01:30Z</time>
      </trkpt>
      <trkpt lat="43.22339" lon="6.31512">
        <ele>196.6</ele>
        <time>2022-10-30T13:01:36Z</time>
      </trkpt>
      <trkpt lat="43.22342" lon="6.31499">
        <ele>196.1</ele>
        <time>2022-10-30T13:01:44Z</time>
      </trkpt>
      <trkpt lat="43.22342" lon="6.31486">
        <ele>197.4</ele>
        <time>2022-10-30T13:01:53Z</time>
      </trkpt>
      <trkpt lat="43.22345" lon="6.31474">
        <ele>197.2</ele>
        <time>2022-10-30T13:02:05Z</time>
      </trkpt>
      <trkpt lat="43.22346" lon="6.31472">
        <ele>196.8</ele>
        <time>2022-10-30T13:02:10Z</time>
      </trkpt>
      <trkpt lat="43.22345" lon="6.31473">
        <ele>196.8</ele>
        <time>2022-10-30T13:02:11Z</time>
      </trkpt>
      <trkpt lat="43.22353" lon="6.31466">
        <ele>195.4</ele>
        <time>2022-10-30T13:02:25Z</time>
      </trkpt>
      <trkpt lat="43.22359" lon="6.31455">
        <ele>196.6</ele>
        <time>2022-10-30T13:02:35Z</time>
      </trkpt>
      <trkpt lat="43.22365" lon="6.31444">
        <ele>197</ele>
        <time>2022-10-30T13:02:43Z</time>
      </trkpt>
      <trkpt lat="43.2237" lon="6.31434">
        <ele>196.8</ele>
        <time>2022-10-30T13:02:52Z</time>
      </trkpt>
      <trkpt lat="43.22374" lon="6.31421">
        <ele>197.4</ele>
        <time>2022-10-30T13:03:01Z</time>
      </trkpt>
      <trkpt lat="43.22377" lon="6.31409">
        <ele>198.2</ele>
        <time>2022-10-30T13:03:09Z</time>
      </trkpt>
      <trkpt lat="43.22381" lon="6.31398">
        <ele>198.9</ele>
        <time>2022-10-30T13:03:18Z</time>
      </trkpt>
      <trkpt lat="43.22386" lon="6.31387">
        <ele>199.3</ele>
        <time>2022-10-30T13:03:25Z</time>
      </trkpt>
      <trkpt lat="43.22388" lon="6.31374">
        <ele>198.1</ele>
        <time>2022-10-30T13:03:33Z</time>
      </trkpt>
      <trkpt lat="43.22392" lon="6.31361">
        <ele>197.7</ele>
        <time>2022-10-30T13:03:43Z</time>
      </trkpt>
      <trkpt lat="43.22396" lon="6.3135">
        <ele>197.3</ele>
        <time>2022-10-30T13:03:49Z</time>
      </trkpt>
      <trkpt lat="43.22401" lon="6.31338">
        <ele>197</ele>
        <time>2022-10-30T13:03:58Z</time>
      </trkpt>
      <trkpt lat="43.22407" lon="6.31329">
        <ele>195.9</ele>
        <time>2022-10-30T13:04:06Z</time>
      </trkpt>
      <trkpt lat="43.22413" lon="6.31318">
        <ele>195.9</ele>
        <time>2022-10-30T13:04:15Z</time>
      </trkpt>
      <trkpt lat="43.22419" lon="6.31307">
        <ele>194.6</ele>
        <time>2022-10-30T13:04:21Z</time>
      </trkpt>
      <trkpt lat="43.2242" lon="6.31293">
        <ele>193.6</ele>
        <time>2022-10-30T13:04:28Z</time>
      </trkpt>
      <trkpt lat="43.22421" lon="6.3128">
        <ele>193.3</ele>
        <time>2022-10-30T13:04:34Z</time>
      </trkpt>
      <trkpt lat="43.22423" lon="6.31268">
        <ele>193.2</ele>
        <time>2022-10-30T13:04:41Z</time>
      </trkpt>
      <trkpt lat="43.22423" lon="6.31254">
        <ele>192.9</ele>
        <time>2022-10-30T13:04:49Z</time>
      </trkpt>
      <trkpt lat="43.22425" lon="6.31242">
        <ele>192.6</ele>
        <time>2022-10-30T13:04:55Z</time>
      </trkpt>
      <trkpt lat="43.22426" lon="6.3123">
        <ele>192.9</ele>
        <time>2022-10-30T13:05:02Z</time>
      </trkpt>
      <trkpt lat="43.22428" lon="6.31216">
        <ele>191.3</ele>
        <time>2022-10-30T13:05:12Z</time>
      </trkpt>
      <trkpt lat="43.22429" lon="6.31204">
        <ele>191.2</ele>
        <time>2022-10-30T13:05:19Z</time>
      </trkpt>
      <trkpt lat="43.22427" lon="6.31191">
        <ele>190.8</ele>
        <time>2022-10-30T13:05:25Z</time>
      </trkpt>
      <trkpt lat="43.22429" lon="6.31179">
        <ele>190.8</ele>
        <time>2022-10-30T13:05:32Z</time>
      </trkpt>
      <trkpt lat="43.22431" lon="6.31167">
        <ele>190.6</ele>
        <time>2022-10-30T13:05:38Z</time>
      </trkpt>
      <trkpt lat="43.22434" lon="6.31154">
        <ele>190.8</ele>
        <time>2022-10-30T13:05:46Z</time>
      </trkpt>
      <trkpt lat="43.22436" lon="6.3114">
        <ele>189.7</ele>
        <time>2022-10-30T13:05:54Z</time>
      </trkpt>
      <trkpt lat="43.22436" lon="6.31128">
        <ele>189.5</ele>
        <time>2022-10-30T13:06:01Z</time>
      </trkpt>
      <trkpt lat="43.22437" lon="6.31115">
        <ele>189</ele>
        <time>2022-10-30T13:06:08Z</time>
      </trkpt>
      <trkpt lat="43.2244" lon="6.31103">
        <ele>188.5</ele>
        <time>2022-10-30T13:06:15Z</time>
      </trkpt>
      <trkpt lat="43.2244" lon="6.3109">
        <ele>188.3</ele>
        <time>2022-10-30T13:06:22Z</time>
      </trkpt>
      <trkpt lat="43.2244" lon="6.31076">
        <ele>189.1</ele>
        <time>2022-10-30T13:06:30Z</time>
      </trkpt>
      <trkpt lat="43.2244" lon="6.31062">
        <ele>189.4</ele>
        <time>2022-10-30T13:06:38Z</time>
      </trkpt>
      <trkpt lat="43.2244" lon="6.3105">
        <ele>189.5</ele>
        <time>2022-10-30T13:06:45Z</time>
      </trkpt>
      <trkpt lat="43.22441" lon="6.31037">
        <ele>189.5</ele>
        <time>2022-10-30T13:06:53Z</time>
      </trkpt>
      <trkpt lat="43.22442" lon="6.31024">
        <ele>189.1</ele>
        <time>2022-10-30T13:07:01Z</time>
      </trkpt>
      <trkpt lat="43.22445" lon="6.31012">
        <ele>189.1</ele>
        <time>2022-10-30T13:07:08Z</time>
      </trkpt>
      <trkpt lat="43.22442" lon="6.30999">
        <ele>188.8</ele>
        <time>2022-10-30T13:07:15Z</time>
      </trkpt>
      <trkpt lat="43.22444" lon="6.30986">
        <ele>188.1</ele>
        <time>2022-10-30T13:07:25Z</time>
      </trkpt>
      <trkpt lat="43.22444" lon="6.30974">
        <ele>188.5</ele>
        <time>2022-10-30T13:07:33Z</time>
      </trkpt>
      <trkpt lat="43.22442" lon="6.30961">
        <ele>188.8</ele>
        <time>2022-10-30T13:07:39Z</time>
      </trkpt>
      <trkpt lat="43.22443" lon="6.30947">
        <ele>189</ele>
        <time>2022-10-30T13:07:46Z</time>
      </trkpt>
      <trkpt lat="43.22441" lon="6.30934">
        <ele>189</ele>
        <time>2022-10-30T13:07:52Z</time>
      </trkpt>
      <trkpt lat="43.22445" lon="6.30921">
        <ele>189.8</ele>
        <time>2022-10-30T13:07:59Z</time>
      </trkpt>
      <trkpt lat="43.22444" lon="6.30909">
        <ele>189.8</ele>
        <time>2022-10-30T13:08:07Z</time>
      </trkpt>
      <trkpt lat="43.22448" lon="6.30898">
        <ele>188.5</ele>
        <time>2022-10-30T13:08:22Z</time>
      </trkpt>
      <trkpt lat="43.2245" lon="6.30884">
        <ele>187.9</ele>
        <time>2022-10-30T13:08:31Z</time>
      </trkpt>
      <trkpt lat="43.22452" lon="6.30874">
        <ele>187.1</ele>
        <time>2022-10-30T13:08:40Z</time>
      </trkpt>
      <trkpt lat="43.22452" lon="6.30874">
        <ele>186.9</ele>
        <time>2022-10-30T13:08:42Z</time>
      </trkpt>
      <trkpt lat="43.22453" lon="6.30868">
        <ele>184.8</ele>
        <time>2022-10-30T13:08:49Z</time>
      </trkpt>
      <trkpt lat="43.22453" lon="6.30868">
        <ele>184.7</ele>
        <time>2022-10-30T13:08:51Z</time>
      </trkpt>
      <trkpt lat="43.22453" lon="6.30867">
        <ele>184.4</ele>
        <time>2022-10-30T13:09:01Z</time>
      </trkpt>
      <trkpt lat="43.22453" lon="6.30867">
        <ele>184.4</ele>
        <time>2022-10-30T13:09:03Z</time>
      </trkpt>
      <trkpt lat="43.22453" lon="6.30862">
        <ele>183.2</ele>
        <time>2022-10-30T13:09:14Z</time>
      </trkpt>
      <trkpt lat="43.22453" lon="6.30862">
        <ele>183.2</ele>
        <time>2022-10-30T13:09:27Z</time>
      </trkpt>
      <trkpt lat="43.22455" lon="6.30862">
        <ele>183.2</ele>
        <time>2022-10-30T13:09:35Z</time>
      </trkpt>
      <trkpt lat="43.22455" lon="6.30862">
        <ele>183.3</ele>
        <time>2022-10-30T13:09:36Z</time>
      </trkpt>
      <trkpt lat="43.22458" lon="6.30862">
        <ele>184.8</ele>
        <time>2022-10-30T13:09:45Z</time>
      </trkpt>
      <trkpt lat="43.22458" lon="6.30862">
        <ele>184.8</ele>
        <time>2022-10-30T13:09:52Z</time>
      </trkpt>
      <trkpt lat="43.22457" lon="6.30861">
        <ele>184.8</ele>
        <time>2022-10-30T13:09:56Z</time>
      </trkpt>
      <trkpt lat="43.22457" lon="6.30861">
        <ele>184.7</ele>
        <time>2022-10-30T13:10:23Z</time>
      </trkpt>
      <trkpt lat="43.22458" lon="6.30859">
        <ele>184.9</ele>
        <time>2022-10-30T13:10:28Z</time>
      </trkpt>
      <trkpt lat="43.22458" lon="6.30859">
        <ele>184.9</ele>
        <time>2022-10-30T13:10:32Z</time>
      </trkpt>
      <trkpt lat="43.22458" lon="6.30859">
        <ele>184.9</ele>
        <time>2022-10-30T13:10:33Z</time>
      </trkpt>
      <trkpt lat="43.22458" lon="6.30859">
        <ele>184.8</ele>
        <time>2022-10-30T13:10:39Z</time>
      </trkpt>
      <trkpt lat="43.22458" lon="6.30859">
        <ele>184.8</ele>
        <time>2022-10-30T13:10:40Z</time>
      </trkpt>
      <trkpt lat="43.22458" lon="6.30859">
        <ele>184.8</ele>
        <time>2022-10-30T13:10:50Z</time>
      </trkpt>
      <trkpt lat="43.22457" lon="6.30859">
        <ele>184.6</ele>
        <time>2022-10-30T13:10:54Z</time>
      </trkpt>
      <trkpt lat="43.22457" lon="6.30858">
        <ele>184.8</ele>
        <time>2022-10-30T13:11:12Z</time>
      </trkpt>
      <trkpt lat="43.22457" lon="6.30858">
        <ele>184.9</ele>
        <time>2022-10-30T13:11:13Z</time>
      </trkpt>
      <trkpt lat="43.22458" lon="6.30858">
        <ele>185</ele>
        <time>2022-10-30T13:11:14Z</time>
      </trkpt>
      <trkpt lat="43.22457" lon="6.30855">
        <ele>185</ele>
        <time>2022-10-30T13:11:22Z</time>
      </trkpt>
      <trkpt lat="43.22457" lon="6.30855">
        <ele>185.1</ele>
        <time>2022-10-30T13:11:41Z</time>
      </trkpt>
      <trkpt lat="43.22457" lon="6.30856">
        <ele>184.8</ele>
        <time>2022-10-30T13:11:43Z</time>
      </trkpt>
      <trkpt lat="43.22457" lon="6.30855">
        <ele>184.7</ele>
        <time>2022-10-30T13:11:45Z</time>
      </trkpt>
      <trkpt lat="43.22457" lon="6.30855">
        <ele>184.6</ele>
        <time>2022-10-30T13:11:46Z</time>
      </trkpt>
      <trkpt lat="43.22457" lon="6.30855">
        <ele>184.4</ele>
        <time>2022-10-30T13:11:48Z</time>
      </trkpt>
      <trkpt lat="43.22457" lon="6.30854">
        <ele>184.2</ele>
        <time>2022-10-30T13:11:50Z</time>
      </trkpt>
      <trkpt lat="43.22457" lon="6.30854">
        <ele>184.1</ele>
        <time>2022-10-30T13:11:51Z</time>
      </trkpt>
      <trkpt lat="43.22457" lon="6.30854">
        <ele>184.1</ele>
        <time>2022-10-30T13:11:52Z</time>
      </trkpt>
      <trkpt lat="43.22457" lon="6.30854">
        <ele>184.1</ele>
        <time>2022-10-30T13:11:55Z</time>
      </trkpt>
      <trkpt lat="43.22456" lon="6.30855">
        <ele>183.8</ele>
        <time>2022-10-30T13:11:58Z</time>
      </trkpt>
      <trkpt lat="43.22457" lon="6.30855">
        <ele>183.8</ele>
        <time>2022-10-30T13:12:03Z</time>
      </trkpt>
      <trkpt lat="43.22457" lon="6.30855">
        <ele>183.8</ele>
        <time>2022-10-30T13:12:06Z</time>
      </trkpt>
      <trkpt lat="43.22457" lon="6.30855">
        <ele>183.8</ele>
        <time>2022-10-30T13:12:12Z</time>
      </trkpt>
      <trkpt lat="43.22456" lon="6.30856">
        <ele>183.8</ele>
        <time>2022-10-30T13:12:16Z</time>
      </trkpt>
      <trkpt lat="43.22456" lon="6.30856">
        <ele>183.8</ele>
        <time>2022-10-30T13:12:17Z</time>
      </trkpt>
      <trkpt lat="43.22456" lon="6.30856">
        <ele>183.8</ele>
        <time>2022-10-30T13:12:18Z</time>
      </trkpt>
      <trkpt lat="43.22456" lon="6.30856">
        <ele>183.8</ele>
        <time>2022-10-30T13:12:19Z</time>
      </trkpt>
      <trkpt lat="43.22455" lon="6.30858">
        <ele>183.4</ele>
        <time>2022-10-30T13:12:28Z</time>
      </trkpt>
      <trkpt lat="43.22455" lon="6.30859">
        <ele>183.4</ele>
        <time>2022-10-30T13:12:29Z</time>
      </trkpt>
      <trkpt lat="43.22457" lon="6.3086">
        <ele>182.9</ele>
        <time>2022-10-30T13:12:38Z</time>
      </trkpt>
      <trkpt lat="43.22457" lon="6.3086">
        <ele>182.7</ele>
        <time>2022-10-30T13:12:39Z</time>
      </trkpt>
      <trkpt lat="43.22456" lon="6.30851">
        <ele>181.4</ele>
        <time>2022-10-30T13:12:57Z</time>
      </trkpt>
      <trkpt lat="43.22456" lon="6.3085">
        <ele>181.3</ele>
        <time>2022-10-30T13:13:05Z</time>
      </trkpt>
      <trkpt lat="43.22455" lon="6.30849">
        <ele>181.3</ele>
        <time>2022-10-30T13:13:08Z</time>
      </trkpt>
      <trkpt lat="43.22455" lon="6.30849">
        <ele>181.4</ele>
        <time>2022-10-30T13:13:09Z</time>
      </trkpt>
      <trkpt lat="43.22455" lon="6.30849">
        <ele>181.5</ele>
        <time>2022-10-30T13:13:10Z</time>
      </trkpt>
      <trkpt lat="43.22455" lon="6.30849">
        <ele>181.6</ele>
        <time>2022-10-30T13:13:17Z</time>
      </trkpt>
      <trkpt lat="43.22455" lon="6.30848">
        <ele>181.6</ele>
        <time>2022-10-30T13:13:19Z</time>
      </trkpt>
      <trkpt lat="43.22455" lon="6.30848">
        <ele>181.4</ele>
        <time>2022-10-30T13:13:22Z</time>
      </trkpt>
      <trkpt lat="43.22455" lon="6.30848">
        <ele>181.1</ele>
        <time>2022-10-30T13:13:28Z</time>
      </trkpt>
      <trkpt lat="43.22455" lon="6.30848">
        <ele>181.3</ele>
        <time>2022-10-30T13:13:31Z</time>
      </trkpt>
      <trkpt lat="43.22457" lon="6.30841">
        <ele>180.7</ele>
        <time>2022-10-30T13:13:48Z</time>
      </trkpt>
      <trkpt lat="43.22457" lon="6.30841">
        <ele>180.8</ele>
        <time>2022-10-30T13:13:50Z</time>
      </trkpt>
      <trkpt lat="43.22457" lon="6.30841">
        <ele>180.8</ele>
        <time>2022-10-30T13:13:51Z</time>
      </trkpt>
      <trkpt lat="43.22457" lon="6.30841">
        <ele>181.2</ele>
        <time>2022-10-30T13:13:55Z</time>
      </trkpt>
      <trkpt lat="43.22461" lon="6.3083">
        <ele>182.9</ele>
        <time>2022-10-30T13:14:11Z</time>
      </trkpt>
      <trkpt lat="43.22461" lon="6.3083">
        <ele>182.8</ele>
        <time>2022-10-30T13:14:16Z</time>
      </trkpt>
      <trkpt lat="43.22461" lon="6.3083">
        <ele>182.8</ele>
        <time>2022-10-30T13:14:17Z</time>
      </trkpt>
      <trkpt lat="43.2246" lon="6.3083">
        <ele>182.9</ele>
        <time>2022-10-30T13:14:35Z</time>
      </trkpt>
      <trkpt lat="43.2246" lon="6.30817">
        <ele>182.9</ele>
        <time>2022-10-30T13:14:46Z</time>
      </trkpt>
      <trkpt lat="43.22462" lon="6.30805">
        <ele>181.5</ele>
        <time>2022-10-30T13:14:57Z</time>
      </trkpt>
      <trkpt lat="43.22462" lon="6.30792">
        <ele>182.3</ele>
        <time>2022-10-30T13:15:07Z</time>
      </trkpt>
      <trkpt lat="43.22464" lon="6.3078">
        <ele>181.8</ele>
        <time>2022-10-30T13:15:16Z</time>
      </trkpt>
      <trkpt lat="43.22467" lon="6.30768">
        <ele>180.6</ele>
        <time>2022-10-30T13:15:24Z</time>
      </trkpt>
      <trkpt lat="43.22469" lon="6.30756">
        <ele>180.3</ele>
        <time>2022-10-30T13:15:33Z</time>
      </trkpt>
      <trkpt lat="43.22469" lon="6.30743">
        <ele>180.1</ele>
        <time>2022-10-30T13:15:41Z</time>
      </trkpt>
      <trkpt lat="43.22472" lon="6.30731">
        <ele>179.7</ele>
        <time>2022-10-30T13:15:48Z</time>
      </trkpt>
      <trkpt lat="43.22472" lon="6.30718">
        <ele>179.7</ele>
        <time>2022-10-30T13:15:56Z</time>
      </trkpt>
      <trkpt lat="43.22472" lon="6.30705">
        <ele>180.3</ele>
        <time>2022-10-30T13:16:05Z</time>
      </trkpt>
      <trkpt lat="43.22473" lon="6.30691">
        <ele>179.7</ele>
        <time>2022-10-30T13:16:16Z</time>
      </trkpt>
      <trkpt lat="43.22475" lon="6.30678">
        <ele>179.5</ele>
        <time>2022-10-30T13:16:22Z</time>
      </trkpt>
      <trkpt lat="43.22477" lon="6.30665">
        <ele>179.7</ele>
        <time>2022-10-30T13:16:30Z</time>
      </trkpt>
      <trkpt lat="43.22479" lon="6.30653">
        <ele>179.3</ele>
        <time>2022-10-30T13:16:38Z</time>
      </trkpt>
      <trkpt lat="43.22481" lon="6.3064">
        <ele>179.6</ele>
        <time>2022-10-30T13:16:47Z</time>
      </trkpt>
      <trkpt lat="43.22483" lon="6.30628">
        <ele>179.1</ele>
        <time>2022-10-30T13:16:54Z</time>
      </trkpt>
      <trkpt lat="43.22485" lon="6.30615">
        <ele>179.8</ele>
        <time>2022-10-30T13:17:03Z</time>
      </trkpt>
      <trkpt lat="43.22487" lon="6.30603">
        <ele>179.5</ele>
        <time>2022-10-30T13:17:12Z</time>
      </trkpt>
      <trkpt lat="43.22489" lon="6.30591">
        <ele>178.8</ele>
        <time>2022-10-30T13:17:19Z</time>
      </trkpt>
      <trkpt lat="43.22491" lon="6.30578">
        <ele>179.6</ele>
        <time>2022-10-30T13:17:27Z</time>
      </trkpt>
      <trkpt lat="43.22492" lon="6.30564">
        <ele>179.4</ele>
        <time>2022-10-30T13:17:35Z</time>
      </trkpt>
      <trkpt lat="43.22493" lon="6.30551">
        <ele>179.6</ele>
        <time>2022-10-30T13:17:43Z</time>
      </trkpt>
      <trkpt lat="43.22495" lon="6.30538">
        <ele>181.7</ele>
        <time>2022-10-30T13:17:54Z</time>
      </trkpt>
      <trkpt lat="43.22496" lon="6.30524">
        <ele>181</ele>
        <time>2022-10-30T13:18:01Z</time>
      </trkpt>
      <trkpt lat="43.22501" lon="6.30515">
        <ele>180.7</ele>
        <time>2022-10-30T13:18:09Z</time>
      </trkpt>
      <trkpt lat="43.22506" lon="6.30503">
        <ele>180.2</ele>
        <time>2022-10-30T13:18:17Z</time>
      </trkpt>
      <trkpt lat="43.22512" lon="6.3049">
        <ele>180.3</ele>
        <time>2022-10-30T13:18:25Z</time>
      </trkpt>
      <trkpt lat="43.22519" lon="6.3048">
        <ele>180.2</ele>
        <time>2022-10-30T13:18:32Z</time>
      </trkpt>
      <trkpt lat="43.22528" lon="6.30477">
        <ele>180.3</ele>
        <time>2022-10-30T13:18:42Z</time>
      </trkpt>
      <trkpt lat="43.22539" lon="6.30476">
        <ele>179.8</ele>
        <time>2022-10-30T13:18:49Z</time>
      </trkpt>
      <trkpt lat="43.22548" lon="6.30479">
        <ele>179.4</ele>
        <time>2022-10-30T13:19:00Z</time>
      </trkpt>
      <trkpt lat="43.22557" lon="6.30475">
        <ele>178.6</ele>
        <time>2022-10-30T13:19:06Z</time>
      </trkpt>
      <trkpt lat="43.22567" lon="6.30474">
        <ele>178.2</ele>
        <time>2022-10-30T13:19:14Z</time>
      </trkpt>
      <trkpt lat="43.22576" lon="6.30473">
        <ele>177.3</ele>
        <time>2022-10-30T13:19:20Z</time>
      </trkpt>
      <trkpt lat="43.22585" lon="6.30469">
        <ele>175</ele>
        <time>2022-10-30T13:19:28Z</time>
      </trkpt>
      <trkpt lat="43.22593" lon="6.3046">
        <ele>173.1</ele>
        <time>2022-10-30T13:19:36Z</time>
      </trkpt>
      <trkpt lat="43.226" lon="6.30451">
        <ele>172.3</ele>
        <time>2022-10-30T13:19:44Z</time>
      </trkpt>
      <trkpt lat="43.22607" lon="6.30441">
        <ele>171.7</ele>
        <time>2022-10-30T13:19:52Z</time>
      </trkpt>
      <trkpt lat="43.22608" lon="6.3044">
        <ele>171.6</ele>
        <time>2022-10-30T13:19:57Z</time>
      </trkpt>
      <trkpt lat="43.22608" lon="6.30438">
        <ele>171.5</ele>
        <time>2022-10-30T13:19:58Z</time>
      </trkpt>
      <trkpt lat="43.22613" lon="6.30427">
        <ele>170.9</ele>
        <time>2022-10-30T13:20:07Z</time>
      </trkpt>
      <trkpt lat="43.22621" lon="6.30419">
        <ele>171.4</ele>
        <time>2022-10-30T13:20:13Z</time>
      </trkpt>
      <trkpt lat="43.2263" lon="6.30414">
        <ele>171.5</ele>
        <time>2022-10-30T13:20:19Z</time>
      </trkpt>
      <trkpt lat="43.22637" lon="6.30405">
        <ele>171.2</ele>
        <time>2022-10-30T13:20:26Z</time>
      </trkpt>
      <trkpt lat="43.22645" lon="6.30396">
        <ele>171</ele>
        <time>2022-10-30T13:20:34Z</time>
      </trkpt>
      <trkpt lat="43.22652" lon="6.30388">
        <ele>170.5</ele>
        <time>2022-10-30T13:20:42Z</time>
      </trkpt>
      <trkpt lat="43.22658" lon="6.30377">
        <ele>169.8</ele>
        <time>2022-10-30T13:20:53Z</time>
      </trkpt>
      <trkpt lat="43.22663" lon="6.30366">
        <ele>170</ele>
        <time>2022-10-30T13:21:01Z</time>
      </trkpt>
      <trkpt lat="43.22667" lon="6.30354">
        <ele>170.3</ele>
        <time>2022-10-30T13:21:09Z</time>
      </trkpt>
      <trkpt lat="43.2267" lon="6.3034">
        <ele>169.7</ele>
        <time>2022-10-30T13:21:17Z</time>
      </trkpt>
      <trkpt lat="43.22674" lon="6.30329">
        <ele>169</ele>
        <time>2022-10-30T13:21:25Z</time>
      </trkpt>
      <trkpt lat="43.2268" lon="6.30318">
        <ele>168.8</ele>
        <time>2022-10-30T13:21:34Z</time>
      </trkpt>
      <trkpt lat="43.22683" lon="6.30306">
        <ele>169.1</ele>
        <time>2022-10-30T13:21:42Z</time>
      </trkpt>
      <trkpt lat="43.22685" lon="6.30293">
        <ele>169.5</ele>
        <time>2022-10-30T13:21:50Z</time>
      </trkpt>
      <trkpt lat="43.22689" lon="6.3028">
        <ele>169.5</ele>
        <time>2022-10-30T13:21:57Z</time>
      </trkpt>
      <trkpt lat="43.22693" lon="6.30268">
        <ele>169.1</ele>
        <time>2022-10-30T13:22:05Z</time>
      </trkpt>
      <trkpt lat="43.22697" lon="6.30256">
        <ele>168.7</ele>
        <time>2022-10-30T13:22:11Z</time>
      </trkpt>
      <trkpt lat="43.22702" lon="6.30245">
        <ele>168.2</ele>
        <time>2022-10-30T13:22:17Z</time>
      </trkpt>
      <trkpt lat="43.22702" lon="6.30245">
        <ele>168</ele>
        <time>2022-10-30T13:22:19Z</time>
      </trkpt>
      <trkpt lat="43.22702" lon="6.30245">
        <ele>168</ele>
        <time>2022-10-30T13:22:20Z</time>
      </trkpt>
      <trkpt lat="43.22708" lon="6.30233">
        <ele>167.3</ele>
        <time>2022-10-30T13:22:29Z</time>
      </trkpt>
      <trkpt lat="43.22714" lon="6.30223">
        <ele>166.8</ele>
        <time>2022-10-30T13:22:35Z</time>
      </trkpt>
      <trkpt lat="43.22719" lon="6.3021">
        <ele>166.9</ele>
        <time>2022-10-30T13:22:42Z</time>
      </trkpt>
      <trkpt lat="43.22724" lon="6.30199">
        <ele>166.5</ele>
        <time>2022-10-30T13:22:49Z</time>
      </trkpt>
      <trkpt lat="43.22725" lon="6.30186">
        <ele>165.8</ele>
        <time>2022-10-30T13:22:58Z</time>
      </trkpt>
      <trkpt lat="43.22726" lon="6.30173">
        <ele>166</ele>
        <time>2022-10-30T13:23:09Z</time>
      </trkpt>
      <trkpt lat="43.22725" lon="6.30161">
        <ele>166.5</ele>
        <time>2022-10-30T13:23:16Z</time>
      </trkpt>
      <trkpt lat="43.22724" lon="6.30147">
        <ele>166</ele>
        <time>2022-10-30T13:23:24Z</time>
      </trkpt>
      <trkpt lat="43.22721" lon="6.30135">
        <ele>166.6</ele>
        <time>2022-10-30T13:23:30Z</time>
      </trkpt>
      <trkpt lat="43.2272" lon="6.30122">
        <ele>166</ele>
        <time>2022-10-30T13:23:37Z</time>
      </trkpt>
      <trkpt lat="43.22717" lon="6.3011">
        <ele>164.3</ele>
        <time>2022-10-30T13:23:44Z</time>
      </trkpt>
      <trkpt lat="43.22713" lon="6.30098">
        <ele>164.3</ele>
        <time>2022-10-30T13:23:52Z</time>
      </trkpt>
      <trkpt lat="43.22709" lon="6.30087">
        <ele>163.3</ele>
        <time>2022-10-30T13:23:59Z</time>
      </trkpt>
      <trkpt lat="43.22705" lon="6.30076">
        <ele>163.1</ele>
        <time>2022-10-30T13:24:06Z</time>
      </trkpt>
      <trkpt lat="43.22702" lon="6.30063">
        <ele>163.5</ele>
        <time>2022-10-30T13:24:14Z</time>
      </trkpt>
      <trkpt lat="43.227" lon="6.3005">
        <ele>163.5</ele>
        <time>2022-10-30T13:24:23Z</time>
      </trkpt>
      <trkpt lat="43.22703" lon="6.30038">
        <ele>163.8</ele>
        <time>2022-10-30T13:24:33Z</time>
      </trkpt>
      <trkpt lat="43.227" lon="6.30026">
        <ele>163.5</ele>
        <time>2022-10-30T13:24:39Z</time>
      </trkpt>
      <trkpt lat="43.22703" lon="6.30014">
        <ele>163.6</ele>
        <time>2022-10-30T13:24:49Z</time>
      </trkpt>
      <trkpt lat="43.22704" lon="6.3">
        <ele>163</ele>
        <time>2022-10-30T13:24:55Z</time>
      </trkpt>
      <trkpt lat="43.22713" lon="6.3">
        <ele>161.9</ele>
        <time>2022-10-30T13:25:11Z</time>
      </trkpt>
      <trkpt lat="43.22721" lon="6.30005">
        <ele>161.9</ele>
        <time>2022-10-30T13:25:20Z</time>
      </trkpt>
      <trkpt lat="43.22727" lon="6.3001">
        <ele>161.8</ele>
        <time>2022-10-30T13:25:31Z</time>
      </trkpt>
      <trkpt lat="43.22727" lon="6.30009">
        <ele>161.9</ele>
        <time>2022-10-30T13:25:32Z</time>
      </trkpt>
      <trkpt lat="43.22729" lon="6.30012">
        <ele>162.2</ele>
        <time>2022-10-30T13:25:41Z</time>
      </trkpt>
      <trkpt lat="43.22729" lon="6.30012">
        <ele>162.2</ele>
        <time>2022-10-30T13:25:59Z</time>
      </trkpt>
      <trkpt lat="43.22729" lon="6.30012">
        <ele>162.2</ele>
        <time>2022-10-30T13:26:00Z</time>
      </trkpt>
      <trkpt lat="43.22729" lon="6.30012">
        <ele>162.3</ele>
        <time>2022-10-30T13:26:09Z</time>
      </trkpt>
      <trkpt lat="43.22729" lon="6.30012">
        <ele>162.3</ele>
        <time>2022-10-30T13:26:10Z</time>
      </trkpt>
      <trkpt lat="43.22729" lon="6.30012">
        <ele>162.4</ele>
        <time>2022-10-30T13:26:11Z</time>
      </trkpt>
      <trkpt lat="43.22735" lon="6.30021">
        <ele>161.8</ele>
        <time>2022-10-30T13:26:35Z</time>
      </trkpt>
      <trkpt lat="43.2274" lon="6.30025">
        <ele>162.2</ele>
        <time>2022-10-30T13:26:46Z</time>
      </trkpt>
      <trkpt lat="43.2274" lon="6.30026">
        <ele>161.8</ele>
        <time>2022-10-30T13:26:49Z</time>
      </trkpt>
      <trkpt lat="43.2274" lon="6.30026">
        <ele>161.7</ele>
        <time>2022-10-30T13:26:50Z</time>
      </trkpt>
      <trkpt lat="43.22739" lon="6.30026">
        <ele>161.6</ele>
        <time>2022-10-30T13:27:01Z</time>
      </trkpt>
      <trkpt lat="43.22739" lon="6.30027">
        <ele>161.5</ele>
        <time>2022-10-30T13:27:05Z</time>
      </trkpt>
      <trkpt lat="43.22739" lon="6.30027">
        <ele>161</ele>
        <time>2022-10-30T13:27:09Z</time>
      </trkpt>
      <trkpt lat="43.2274" lon="6.30038">
        <ele>163.1</ele>
        <time>2022-10-30T13:27:32Z</time>
      </trkpt>
      <trkpt lat="43.22741" lon="6.30038">
        <ele>163.2</ele>
        <time>2022-10-30T13:27:35Z</time>
      </trkpt>
      <trkpt lat="43.22741" lon="6.30038">
        <ele>163.5</ele>
        <time>2022-10-30T13:27:39Z</time>
      </trkpt>
      <trkpt lat="43.22741" lon="6.30037">
        <ele>163.6</ele>
        <time>2022-10-30T13:27:43Z</time>
      </trkpt>
      <trkpt lat="43.2274" lon="6.30036">
        <ele>164.1</ele>
        <time>2022-10-30T13:27:49Z</time>
      </trkpt>
      <trkpt lat="43.2274" lon="6.30036">
        <ele>164.1</ele>
        <time>2022-10-30T13:27:56Z</time>
      </trkpt>
      <trkpt lat="43.22741" lon="6.30035">
        <ele>164.2</ele>
        <time>2022-10-30T13:27:58Z</time>
      </trkpt>
      <trkpt lat="43.22741" lon="6.30035">
        <ele>164.3</ele>
        <time>2022-10-30T13:27:59Z</time>
      </trkpt>
      <trkpt lat="43.22742" lon="6.30048">
        <ele>164.4</ele>
        <time>2022-10-30T13:28:14Z</time>
      </trkpt>
      <trkpt lat="43.22744" lon="6.30061">
        <ele>165.6</ele>
        <time>2022-10-30T13:28:25Z</time>
      </trkpt>
      <trkpt lat="43.22747" lon="6.30073">
        <ele>165.7</ele>
        <time>2022-10-30T13:28:35Z</time>
      </trkpt>
      <trkpt lat="43.2275" lon="6.30078">
        <ele>165.7</ele>
        <time>2022-10-30T13:28:42Z</time>
      </trkpt>
      <trkpt lat="43.2275" lon="6.30079">
        <ele>165.6</ele>
        <time>2022-10-30T13:28:43Z</time>
      </trkpt>
      <trkpt lat="43.22756" lon="6.30088">
        <ele>166.6</ele>
        <time>2022-10-30T13:28:52Z</time>
      </trkpt>
      <trkpt lat="43.22763" lon="6.30098">
        <ele>168.1</ele>
        <time>2022-10-30T13:29:01Z</time>
      </trkpt>
      <trkpt lat="43.22768" lon="6.30108">
        <ele>169.8</ele>
        <time>2022-10-30T13:29:11Z</time>
      </trkpt>
      <trkpt lat="43.22775" lon="6.30116">
        <ele>170.8</ele>
        <time>2022-10-30T13:29:20Z</time>
      </trkpt>
      <trkpt lat="43.22783" lon="6.30124">
        <ele>171.8</ele>
        <time>2022-10-30T13:29:30Z</time>
      </trkpt>
      <trkpt lat="43.22792" lon="6.30127">
        <ele>172</ele>
        <time>2022-10-30T13:29:41Z</time>
      </trkpt>
      <trkpt lat="43.22801" lon="6.30129">
        <ele>172</ele>
        <time>2022-10-30T13:29:52Z</time>
      </trkpt>
      <trkpt lat="43.2281" lon="6.30133">
        <ele>174.3</ele>
        <time>2022-10-30T13:30:01Z</time>
      </trkpt>
      <trkpt lat="43.22811" lon="6.30136">
        <ele>175.1</ele>
        <time>2022-10-30T13:30:05Z</time>
      </trkpt>
      <trkpt lat="43.22811" lon="6.30136">
        <ele>175.3</ele>
        <time>2022-10-30T13:30:06Z</time>
      </trkpt>
      <trkpt lat="43.22816" lon="6.30147">
        <ele>176.2</ele>
        <time>2022-10-30T13:30:17Z</time>
      </trkpt>
      <trkpt lat="43.22823" lon="6.30155">
        <ele>177.4</ele>
        <time>2022-10-30T13:30:26Z</time>
      </trkpt>
      <trkpt lat="43.22828" lon="6.30165">
        <ele>179.6</ele>
        <time>2022-10-30T13:30:38Z</time>
      </trkpt>
      <trkpt lat="43.2282" lon="6.30173">
        <ele>182.5</ele>
        <time>2022-10-30T13:30:54Z</time>
      </trkpt>
      <trkpt lat="43.2281" lon="6.30175">
        <ele>184.4</ele>
        <time>2022-10-30T13:31:03Z</time>
      </trkpt>
      <trkpt lat="43.22803" lon="6.30184">
        <ele>186</ele>
        <time>2022-10-30T13:31:12Z</time>
      </trkpt>
      <trkpt lat="43.22802" lon="6.30197">
        <ele>188.2</ele>
        <time>2022-10-30T13:31:22Z</time>
      </trkpt>
      <trkpt lat="43.22803" lon="6.30209">
        <ele>189.2</ele>
        <time>2022-10-30T13:31:32Z</time>
      </trkpt>
      <trkpt lat="43.22805" lon="6.30223">
        <ele>190.9</ele>
        <time>2022-10-30T13:31:41Z</time>
      </trkpt>
      <trkpt lat="43.22808" lon="6.30234">
        <ele>191.3</ele>
        <time>2022-10-30T13:31:49Z</time>
      </trkpt>
      <trkpt lat="43.22815" lon="6.30244">
        <ele>193.1</ele>
        <time>2022-10-30T13:32:00Z</time>
      </trkpt>
      <trkpt lat="43.22821" lon="6.30255">
        <ele>194.5</ele>
        <time>2022-10-30T13:32:09Z</time>
      </trkpt>
      <trkpt lat="43.22828" lon="6.30265">
        <ele>194.5</ele>
        <time>2022-10-30T13:32:15Z</time>
      </trkpt>
      <trkpt lat="43.22836" lon="6.30274">
        <ele>196.4</ele>
        <time>2022-10-30T13:32:25Z</time>
      </trkpt>
      <trkpt lat="43.2284" lon="6.30286">
        <ele>197</ele>
        <time>2022-10-30T13:32:33Z</time>
      </trkpt>
      <trkpt lat="43.22841" lon="6.30298">
        <ele>199.1</ele>
        <time>2022-10-30T13:32:42Z</time>
      </trkpt>
      <trkpt lat="43.2284" lon="6.30311">
        <ele>200.7</ele>
        <time>2022-10-30T13:32:50Z</time>
      </trkpt>
      <trkpt lat="43.2284" lon="6.30325">
        <ele>201.5</ele>
        <time>2022-10-30T13:32:59Z</time>
      </trkpt>
      <trkpt lat="43.22841" lon="6.30338">
        <ele>202.6</ele>
        <time>2022-10-30T13:33:08Z</time>
      </trkpt>
      <trkpt lat="43.22845" lon="6.30351">
        <ele>203.3</ele>
        <time>2022-10-30T13:33:16Z</time>
      </trkpt>
      <trkpt lat="43.22845" lon="6.30363">
        <ele>204.4</ele>
        <time>2022-10-30T13:33:22Z</time>
      </trkpt>
      <trkpt lat="43.22847" lon="6.30376">
        <ele>205.5</ele>
        <time>2022-10-30T13:33:32Z</time>
      </trkpt>
      <trkpt lat="43.22847" lon="6.30388">
        <ele>206.6</ele>
        <time>2022-10-30T13:33:41Z</time>
      </trkpt>
      <trkpt lat="43.22849" lon="6.30401">
        <ele>206.5</ele>
        <time>2022-10-30T13:33:48Z</time>
      </trkpt>
      <trkpt lat="43.22849" lon="6.30414">
        <ele>206.6</ele>
        <time>2022-10-30T13:33:56Z</time>
      </trkpt>
      <trkpt lat="43.22852" lon="6.30426">
        <ele>207.3</ele>
        <time>2022-10-30T13:34:07Z</time>
      </trkpt>
      <trkpt lat="43.2285" lon="6.30439">
        <ele>208.5</ele>
        <time>2022-10-30T13:34:16Z</time>
      </trkpt>
      <trkpt lat="43.2285" lon="6.30451">
        <ele>209.5</ele>
        <time>2022-10-30T13:34:22Z</time>
      </trkpt>
      <trkpt lat="43.2285" lon="6.30464">
        <ele>211.5</ele>
        <time>2022-10-30T13:34:28Z</time>
      </trkpt>
      <trkpt lat="43.22847" lon="6.30476">
        <ele>212.7</ele>
        <time>2022-10-30T13:34:36Z</time>
      </trkpt>
      <trkpt lat="43.22843" lon="6.30489">
        <ele>213.8</ele>
        <time>2022-10-30T13:34:45Z</time>
      </trkpt>
      <trkpt lat="43.2284" lon="6.30499">
        <ele>215.4</ele>
        <time>2022-10-30T13:34:56Z</time>
      </trkpt>
      <trkpt lat="43.2284" lon="6.30501">
        <ele>215.4</ele>
        <time>2022-10-30T13:34:58Z</time>
      </trkpt>
      <trkpt lat="43.22835" lon="6.30511">
        <ele>217.2</ele>
        <time>2022-10-30T13:35:14Z</time>
      </trkpt>
      <trkpt lat="43.22835" lon="6.30511">
        <ele>217.3</ele>
        <time>2022-10-30T13:35:18Z</time>
      </trkpt>
      <trkpt lat="43.22835" lon="6.30511">
        <ele>217.8</ele>
        <time>2022-10-30T13:35:20Z</time>
      </trkpt>
      <trkpt lat="43.22834" lon="6.30511">
        <ele>218</ele>
        <time>2022-10-30T13:35:21Z</time>
      </trkpt>
      <trkpt lat="43.22834" lon="6.30511">
        <ele>217.8</ele>
        <time>2022-10-30T13:35:25Z</time>
      </trkpt>
      <trkpt lat="43.22834" lon="6.30512">
        <ele>218.1</ele>
        <time>2022-10-30T13:35:32Z</time>
      </trkpt>
      <trkpt lat="43.22834" lon="6.30525">
        <ele>218.6</ele>
        <time>2022-10-30T13:35:40Z</time>
      </trkpt>
      <trkpt lat="43.22838" lon="6.30537">
        <ele>220.7</ele>
        <time>2022-10-30T13:35:50Z</time>
      </trkpt>
      <trkpt lat="43.22842" lon="6.30549">
        <ele>222</ele>
        <time>2022-10-30T13:35:59Z</time>
      </trkpt>
      <trkpt lat="43.22848" lon="6.30558">
        <ele>223</ele>
        <time>2022-10-30T13:36:07Z</time>
      </trkpt>
      <trkpt lat="43.22856" lon="6.30564">
        <ele>225</ele>
        <time>2022-10-30T13:36:18Z</time>
      </trkpt>
      <trkpt lat="43.22864" lon="6.30573">
        <ele>226.1</ele>
        <time>2022-10-30T13:36:27Z</time>
      </trkpt>
      <trkpt lat="43.22871" lon="6.30583">
        <ele>227.1</ele>
        <time>2022-10-30T13:36:35Z</time>
      </trkpt>
      <trkpt lat="43.22876" lon="6.30594">
        <ele>227.4</ele>
        <time>2022-10-30T13:36:43Z</time>
      </trkpt>
      <trkpt lat="43.22883" lon="6.30603">
        <ele>229</ele>
        <time>2022-10-30T13:36:51Z</time>
      </trkpt>
      <trkpt lat="43.22892" lon="6.30609">
        <ele>229.9</ele>
        <time>2022-10-30T13:36:57Z</time>
      </trkpt>
      <trkpt lat="43.229" lon="6.30616">
        <ele>230.9</ele>
        <time>2022-10-30T13:37:05Z</time>
      </trkpt>
      <trkpt lat="43.22909" lon="6.30616">
        <ele>231.4</ele>
        <time>2022-10-30T13:37:12Z</time>
      </trkpt>
      <trkpt lat="43.22918" lon="6.30622">
        <ele>232.2</ele>
        <time>2022-10-30T13:37:21Z</time>
      </trkpt>
      <trkpt lat="43.22925" lon="6.30631">
        <ele>233.9</ele>
        <time>2022-10-30T13:37:29Z</time>
      </trkpt>
      <trkpt lat="43.2293" lon="6.30642">
        <ele>234.9</ele>
        <time>2022-10-30T13:37:38Z</time>
      </trkpt>
      <trkpt lat="43.22931" lon="6.30656">
        <ele>237.2</ele>
        <time>2022-10-30T13:37:45Z</time>
      </trkpt>
      <trkpt lat="43.22931" lon="6.30668">
        <ele>238.3</ele>
        <time>2022-10-30T13:37:53Z</time>
      </trkpt>
      <trkpt lat="43.22933" lon="6.30682">
        <ele>240</ele>
        <time>2022-10-30T13:38:02Z</time>
      </trkpt>
      <trkpt lat="43.22933" lon="6.30694">
        <ele>240.4</ele>
        <time>2022-10-30T13:38:10Z</time>
      </trkpt>
      <trkpt lat="43.22937" lon="6.30707">
        <ele>241.9</ele>
        <time>2022-10-30T13:38:19Z</time>
      </trkpt>
      <trkpt lat="43.22941" lon="6.30719">
        <ele>243.2</ele>
        <time>2022-10-30T13:38:27Z</time>
      </trkpt>
      <trkpt lat="43.22944" lon="6.30731">
        <ele>243.9</ele>
        <time>2022-10-30T13:38:35Z</time>
      </trkpt>
      <trkpt lat="43.22952" lon="6.30739">
        <ele>245.8</ele>
        <time>2022-10-30T13:38:45Z</time>
      </trkpt>
      <trkpt lat="43.22958" lon="6.30749">
        <ele>248</ele>
        <time>2022-10-30T13:38:54Z</time>
      </trkpt>
      <trkpt lat="43.22963" lon="6.3076">
        <ele>249.1</ele>
        <time>2022-10-30T13:39:02Z</time>
      </trkpt>
      <trkpt lat="43.22967" lon="6.30772">
        <ele>250.4</ele>
        <time>2022-10-30T13:39:10Z</time>
      </trkpt>
      <trkpt lat="43.22971" lon="6.30784">
        <ele>250.9</ele>
        <time>2022-10-30T13:39:18Z</time>
      </trkpt>
      <trkpt lat="43.22974" lon="6.30797">
        <ele>252.5</ele>
        <time>2022-10-30T13:39:30Z</time>
      </trkpt>
      <trkpt lat="43.22977" lon="6.30809">
        <ele>254.7</ele>
        <time>2022-10-30T13:39:49Z</time>
      </trkpt>
      <trkpt lat="43.22987" lon="6.3081">
        <ele>256.5</ele>
        <time>2022-10-30T13:40:03Z</time>
      </trkpt>
      <trkpt lat="43.22991" lon="6.30798">
        <ele>257.2</ele>
        <time>2022-10-30T13:40:15Z</time>
      </trkpt>
      <trkpt lat="43.22999" lon="6.3079">
        <ele>261.2</ele>
        <time>2022-10-30T13:40:30Z</time>
      </trkpt>
      <trkpt lat="43.23007" lon="6.30797">
        <ele>263.5</ele>
        <time>2022-10-30T13:40:41Z</time>
      </trkpt>
      <trkpt lat="43.23015" lon="6.30806">
        <ele>265.4</ele>
        <time>2022-10-30T13:40:51Z</time>
      </trkpt>
      <trkpt lat="43.23022" lon="6.30814">
        <ele>267.1</ele>
        <time>2022-10-30T13:41:01Z</time>
      </trkpt>
      <trkpt lat="43.23031" lon="6.30819">
        <ele>269.6</ele>
        <time>2022-10-30T13:41:14Z</time>
      </trkpt>
      <trkpt lat="43.23032" lon="6.3082">
        <ele>269.6</ele>
        <time>2022-10-30T13:41:20Z</time>
      </trkpt>
      <trkpt lat="43.23032" lon="6.30821">
        <ele>269.6</ele>
        <time>2022-10-30T13:41:21Z</time>
      </trkpt>
      <trkpt lat="43.23032" lon="6.30821">
        <ele>269.6</ele>
        <time>2022-10-30T13:41:22Z</time>
      </trkpt>
      <trkpt lat="43.23032" lon="6.30821">
        <ele>269.6</ele>
        <time>2022-10-30T13:41:27Z</time>
      </trkpt>
      <trkpt lat="43.23032" lon="6.30821">
        <ele>269.6</ele>
        <time>2022-10-30T13:41:28Z</time>
      </trkpt>
      <trkpt lat="43.23032" lon="6.30821">
        <ele>269.6</ele>
        <time>2022-10-30T13:41:36Z</time>
      </trkpt>
      <trkpt lat="43.23033" lon="6.30823">
        <ele>269.3</ele>
        <time>2022-10-30T13:41:41Z</time>
      </trkpt>
      <trkpt lat="43.23033" lon="6.30823">
        <ele>269.4</ele>
        <time>2022-10-30T13:41:50Z</time>
      </trkpt>
      <trkpt lat="43.23041" lon="6.30816">
        <ele>270.1</ele>
        <time>2022-10-30T13:42:06Z</time>
      </trkpt>
      <trkpt lat="43.2305" lon="6.3081">
        <ele>271</ele>
        <time>2022-10-30T13:42:22Z</time>
      </trkpt>
      <trkpt lat="43.23058" lon="6.30804">
        <ele>271.6</ele>
        <time>2022-10-30T13:42:32Z</time>
      </trkpt>
      <trkpt lat="43.23067" lon="6.30808">
        <ele>270.6</ele>
        <time>2022-10-30T13:43:00Z</time>
      </trkpt>
      <trkpt lat="43.23074" lon="6.30817">
        <ele>269.7</ele>
        <time>2022-10-30T13:43:10Z</time>
      </trkpt>
      <trkpt lat="43.23081" lon="6.30825">
        <ele>269.2</ele>
        <time>2022-10-30T13:43:18Z</time>
      </trkpt>
      <trkpt lat="43.23085" lon="6.30827">
        <ele>266.6</ele>
        <time>2022-10-30T13:43:28Z</time>
      </trkpt>
      <trkpt lat="43.23085" lon="6.30826">
        <ele>266.5</ele>
        <time>2022-10-30T13:43:29Z</time>
      </trkpt>
      <trkpt lat="43.23087" lon="6.30814">
        <ele>264.6</ele>
        <time>2022-10-30T13:43:44Z</time>
      </trkpt>
      <trkpt lat="43.23093" lon="6.30804">
        <ele>263.3</ele>
        <time>2022-10-30T13:43:56Z</time>
      </trkpt>
      <trkpt lat="43.23101" lon="6.30795">
        <ele>264</ele>
        <time>2022-10-30T13:44:06Z</time>
      </trkpt>
      <trkpt lat="43.2311" lon="6.30788">
        <ele>263.4</ele>
        <time>2022-10-30T13:44:14Z</time>
      </trkpt>
      <trkpt lat="43.23118" lon="6.30781">
        <ele>262.7</ele>
        <time>2022-10-30T13:44:25Z</time>
      </trkpt>
      <trkpt lat="43.23127" lon="6.30773">
        <ele>261.5</ele>
        <time>2022-10-30T13:44:33Z</time>
      </trkpt>
      <trkpt lat="43.23135" lon="6.30765">
        <ele>260.1</ele>
        <time>2022-10-30T13:44:41Z</time>
      </trkpt>
      <trkpt lat="43.23143" lon="6.3076">
        <ele>257.2</ele>
        <time>2022-10-30T13:44:48Z</time>
      </trkpt>
      <trkpt lat="43.23153" lon="6.30759">
        <ele>255.3</ele>
        <time>2022-10-30T13:44:58Z</time>
      </trkpt>
      <trkpt lat="43.23162" lon="6.30758">
        <ele>254.2</ele>
        <time>2022-10-30T13:45:07Z</time>
      </trkpt>
      <trkpt lat="43.2317" lon="6.30752">
        <ele>251.2</ele>
        <time>2022-10-30T13:45:15Z</time>
      </trkpt>
      <trkpt lat="43.23179" lon="6.30748">
        <ele>249.3</ele>
        <time>2022-10-30T13:45:23Z</time>
      </trkpt>
      <trkpt lat="43.23188" lon="6.30742">
        <ele>249.1</ele>
        <time>2022-10-30T13:45:30Z</time>
      </trkpt>
      <trkpt lat="43.23198" lon="6.30743">
        <ele>246.3</ele>
        <time>2022-10-30T13:45:38Z</time>
      </trkpt>
      <trkpt lat="43.23207" lon="6.30738">
        <ele>243.9</ele>
        <time>2022-10-30T13:45:46Z</time>
      </trkpt>
      <trkpt lat="43.2321" lon="6.30732">
        <ele>237.9</ele>
        <time>2022-10-30T13:45:55Z</time>
      </trkpt>
      <trkpt lat="43.23211" lon="6.30732">
        <ele>237.5</ele>
        <time>2022-10-30T13:45:56Z</time>
      </trkpt>
      <trkpt lat="43.23216" lon="6.30731">
        <ele>236.3</ele>
        <time>2022-10-30T13:46:05Z</time>
      </trkpt>
      <trkpt lat="43.23216" lon="6.30731">
        <ele>236.1</ele>
        <time>2022-10-30T13:46:06Z</time>
      </trkpt>
      <trkpt lat="43.2321" lon="6.3074">
        <ele>233.2</ele>
        <time>2022-10-30T13:46:25Z</time>
      </trkpt>
      <trkpt lat="43.2321" lon="6.3074">
        <ele>233.1</ele>
        <time>2022-10-30T13:46:26Z</time>
      </trkpt>
      <trkpt lat="43.2321" lon="6.30741">
        <ele>233</ele>
        <time>2022-10-30T13:46:30Z</time>
      </trkpt>
      <trkpt lat="43.23202" lon="6.30747">
        <ele>232</ele>
        <time>2022-10-30T13:46:38Z</time>
      </trkpt>
      <trkpt lat="43.23196" lon="6.30758">
        <ele>230.8</ele>
        <time>2022-10-30T13:46:48Z</time>
      </trkpt>
      <trkpt lat="43.2319" lon="6.30768">
        <ele>229.7</ele>
        <time>2022-10-30T13:46:58Z</time>
      </trkpt>
      <trkpt lat="43.23183" lon="6.30777">
        <ele>229.2</ele>
        <time>2022-10-30T13:47:08Z</time>
      </trkpt>
      <trkpt lat="43.23178" lon="6.30788">
        <ele>227.8</ele>
        <time>2022-10-30T13:47:20Z</time>
      </trkpt>
      <trkpt lat="43.23173" lon="6.308">
        <ele>227.1</ele>
        <time>2022-10-30T13:47:29Z</time>
      </trkpt>
      <trkpt lat="43.23173" lon="6.30812">
        <ele>226.9</ele>
        <time>2022-10-30T13:47:39Z</time>
      </trkpt>
      <trkpt lat="43.23173" lon="6.30825">
        <ele>225.2</ele>
        <time>2022-10-30T13:47:50Z</time>
      </trkpt>
      <trkpt lat="43.23179" lon="6.30835">
        <ele>223.4</ele>
        <time>2022-10-30T13:47:58Z</time>
      </trkpt>
      <trkpt lat="43.23184" lon="6.30845">
        <ele>222.1</ele>
        <time>2022-10-30T13:48:07Z</time>
      </trkpt>
      <trkpt lat="43.23191" lon="6.30855">
        <ele>221.9</ele>
        <time>2022-10-30T13:48:14Z</time>
      </trkpt>
      <trkpt lat="43.23201" lon="6.30869">
        <ele>220.4</ele>
        <time>2022-10-30T13:48:26Z</time>
      </trkpt>
      <trkpt lat="43.2321" lon="6.30876">
        <ele>217.9</ele>
        <time>2022-10-30T13:48:31Z</time>
      </trkpt>
      <trkpt lat="43.2321" lon="6.30889">
        <ele>209</ele>
        <time>2022-10-30T13:48:41Z</time>
      </trkpt>
      <trkpt lat="43.23212" lon="6.30902">
        <ele>203.8</ele>
        <time>2022-10-30T13:48:52Z</time>
      </trkpt>
      <trkpt lat="43.2321" lon="6.30915">
        <ele>203.1</ele>
        <time>2022-10-30T13:49:03Z</time>
      </trkpt>
      <trkpt lat="43.23217" lon="6.30924">
        <ele>201.9</ele>
        <time>2022-10-30T13:49:14Z</time>
      </trkpt>
      <trkpt lat="43.2322" lon="6.30924">
        <ele>201.7</ele>
        <time>2022-10-30T13:49:19Z</time>
      </trkpt>
      <trkpt lat="43.23221" lon="6.30925">
        <ele>201.8</ele>
        <time>2022-10-30T13:49:20Z</time>
      </trkpt>
      <trkpt lat="43.23231" lon="6.30922">
        <ele>202</ele>
        <time>2022-10-30T13:49:30Z</time>
      </trkpt>
      <trkpt lat="43.2324" lon="6.30921">
        <ele>201.4</ele>
        <time>2022-10-30T13:49:37Z</time>
      </trkpt>
      <trkpt lat="43.23249" lon="6.30921">
        <ele>200.3</ele>
        <time>2022-10-30T13:49:44Z</time>
      </trkpt>
      <trkpt lat="43.23259" lon="6.30924">
        <ele>199.2</ele>
        <time>2022-10-30T13:49:51Z</time>
      </trkpt>
      <trkpt lat="43.23266" lon="6.30933">
        <ele>199</ele>
        <time>2022-10-30T13:50:00Z</time>
      </trkpt>
      <trkpt lat="43.23274" lon="6.30941">
        <ele>199</ele>
        <time>2022-10-30T13:50:08Z</time>
      </trkpt>
      <trkpt lat="43.23284" lon="6.30941">
        <ele>197.6</ele>
        <time>2022-10-30T13:50:16Z</time>
      </trkpt>
      <trkpt lat="43.23292" lon="6.30946">
        <ele>195.5</ele>
        <time>2022-10-30T13:50:26Z</time>
      </trkpt>
      <trkpt lat="43.23301" lon="6.30947">
        <ele>194.8</ele>
        <time>2022-10-30T13:50:33Z</time>
      </trkpt>
      <trkpt lat="43.23308" lon="6.30955">
        <ele>193.7</ele>
        <time>2022-10-30T13:50:41Z</time>
      </trkpt>
      <trkpt lat="43.23317" lon="6.30962">
        <ele>190.7</ele>
        <time>2022-10-30T13:50:56Z</time>
      </trkpt>
      <trkpt lat="43.23327" lon="6.30965">
        <ele>189.5</ele>
        <time>2022-10-30T13:51:01Z</time>
      </trkpt>
      <trkpt lat="43.23335" lon="6.30961">
        <ele>188.9</ele>
        <time>2022-10-30T13:51:10Z</time>
      </trkpt>
      <trkpt lat="43.23343" lon="6.3097">
        <ele>188.1</ele>
        <time>2022-10-30T13:51:19Z</time>
      </trkpt>
      <trkpt lat="43.2335" lon="6.30978">
        <ele>187.8</ele>
        <time>2022-10-30T13:51:24Z</time>
      </trkpt>
      <trkpt lat="43.23358" lon="6.30983">
        <ele>188.7</ele>
        <time>2022-10-30T13:51:30Z</time>
      </trkpt>
      <trkpt lat="43.23367" lon="6.30988">
        <ele>188.7</ele>
        <time>2022-10-30T13:51:42Z</time>
      </trkpt>
      <trkpt lat="43.23376" lon="6.30984">
        <ele>187.5</ele>
        <time>2022-10-30T13:51:48Z</time>
      </trkpt>
      <trkpt lat="43.23384" lon="6.30979">
        <ele>186.6</ele>
        <time>2022-10-30T13:51:57Z</time>
      </trkpt>
      <trkpt lat="43.23384" lon="6.30978">
        <ele>186.5</ele>
        <time>2022-10-30T13:51:58Z</time>
      </trkpt>
      <trkpt lat="43.23384" lon="6.30979">
        <ele>186.6</ele>
        <time>2022-10-30T13:51:59Z</time>
      </trkpt>
      <trkpt lat="43.23384" lon="6.3098">
        <ele>186.4</ele>
        <time>2022-10-30T13:52:02Z</time>
      </trkpt>
      <trkpt lat="43.23385" lon="6.30979">
        <ele>186.3</ele>
        <time>2022-10-30T13:52:03Z</time>
      </trkpt>
      <trkpt lat="43.23392" lon="6.3097">
        <ele>185.1</ele>
        <time>2022-10-30T13:52:10Z</time>
      </trkpt>
      <trkpt lat="43.23398" lon="6.30965">
        <ele>181.4</ele>
        <time>2022-10-30T13:52:15Z</time>
      </trkpt>
      <trkpt lat="43.23399" lon="6.30964">
        <ele>181.2</ele>
        <time>2022-10-30T13:52:16Z</time>
      </trkpt>
      <trkpt lat="43.23408" lon="6.30959">
        <ele>176.3</ele>
        <time>2022-10-30T13:52:25Z</time>
      </trkpt>
      <trkpt lat="43.23412" lon="6.30958">
        <ele>174.2</ele>
        <time>2022-10-30T13:52:31Z</time>
      </trkpt>
      <trkpt lat="43.23413" lon="6.30958">
        <ele>173.9</ele>
        <time>2022-10-30T13:52:32Z</time>
      </trkpt>
      <trkpt lat="43.23422" lon="6.30955">
        <ele>170.5</ele>
        <time>2022-10-30T13:52:40Z</time>
      </trkpt>
      <trkpt lat="43.23424" lon="6.30947">
        <ele>165.7</ele>
        <time>2022-10-30T13:52:59Z</time>
      </trkpt>
      <trkpt lat="43.23424" lon="6.30947">
        <ele>165.8</ele>
        <time>2022-10-30T13:53:05Z</time>
      </trkpt>
      <trkpt lat="43.23433" lon="6.30949">
        <ele>168.1</ele>
        <time>2022-10-30T13:53:26Z</time>
      </trkpt>
      <trkpt lat="43.23442" lon="6.30952">
        <ele>168.3</ele>
        <time>2022-10-30T13:53:36Z</time>
      </trkpt>
      <trkpt lat="43.23452" lon="6.30951">
        <ele>168.4</ele>
        <time>2022-10-30T13:53:46Z</time>
      </trkpt>
      <trkpt lat="43.23462" lon="6.30951">
        <ele>168.1</ele>
        <time>2022-10-30T13:53:55Z</time>
      </trkpt>
      <trkpt lat="43.23471" lon="6.30954">
        <ele>167.5</ele>
        <time>2022-10-30T13:54:06Z</time>
      </trkpt>
      <trkpt lat="43.2348" lon="6.30959">
        <ele>166.9</ele>
        <time>2022-10-30T13:54:13Z</time>
      </trkpt>
      <trkpt lat="43.23489" lon="6.30963">
        <ele>166.2</ele>
        <time>2022-10-30T13:54:22Z</time>
      </trkpt>
      <trkpt lat="43.23498" lon="6.30968">
        <ele>165.6</ele>
        <time>2022-10-30T13:54:32Z</time>
      </trkpt>
      <trkpt lat="43.23507" lon="6.30972">
        <ele>163.9</ele>
        <time>2022-10-30T13:54:41Z</time>
      </trkpt>
      <trkpt lat="43.23517" lon="6.30976">
        <ele>163.9</ele>
        <time>2022-10-30T13:54:50Z</time>
      </trkpt>
      <trkpt lat="43.23525" lon="6.30982">
        <ele>163.9</ele>
        <time>2022-10-30T13:54:59Z</time>
      </trkpt>
      <trkpt lat="43.23534" lon="6.30989">
        <ele>164.6</ele>
        <time>2022-10-30T13:55:10Z</time>
      </trkpt>
      <trkpt lat="43.23542" lon="6.30993">
        <ele>164.9</ele>
        <time>2022-10-30T13:55:18Z</time>
      </trkpt>
      <trkpt lat="43.23551" lon="6.30999">
        <ele>165.1</ele>
        <time>2022-10-30T13:55:27Z</time>
      </trkpt>
      <trkpt lat="43.2356" lon="6.31003">
        <ele>165.1</ele>
        <time>2022-10-30T13:55:35Z</time>
      </trkpt>
      <trkpt lat="43.23568" lon="6.31009">
        <ele>165.5</ele>
        <time>2022-10-30T13:55:45Z</time>
      </trkpt>
      <trkpt lat="43.2357" lon="6.31009">
        <ele>166.3</ele>
        <time>2022-10-30T13:55:52Z</time>
      </trkpt>
      <trkpt lat="43.2357" lon="6.31009">
        <ele>166.3</ele>
        <time>2022-10-30T13:55:53Z</time>
      </trkpt>
      <trkpt lat="43.2357" lon="6.31009">
        <ele>166.3</ele>
        <time>2022-10-30T13:55:53Z</time>
      </trkpt>
    </trkseg>
  </trk>
</gpx>